Wetterdaten: aktuell Mittwoch, 18.09.2019 20:20
Datum Zeit Temp. A. Feuchte A. Luftdruck Regen Wind Richtung Richtung Taupunkt Windchill Windben Empfang
18.09.2019 20:20 10,9 C 53 % 1023,1 hPa 0,0 l/m 3,2 km/h (1 Bft) NW 315 1,7 C 10,9 C 6,4 km/h (2 Bft) 91,30 %
18.09.2019 20:19 10,9 C 54 % 1023,1 hPa 0,0 l/m 3,2 km/h (1 Bft) NW 315 2,0 C 10,9 C 4,8 km/h (1 Bft) 100,00 %
18.09.2019 20:18 10,9 C 53 % 1023,1 hPa 0,0 l/m 3,2 km/h (1 Bft) NW 315 1,7 C 10,9 C 4,8 km/h (1 Bft) 91,30 %
18.09.2019 20:17 10,9 C 53 % 1023,1 hPa 0,0 l/m 3,2 km/h (1 Bft) NW 315 1,7 C 10,9 C 8,0 km/h (2 Bft) 100,00 %
18.09.2019 20:16 10,9 C 54 % 1023,1 hPa 0,0 l/m 3,2 km/h (1 Bft) NW 315 2,0 C 10,9 C 4,8 km/h (1 Bft) 95,65 %
18.09.2019 20:15 10,9 C 54 % 1023,1 hPa 0,0 l/m 3,2 km/h (1 Bft) W-NW 292 2,0 C 10,9 C 4,8 km/h (1 Bft) 91,30 %
18.09.2019 20:14 10,9 C 53 % 1023,1 hPa 0,0 l/m 3,2 km/h (1 Bft) NW 315 1,7 C 10,9 C 4,8 km/h (1 Bft) 100,00 %
18.09.2019 20:13 10,8 C 53 % 1023,0 hPa 0,0 l/m 4,8 km/h (1 Bft) NW 315 1,6 C 10,8 C 6,4 km/h (2 Bft) 95,65 %
18.09.2019 20:12 10,8 C 54 % 1023,0 hPa 0,0 l/m 4,8 km/h (1 Bft) W-NW 292 1,9 C 10,8 C 9,7 km/h (2 Bft) 100,00 %
18.09.2019 20:11 10,7 C 54 % 1023,0 hPa 0,0 l/m 4,8 km/h (1 Bft) W-NW 292 1,8 C 10,7 C 8,0 km/h (2 Bft) 95,65 %
18.09.2019 20:10 10,7 C 54 % 1023,0 hPa 0,0 l/m 3,2 km/h (1 Bft) NW 315 1,8 C 10,7 C 4,8 km/h (1 Bft) 100,00 %
18.09.2019 20:09 10,7 C 54 % 1023,0 hPa 0,0 l/m 4,8 km/h (1 Bft) NW 315 1,8 C 10,7 C 8,0 km/h (2 Bft) 91,30 %
18.09.2019 20:08 10,7 C 57 % 1023,0 hPa 0,0 l/m 3,2 km/h (1 Bft) NW 315 2,5 C 10,7 C 4,8 km/h (1 Bft) 91,30 %
18.09.2019 20:07 10,7 C 55 % 1023,0 hPa 0,0 l/m 3,2 km/h (1 Bft) NW 315 2,0 C 10,7 C 4,8 km/h (1 Bft) 95,65 %
18.09.2019 20:06 10,7 C 55 % 1023,0 hPa 0,0 l/m 3,2 km/h (1 Bft) NW 315 2,0 C 10,7 C 4,8 km/h (1 Bft) 91,30 %
18.09.2019 20:05 10,8 C 55 % 1023,0 hPa 0,0 l/m 3,2 km/h (1 Bft) NW 315 2,1 C 10,8 C 4,8 km/h (1 Bft) 95,65 %
18.09.2019 20:04 10,8 C 56 % 1022,9 hPa 0,0 l/m 3,2 km/h (1 Bft) NW 315 2,4 C 10,8 C 4,8 km/h (1 Bft) 95,65 %
18.09.2019 20:03 10,8 C 55 % 1022,9 hPa 0,0 l/m 4,8 km/h (1 Bft) NW 315 2,1 C 10,8 C 6,4 km/h (2 Bft) 91,30 %
18.09.2019 20:02 10,7 C 55 % 1022,9 hPa 0,0 l/m 4,8 km/h (1 Bft) NW 315 2,0 C 10,7 C 9,7 km/h (2 Bft) 95,65 %
18.09.2019 20:01 10,7 C 56 % 1022,9 hPa 0,0 l/m 4,8 km/h (1 Bft) NW 315 2,3 C 10,7 C 6,4 km/h (2 Bft) 95,65 %
18.09.2019 20:00 10,7 C 55 % 1023,0 hPa 0,0 l/m 6,4 km/h (2 Bft) NW 315 2,0 C 10,7 C 9,7 km/h (2 Bft) 95,65 %
18.09.2019 19:59 10,7 C 56 % 1022,8 hPa 0,0 l/m 4,8 km/h (1 Bft) NW 315 2,3 C 10,7 C 6,4 km/h (2 Bft) 91,30 %
18.09.2019 19:58 10,8 C 55 % 1022,9 hPa 0,0 l/m 4,8 km/h (1 Bft) NW 315 2,1 C 10,8 C 6,4 km/h (2 Bft) 100,00 %
18.09.2019 19:57 10,8 C 55 % 1022,9 hPa 0,0 l/m 4,8 km/h (1 Bft) NW 315 2,1 C 10,8 C 6,4 km/h (2 Bft) 91,30 %
18.09.2019 19:56 10,8 C 56 % 1022,9 hPa 0,0 l/m 4,8 km/h (1 Bft) NW 315 2,4 C 10,8 C 9,7 km/h (2 Bft) 91,30 %
18.09.2019 19:55 10,7 C 55 % 1022,8 hPa 0,0 l/m 6,4 km/h (2 Bft) NW 315 2,0 C 10,7 C 9,7 km/h (2 Bft) 95,65 %
18.09.2019 19:54 10,6 C 56 % 1022,8 hPa 0,0 l/m 4,8 km/h (1 Bft) NW 315 2,2 C 10,6 C 9,7 km/h (2 Bft) 100,00 %
18.09.2019 19:53 10,5 C 57 % 1022,8 hPa 0,0 l/m 4,8 km/h (1 Bft) NW 315 2,3 C 10,5 C 8,0 km/h (2 Bft) 100,00 %
18.09.2019 19:52 10,5 C 58 % 1022,8 hPa 0,0 l/m 4,8 km/h (1 Bft) NW 315 2,6 C 10,5 C 8,0 km/h (2 Bft) 95,65 %
18.09.2019 19:51 10,5 C 57 % 1022,7 hPa 0,0 l/m 4,8 km/h (1 Bft) NW 315 2,3 C 10,5 C 8,0 km/h (2 Bft) 95,65 %
18.09.2019 19:50 10,6 C 59 % 1022,7 hPa 0,0 l/m 3,2 km/h (1 Bft) NW 315 2,9 C 10,6 C 4,8 km/h (1 Bft) 95,65 %
18.09.2019 19:49 10,6 C 57 % 1022,7 hPa 0,0 l/m 3,2 km/h (1 Bft) NW 315 2,4 C 10,6 C 3,2 km/h (1 Bft) 95,65 %
18.09.2019 19:48 10,6 C 58 % 1022,7 hPa 0,0 l/m 3,2 km/h (1 Bft) NW 315 2,7 C 10,6 C 4,8 km/h (1 Bft) 95,65 %
18.09.2019 19:47 10,5 C 57 % 1022,7 hPa 0,0 l/m 4,8 km/h (1 Bft) NW 315 2,3 C 10,5 C 6,4 km/h (2 Bft) 91,30 %
18.09.2019 19:46 10,4 C 58 % 1022,7 hPa 0,0 l/m 3,2 km/h (1 Bft) NW 315 2,5 C 10,4 C 4,8 km/h (1 Bft) 100,00 %
18.09.2019 19:45 10,4 C 59 % 1022,6 hPa 0,0 l/m 3,2 km/h (1 Bft) NW 315 2,7 C 10,4 C 6,4 km/h (2 Bft) 91,30 %
18.09.2019 19:44 10,4 C 58 % 1022,6 hPa 0,0 l/m 3,2 km/h (1 Bft) NW 315 2,5 C 10,4 C 6,4 km/h (2 Bft) 100,00 %
18.09.2019 19:43 10,4 C 60 % 1022,6 hPa 0,0 l/m 3,2 km/h (1 Bft) NW 315 3,0 C 10,4 C 4,8 km/h (1 Bft) 100,00 %
18.09.2019 19:42 10,4 C 59 % 1022,6 hPa 0,0 l/m 1,6 km/h (1 Bft) NW 315 2,7 C 10,4 C 4,8 km/h (1 Bft) 95,65 %
18.09.2019 19:41 10,4 C 59 % 1022,6 hPa 0,0 l/m 3,2 km/h (1 Bft) NW 315 2,7 C 10,4 C 3,2 km/h (1 Bft) 95,65 %
18.09.2019 19:40 10,4 C 59 % 1022,6 hPa 0,0 l/m 3,2 km/h (1 Bft) NW 315 2,7 C 10,4 C 4,8 km/h (1 Bft) 91,30 %
18.09.2019 19:39 10,4 C 60 % 1022,6 hPa 0,0 l/m 3,2 km/h (1 Bft) NW 315 3,0 C 10,4 C 3,2 km/h (1 Bft) 95,65 %
18.09.2019 19:38 10,5 C 60 % 1022,5 hPa 0,0 l/m 3,2 km/h (1 Bft) NW 315 3,1 C 10,5 C 4,8 km/h (1 Bft) 95,65 %
18.09.2019 19:37 10,4 C 59 % 1022,6 hPa 0,0 l/m 3,2 km/h (1 Bft) NW 315 2,7 C 10,4 C 6,4 km/h (2 Bft) 91,30 %
18.09.2019 19:36 10,5 C 60 % 1022,5 hPa 0,0 l/m 3,2 km/h (1 Bft) NW 315 3,1 C 10,5 C 6,4 km/h (2 Bft) 100,00 %
18.09.2019 19:35 10,6 C 60 % 1022,5 hPa 0,0 l/m 3,2 km/h (1 Bft) NW 315 3,2 C 10,6 C 4,8 km/h (1 Bft) 95,65 %
18.09.2019 19:34 10,6 C 60 % 1022,5 hPa 0,0 l/m 3,2 km/h (1 Bft) NW 315 3,2 C 10,6 C 6,4 km/h (2 Bft) 91,30 %
18.09.2019 19:33 10,6 C 60 % 1022,5 hPa 0,0 l/m 1,6 km/h (1 Bft) NW 315 3,2 C 10,6 C 3,2 km/h (1 Bft) 100,00 %
18.09.2019 19:32 10,6 C 60 % 1022,5 hPa 0,0 l/m 1,6 km/h (1 Bft) NW 315 3,2 C 10,6 C 3,2 km/h (1 Bft) 91,30 %
18.09.2019 19:31 10,7 C 60 % 1022,5 hPa 0,0 l/m 1,6 km/h (1 Bft) NW 315 3,3 C 10,7 C 3,2 km/h (1 Bft) 100,00 %
18.09.2019 19:30 10,7 C 59 % 1022,5 hPa 0,0 l/m 3,2 km/h (1 Bft) NW 315 3,0 C 10,7 C 3,2 km/h (1 Bft) 91,30 %
18.09.2019 19:29 10,7 C 60 % 1022,5 hPa 0,0 l/m 1,6 km/h (1 Bft) NW 315 3,3 C 10,7 C 3,2 km/h (1 Bft) 95,65 %
18.09.2019 19:28 10,7 C 59 % 1022,5 hPa 0,0 l/m 1,6 km/h (1 Bft) NW 315 3,0 C 10,7 C 4,8 km/h (1 Bft) 91,30 %
18.09.2019 19:27 10,7 C 59 % 1022,5 hPa 0,0 l/m 3,2 km/h (1 Bft) NW 315 3,0 C 10,7 C 4,8 km/h (1 Bft) 91,30 %
18.09.2019 19:26 10,7 C 60 % 1022,4 hPa 0,0 l/m 1,6 km/h (1 Bft) NW 315 3,3 C 10,7 C 3,2 km/h (1 Bft) 100,00 %
18.09.2019 19:25 10,6 C 62 % 1022,4 hPa 0,0 l/m 1,6 km/h (1 Bft) NW 315 3,6 C 10,6 C 3,2 km/h (1 Bft) 95,65 %
18.09.2019 19:24 10,6 C 60 % 1022,5 hPa 0,0 l/m 1,6 km/h (1 Bft) NW 315 3,2 C 10,6 C 3,2 km/h (1 Bft) 95,65 %
18.09.2019 19:23 10,6 C 60 % 1022,4 hPa 0,0 l/m 3,2 km/h (1 Bft) NW 315 3,2 C 10,6 C 6,4 km/h (2 Bft) 100,00 %
18.09.2019 19:22 10,6 C 62 % 1022,3 hPa 0,0 l/m 1,6 km/h (1 Bft) NW 315 3,6 C 10,6 C 3,2 km/h (1 Bft) 91,30 %
18.09.2019 19:21 10,6 C 62 % 1022,3 hPa 0,0 l/m 1,6 km/h (1 Bft) NW 315 3,6 C 10,6 C 1,6 km/h (1 Bft) 95,65 %
18.09.2019 19:20 10,7 C 62 % 1022,3 hPa 0,0 l/m 1,6 km/h (1 Bft) NW 315 3,7 C 10,7 C 1,6 km/h (1 Bft) 100,00 %
18.09.2019 19:19 10,8 C 62 % 1022,3 hPa 0,0 l/m 1,6 km/h (1 Bft) NW 315 3,8 C 10,8 C 1,6 km/h (1 Bft) 100,00 %
18.09.2019 19:18 10,8 C 62 % 1022,4 hPa 0,0 l/m 1,6 km/h (1 Bft) NW 315 3,8 C 10,8 C 1,6 km/h (1 Bft) 95,65 %
18.09.2019 19:17 10,9 C 62 % 1022,3 hPa 0,0 l/m 1,6 km/h (1 Bft) NW 315 3,9 C 10,9 C 3,2 km/h (1 Bft) 100,00 %
18.09.2019 19:16 10,9 C 60 % 1022,3 hPa 0,0 l/m 0,0 km/h (0 Bft) NW 315 3,4 C 10,9 C 3,2 km/h (1 Bft) 91,30 %
18.09.2019 19:15 10,9 C 60 % 1022,3 hPa 0,0 l/m 0,0 km/h (0 Bft) NW 315 3,4 C 10,9 C 1,6 km/h (1 Bft) 91,30 %
18.09.2019 19:14 11,0 C 62 % 1022,4 hPa 0,0 l/m 1,6 km/h (1 Bft) NW 315 4,0 C 11,0 C 3,2 km/h (1 Bft) 100,00 %
18.09.2019 19:13 11,1 C 60 % 1022,2 hPa 0,0 l/m 0,0 km/h (0 Bft) NW 315 3,6 C 11,1 C 1,6 km/h (1 Bft) 95,65 %
18.09.2019 19:12 11,2 C 62 % 1022,2 hPa 0,0 l/m 1,6 km/h (1 Bft) NW 315 4,2 C 11,2 C 1,6 km/h (1 Bft) 100,00 %
18.09.2019 19:11 11,3 C 61 % 1022,2 hPa 0,0 l/m 1,6 km/h (1 Bft) NW 315 4,1 C 11,3 C 3,2 km/h (1 Bft) 91,30 %
18.09.2019 19:10 11,4 C 60 % 1022,2 hPa 0,0 l/m 0,0 km/h (0 Bft) NW 315 3,9 C 11,4 C 1,6 km/h (1 Bft) 95,65 %
18.09.2019 19:09 11,4 C 59 % 1022,1 hPa 0,0 l/m 0,0 km/h (0 Bft) NW 315 3,7 C 11,4 C 1,6 km/h (1 Bft) 95,65 %
18.09.2019 19:08 11,6 C 60 % 1022,1 hPa 0,0 l/m 0,0 km/h (0 Bft) NW 315 4,1 C 11,6 C 3,2 km/h (1 Bft) 95,65 %
18.09.2019 19:07 11,6 C 60 % 1022,1 hPa 0,0 l/m 1,6 km/h (1 Bft) W-NW 292 4,1 C 11,6 C 1,6 km/h (1 Bft) 100,00 %
18.09.2019 19:06 11,6 C 59 % 1022,1 hPa 0,0 l/m 0,0 km/h (0 Bft) W-NW 292 3,9 C 11,6 C 1,6 km/h (1 Bft) 95,65 %
18.09.2019 19:05 11,7 C 58 % 1022,2 hPa 0,0 l/m 0,0 km/h (0 Bft) N 0 3,7 C 11,7 C 0,0 km/h (0 Bft) 100,00 %
18.09.2019 19:04 11,7 C 60 % 1022,1 hPa 0,0 l/m 0,0 km/h (0 Bft) W-NW 292 4,2 C 11,7 C 1,6 km/h (1 Bft) 95,65 %
18.09.2019 19:03 11,6 C 57 % 1022,0 hPa 0,0 l/m 0,0 km/h (0 Bft) W-NW 292 3,4 C 11,6 C 1,6 km/h (1 Bft) 95,65 %
18.09.2019 19:02 11,6 C 58 % 1022,2 hPa 0,0 l/m 0,0 km/h (0 Bft) N 0 3,6 C 11,6 C 0,0 km/h (0 Bft) 95,65 %
18.09.2019 19:01 11,7 C 61 % 1022,0 hPa 0,0 l/m 1,6 km/h (1 Bft) NW 315 4,4 C 11,7 C 1,6 km/h (1 Bft) 91,30 %
18.09.2019 19:00 11,8 C 60 % 1022,1 hPa 0,0 l/m 0,0 km/h (0 Bft) NW 315 4,3 C 11,8 C 1,6 km/h (1 Bft) 95,65 %
18.09.2019 18:59 11,8 C 59 % 1022,1 hPa 0,0 l/m 0,0 km/h (0 Bft) W-NW 292 4,1 C 11,8 C 1,6 km/h (1 Bft) 100,00 %
18.09.2019 18:58 11,8 C 60 % 1022,1 hPa 0,0 l/m 1,6 km/h (1 Bft) W-NW 292 4,3 C 11,8 C 3,2 km/h (1 Bft) 91,30 %
18.09.2019 18:57 11,9 C 60 % 1022,1 hPa 0,0 l/m 0,0 km/h (0 Bft) W-NW 292 4,4 C 11,9 C 1,6 km/h (1 Bft) 95,65 %
18.09.2019 18:56 11,9 C 58 % 1022,0 hPa 0,0 l/m 1,6 km/h (1 Bft) W-NW 292 3,9 C 11,9 C 1,6 km/h (1 Bft) 95,65 %
18.09.2019 18:55 11,9 C 60 % 1022,0 hPa 0,0 l/m 1,6 km/h (1 Bft) W-NW 292 4,4 C 11,9 C 1,6 km/h (1 Bft) 95,65 %
18.09.2019 18:54 11,9 C 60 % 1022,0 hPa 0,0 l/m 0,0 km/h (0 Bft) N 0 4,4 C 11,9 C 0,0 km/h (0 Bft) 95,65 %
18.09.2019 18:53 12,0 C 60 % 1022,0 hPa 0,0 l/m 0,0 km/h (0 Bft) N 0 4,5 C 12,0 C 0,0 km/h (0 Bft) 91,30 %
18.09.2019 18:52 12,1 C 60 % 1022,1 hPa 0,0 l/m 0,0 km/h (0 Bft) W-NW 292 4,6 C 12,1 C 1,6 km/h (1 Bft) 95,65 %
18.09.2019 18:51 12,1 C 60 % 1022,0 hPa 0,0 l/m 0,0 km/h (0 Bft) N 0 4,6 C 12,1 C 0,0 km/h (0 Bft) 91,30 %
18.09.2019 18:50 12,1 C 59 % 1022,0 hPa 0,0 l/m 0,0 km/h (0 Bft) N 0 4,3 C 12,1 C 0,0 km/h (0 Bft) 100,00 %
18.09.2019 18:49 12,2 C 59 % 1022,0 hPa 0,0 l/m 0,0 km/h (0 Bft) N 0 4,4 C 12,2 C 0,0 km/h (0 Bft) 95,65 %
18.09.2019 18:48 12,2 C 59 % 1022,0 hPa 0,0 l/m 0,0 km/h (0 Bft) W-NW 292 4,4 C 12,2 C 1,6 km/h (1 Bft) 100,00 %
18.09.2019 18:47 12,3 C 60 % 1022,0 hPa 0,0 l/m 1,6 km/h (1 Bft) W-NW 292 4,8 C 12,3 C 1,6 km/h (1 Bft) 95,65 %
18.09.2019 18:46 12,3 C 58 % 1022,0 hPa 0,0 l/m 0,0 km/h (0 Bft) W-NW 292 4,3 C 12,3 C 1,6 km/h (1 Bft) 91,30 %
18.09.2019 18:45 12,4 C 58 % 1022,0 hPa 0,0 l/m 0,0 km/h (0 Bft) W 270 4,4 C 12,4 C 1,6 km/h (1 Bft) 100,00 %
18.09.2019 18:44 12,4 C 55 % 1022,1 hPa 0,0 l/m 0,0 km/h (0 Bft) N 0 3,6 C 12,4 C 0,0 km/h (0 Bft) 95,65 %
18.09.2019 18:43 12,4 C 59 % 1022,1 hPa 0,0 l/m 0,0 km/h (0 Bft) N-NW 337 4,6 C 12,4 C 1,6 km/h (1 Bft) 95,65 %
18.09.2019 18:42 12,4 C 57 % 1022,1 hPa 0,0 l/m 0,0 km/h (0 Bft) N 0 4,1 C 12,4 C 0,0 km/h (0 Bft) 95,65 %
18.09.2019 18:41 12,4 C 57 % 1022,0 hPa 0,0 l/m 0,0 km/h (0 Bft) N 0 4,1 C 12,4 C 0,0 km/h (0 Bft) 95,65 %
18.09.2019 18:40 12,4 C 57 % 1021,9 hPa 0,0 l/m 0,0 km/h (0 Bft) N 0 4,1 C 12,4 C 0,0 km/h (0 Bft) 100,00 %
18.09.2019 18:39 12,4 C 55 % 1022,1 hPa 0,0 l/m 1,6 km/h (1 Bft) N-NW 337 3,6 C 12,4 C 1,6 km/h (1 Bft) 95,65 %
18.09.2019 18:38 12,3 C 56 % 1022,1 hPa 0,0 l/m 1,6 km/h (1 Bft) NW 315 3,8 C 12,3 C 3,2 km/h (1 Bft) 100,00 %
18.09.2019 18:37 12,3 C 58 % 1022,1 hPa 0,0 l/m 1,6 km/h (1 Bft) W-NW 292 4,3 C 12,3 C 3,2 km/h (1 Bft) 91,30 %
18.09.2019 18:36 12,3 C 58 % 1022,1 hPa 0,0 l/m 0,0 km/h (0 Bft) W-NW 292 4,3 C 12,3 C 1,6 km/h (1 Bft) 100,00 %
18.09.2019 18:35 12,4 C 59 % 1022,1 hPa 0,0 l/m 0,0 km/h (0 Bft) N 0 4,6 C 12,4 C 0,0 km/h (0 Bft) 95,65 %
18.09.2019 18:34 12,4 C 58 % 1022,1 hPa 0,0 l/m 0,0 km/h (0 Bft) N 0 4,4 C 12,4 C 0,0 km/h (0 Bft) 95,65 %
18.09.2019 18:33 12,4 C 58 % 1022,1 hPa 0,0 l/m 0,0 km/h (0 Bft) N 0 4,4 C 12,4 C 0,0 km/h (0 Bft) 95,65 %
18.09.2019 18:32 12,4 C 57 % 1022,1 hPa 0,0 l/m 0,0 km/h (0 Bft) N 0 4,1 C 12,4 C 0,0 km/h (0 Bft) 91,30 %
18.09.2019 18:31 12,4 C 56 % 1022,0 hPa 0,0 l/m 0,0 km/h (0 Bft) N 0 3,9 C 12,4 C 0,0 km/h (0 Bft) 95,65 %
18.09.2019 18:30 12,4 C 57 % 1022,1 hPa 0,0 l/m 0,0 km/h (0 Bft) N 0 4,1 C 12,4 C 0,0 km/h (0 Bft) 95,65 %
18.09.2019 18:29 12,4 C 57 % 1022,1 hPa 0,0 l/m 0,0 km/h (0 Bft) N 0 4,1 C 12,4 C 0,0 km/h (0 Bft) 91,30 %
18.09.2019 18:28 12,5 C 56 % 1022,1 hPa 0,0 l/m 0,0 km/h (0 Bft) N-NW 337 4,0 C 12,5 C 1,6 km/h (1 Bft) 100,00 %
18.09.2019 18:27 12,6 C 58 % 1022,1 hPa 0,0 l/m 0,0 km/h (0 Bft) N-NW 337 4,6 C 12,6 C 1,6 km/h (1 Bft) 91,30 %
18.09.2019 18:26 12,6 C 57 % 1022,1 hPa 0,0 l/m 0,0 km/h (0 Bft) N-NW 337 4,3 C 12,6 C 1,6 km/h (1 Bft) 95,65 %
18.09.2019 18:25 12,6 C 56 % 1022,1 hPa 0,0 l/m 0,0 km/h (0 Bft) N 0 4,1 C 12,6 C 0,0 km/h (0 Bft) 95,65 %
18.09.2019 18:24 12,7 C 56 % 1022,0 hPa 0,0 l/m 0,0 km/h (0 Bft) N-NW 337 4,2 C 12,7 C 1,6 km/h (1 Bft) 100,00 %
18.09.2019 18:23 12,7 C 56 % 1022,0 hPa 0,0 l/m 0,0 km/h (0 Bft) N 0 4,2 C 12,7 C 0,0 km/h (0 Bft) 91,30 %
18.09.2019 18:22 12,7 C 58 % 1021,9 hPa 0,0 l/m 0,0 km/h (0 Bft) N 0 4,7 C 12,7 C 0,0 km/h (0 Bft) 100,00 %
18.09.2019 18:21 12,8 C 56 % 1022,0 hPa 0,0 l/m 0,0 km/h (0 Bft) N 0 4,2 C 12,8 C 0,0 km/h (0 Bft) 100,00 %
18.09.2019 18:20 12,8 C 57 % 1022,0 hPa 0,0 l/m 0,0 km/h (0 Bft) N 0 4,5 C 12,8 C 0,0 km/h (0 Bft) 95,65 %
18.09.2019 18:19 12,8 C 57 % 1022,0 hPa 0,0 l/m 0,0 km/h (0 Bft) N 0 4,5 C 12,8 C 0,0 km/h (0 Bft) 95,65 %
18.09.2019 18:18 12,9 C 57 % 1022,0 hPa 0,0 l/m 0,0 km/h (0 Bft) N 0 4,6 C 12,9 C 0,0 km/h (0 Bft) 95,65 %
18.09.2019 18:17 13,0 C 55 % 1022,0 hPa 0,0 l/m 0,0 km/h (0 Bft) N 0 4,2 C 13,0 C 0,0 km/h (0 Bft) 95,65 %
18.09.2019 18:16 13,1 C 56 % 1022,0 hPa 0,0 l/m 0,0 km/h (0 Bft) N-NW 337 4,5 C 13,1 C 1,6 km/h (1 Bft) 95,65 %
18.09.2019 18:15 13,2 C 54 % 1022,0 hPa 0,0 l/m 0,0 km/h (0 Bft) N-NW 337 4,1 C 13,2 C 1,6 km/h (1 Bft) 100,00 %
18.09.2019 18:14 13,2 C 55 % 1021,9 hPa 0,0 l/m 0,0 km/h (0 Bft) N 0 4,4 C 13,2 C 0,0 km/h (0 Bft) 100,00 %
18.09.2019 18:13 13,3 C 53 % 1022,0 hPa 0,0 l/m 0,0 km/h (0 Bft) N-NW 337 3,9 C 13,3 C 1,6 km/h (1 Bft) 86,96 %
18.09.2019 18:12 13,4 C 53 % 1022,0 hPa 0,0 l/m 0,0 km/h (0 Bft) N-NW 337 4,0 C 13,4 C 1,6 km/h (1 Bft) 100,00 %
18.09.2019 18:11 13,4 C 54 % 1022,0 hPa 0,0 l/m 0,0 km/h (0 Bft) N 0 4,3 C 13,4 C 0,0 km/h (0 Bft) 100,00 %
18.09.2019 18:10 13,6 C 53 % 1022,0 hPa 0,0 l/m 0,0 km/h (0 Bft) N 360 4,2 C 13,6 C 1,6 km/h (1 Bft) 100,00 %
18.09.2019 18:09 13,7 C 53 % 1022,0 hPa 0,0 l/m 0,0 km/h (0 Bft) N 0 4,3 C 13,7 C 0,0 km/h (0 Bft) 100,00 %
18.09.2019 18:08 13,7 C 52 % 1022,0 hPa 0,0 l/m 0,0 km/h (0 Bft) N 0 4,0 C 13,7 C 0,0 km/h (0 Bft) 100,00 %
18.09.2019 18:07 13,8 C 52 % 1022,0 hPa 0,0 l/m 0,0 km/h (0 Bft) N 0 4,1 C 13,8 C 0,0 km/h (0 Bft) 100,00 %
18.09.2019 18:06 13,9 C 51 % 1022,0 hPa 0,0 l/m 0,0 km/h (0 Bft) N 360 3,9 C 13,9 C 1,6 km/h (1 Bft) 100,00 %
18.09.2019 18:05 13,9 C 49 % 1022,0 hPa 0,0 l/m 0,0 km/h (0 Bft) N 0 3,4 C 13,9 C 0,0 km/h (0 Bft) 100,00 %
18.09.2019 18:04 13,9 C 49 % 1021,9 hPa 0,0 l/m 3,2 km/h (1 Bft) N 360 3,4 C 13,9 C 4,8 km/h (1 Bft) 100,00 %
18.09.2019 18:03 14,0 C 49 % 1021,9 hPa 0,0 l/m 0,0 km/h (0 Bft) N-NO 22 3,5 C 14,0 C 4,8 km/h (1 Bft) 100,00 %
18.09.2019 18:02 14,1 C 50 % 1021,9 hPa 0,0 l/m 1,6 km/h (1 Bft) N-NO 22 3,8 C 14,1 C 3,2 km/h (1 Bft) 100,00 %
18.09.2019 18:01 14,1 C 49 % 1021,9 hPa 0,0 l/m 0,0 km/h (0 Bft) N 360 3,6 C 14,1 C 1,6 km/h (1 Bft) 100,00 %
18.09.2019 18:00 14,2 C 50 % 1021,9 hPa 0,0 l/m 0,0 km/h (0 Bft) NW 315 3,9 C 14,2 C 1,6 km/h (1 Bft) 91,30 %
18.09.2019 17:59 14,2 C 49 % 1021,9 hPa 0,0 l/m 1,6 km/h (1 Bft) N-NO 22 3,6 C 14,2 C 3,2 km/h (1 Bft) 100,00 %
18.09.2019 17:58 14,3 C 47 % 1021,9 hPa 0,0 l/m 3,2 km/h (1 Bft) N-NO 22 3,1 C 14,3 C 4,8 km/h (1 Bft) 95,65 %
18.09.2019 17:57 14,4 C 46 % 1021,9 hPa 0,0 l/m 0,0 km/h (0 Bft) N 360 2,9 C 14,4 C 3,2 km/h (1 Bft) 100,00 %
18.09.2019 17:56 14,4 C 46 % 1022,0 hPa 0,0 l/m 3,2 km/h (1 Bft) N-NO 22 2,9 C 14,4 C 4,8 km/h (1 Bft) 100,00 %
18.09.2019 17:55 14,5 C 46 % 1021,9 hPa 0,0 l/m 3,2 km/h (1 Bft) N 360 3,0 C 14,5 C 6,4 km/h (2 Bft) 100,00 %
18.09.2019 17:54 14,6 C 46 % 1021,9 hPa 0,0 l/m 3,2 km/h (1 Bft) N-NO 22 3,1 C 14,6 C 6,4 km/h (2 Bft) 82,61 %
18.09.2019 17:53 14,7 C 45 % 1021,8 hPa 0,0 l/m 4,8 km/h (1 Bft) N-NO 22 2,9 C 14,7 C 11,3 km/h (2 Bft) 73,91 %
18.09.2019 17:52 14,7 C 45 % 1021,9 hPa 0,0 l/m 3,2 km/h (1 Bft) NO 45 2,9 C 14,7 C 6,4 km/h (2 Bft) 95,65 %
18.09.2019 17:51 14,8 C 45 % 1022,0 hPa 0,0 l/m 4,8 km/h (1 Bft) NO 45 3,0 C 14,8 C 11,3 km/h (2 Bft) 100,00 %
18.09.2019 17:50 14,8 C 45 % 1021,8 hPa 0,0 l/m 3,2 km/h (1 Bft) NO 45 3,0 C 14,8 C 6,4 km/h (2 Bft) 86,96 %
18.09.2019 17:49 14,8 C 44 % 1021,8 hPa 0,0 l/m 3,2 km/h (1 Bft) NO 45 2,7 C 14,8 C 6,4 km/h (2 Bft) 78,26 %
18.09.2019 17:48 14,8 C 44 % 1021,8 hPa 0,0 l/m 4,8 km/h (1 Bft) NO 45 2,7 C 14,8 C 9,7 km/h (2 Bft) 95,65 %
18.09.2019 17:47 14,8 C 45 % 1021,9 hPa 0,0 l/m 1,6 km/h (1 Bft) N 360 3,0 C 14,8 C 4,8 km/h (1 Bft) 95,65 %
18.09.2019 17:46 14,8 C 44 % 1021,9 hPa 0,0 l/m 3,2 km/h (1 Bft) N-NO 22 2,7 C 14,8 C 4,8 km/h (1 Bft) 100,00 %
18.09.2019 17:45 14,8 C 43 % 1021,8 hPa 0,0 l/m 4,8 km/h (1 Bft) NO 45 2,3 C 14,8 C 8,0 km/h (2 Bft) 100,00 %
18.09.2019 17:44 14,8 C 43 % 1021,9 hPa 0,0 l/m 6,4 km/h (2 Bft) N-NO 22 2,3 C 14,8 C 9,7 km/h (2 Bft) 100,00 %
18.09.2019 17:43 14,8 C 44 % 1021,9 hPa 0,0 l/m 8,0 km/h (2 Bft) NO 45 2,7 C 13,9 C 14,5 km/h (3 Bft) 100,00 %
18.09.2019 17:42 14,9 C 44 % 1021,8 hPa 0,0 l/m 0,0 km/h (0 Bft) N 0 2,8 C 14,9 C 0,0 km/h (0 Bft) 0,00 %
18.09.2019 17:41 14,9 C 44 % 1021,9 hPa 0,0 l/m 6,4 km/h (2 Bft) NO 45 2,8 C 14,9 C 9,7 km/h (2 Bft) 47,83 %
18.09.2019 17:38 14,9 C 44 % 1021,9 hPa 0,0 l/m 6,4 km/h (2 Bft) N-NO 22 2,8 C 14,9 C 9,7 km/h (2 Bft) 95,65 %
18.09.2019 17:37 14,9 C 44 % 1021,9 hPa 0,0 l/m 6,4 km/h (2 Bft) NO 45 2,8 C 14,9 C 9,7 km/h (2 Bft) 91,30 %
18.09.2019 17:36 15,0 C 45 % 1021,8 hPa 0,0 l/m 4,8 km/h (1 Bft) O-NO 67 3,2 C 15,0 C 8,0 km/h (2 Bft) 95,65 %
18.09.2019 17:35 15,1 C 44 % 1021,9 hPa 0,0 l/m 6,4 km/h (2 Bft) N-NO 22 2,9 C 15,1 C 9,7 km/h (2 Bft) 100,00 %
18.09.2019 17:34 15,1 C 46 % 1021,9 hPa 0,0 l/m 6,4 km/h (2 Bft) N-NO 22 3,6 C 15,1 C 12,9 km/h (3 Bft) 91,30 %
18.09.2019 17:33 15,1 C 44 % 1021,9 hPa 0,0 l/m 3,2 km/h (1 Bft) O-NO 67 2,9 C 15,1 C 6,4 km/h (2 Bft) 95,65 %
18.09.2019 17:32 15,0 C 44 % 1021,9 hPa 0,0 l/m 1,6 km/h (1 Bft) O-NO 67 2,9 C 15,0 C 4,8 km/h (1 Bft) 91,30 %
18.09.2019 17:31 15,0 C 44 % 1021,9 hPa 0,0 l/m 3,2 km/h (1 Bft) NO 45 2,9 C 15,0 C 6,4 km/h (2 Bft) 100,00 %
18.09.2019 17:30 15,0 C 45 % 1021,9 hPa 0,0 l/m 4,8 km/h (1 Bft) N-NO 22 3,2 C 15,0 C 9,7 km/h (2 Bft) 95,65 %
18.09.2019 17:29 15,0 C 44 % 1021,9 hPa 0,0 l/m 6,4 km/h (2 Bft) N-NO 22 2,9 C 15,0 C 8,0 km/h (2 Bft) 95,65 %
18.09.2019 17:28 15,1 C 45 % 1022,0 hPa 0,0 l/m 4,8 km/h (1 Bft) NO 45 3,3 C 15,1 C 9,7 km/h (2 Bft) 100,00 %
18.09.2019 17:27 15,0 C 45 % 1021,9 hPa 0,0 l/m 8,0 km/h (2 Bft) NO 45 3,2 C 14,1 C 12,9 km/h (3 Bft) 95,65 %
18.09.2019 17:26 15,0 C 46 % 1021,9 hPa 0,0 l/m 3,2 km/h (1 Bft) NO 45 3,5 C 15,0 C 9,7 km/h (2 Bft) 100,00 %
18.09.2019 17:25 15,0 C 46 % 1021,9 hPa 0,0 l/m 4,8 km/h (1 Bft) N 360 3,5 C 15,0 C 9,7 km/h (2 Bft) 95,65 %
18.09.2019 17:24 15,0 C 45 % 1021,9 hPa 0,0 l/m 6,4 km/h (2 Bft) N-NO 22 3,2 C 15,0 C 8,0 km/h (2 Bft) 95,65 %
18.09.2019 17:23 14,9 C 46 % 1021,8 hPa 0,0 l/m 3,2 km/h (1 Bft) N-NO 22 3,4 C 14,9 C 8,0 km/h (2 Bft) 95,65 %
18.09.2019 17:22 14,9 C 45 % 1022,0 hPa 0,0 l/m 6,4 km/h (2 Bft) NO 45 3,1 C 14,9 C 8,0 km/h (2 Bft) 95,65 %
18.09.2019 17:21 14,9 C 47 % 1021,9 hPa 0,0 l/m 3,2 km/h (1 Bft) N-NO 22 3,7 C 14,9 C 9,7 km/h (2 Bft) 100,00 %
18.09.2019 17:20 14,9 C 46 % 1021,9 hPa 0,0 l/m 3,2 km/h (1 Bft) O-NO 67 3,4 C 14,9 C 8,0 km/h (2 Bft) 95,65 %
18.09.2019 17:19 14,9 C 45 % 1021,8 hPa 0,0 l/m 8,0 km/h (2 Bft) NO 45 3,1 C 14,0 C 11,3 km/h (2 Bft) 100,00 %
18.09.2019 17:18 14,9 C 45 % 1022,0 hPa 0,0 l/m 8,0 km/h (2 Bft) NO 45 3,1 C 14,0 C 11,3 km/h (2 Bft) 95,65 %
18.09.2019 17:17 14,9 C 46 % 1021,9 hPa 0,0 l/m 8,0 km/h (2 Bft) NO 45 3,4 C 14,0 C 12,9 km/h (3 Bft) 91,30 %
18.09.2019 17:16 14,9 C 46 % 1021,9 hPa 0,0 l/m 8,0 km/h (2 Bft) NO 45 3,4 C 14,0 C 11,3 km/h (2 Bft) 100,00 %
18.09.2019 17:15 15,0 C 46 % 1021,9 hPa 0,0 l/m 8,0 km/h (2 Bft) NO 45 3,5 C 14,1 C 9,7 km/h (2 Bft) 95,65 %
18.09.2019 17:14 15,0 C 46 % 1021,9 hPa 0,0 l/m 6,4 km/h (2 Bft) NO 45 3,5 C 15,0 C 9,7 km/h (2 Bft) 100,00 %
18.09.2019 17:13 15,0 C 47 % 1021,9 hPa 0,0 l/m 4,8 km/h (1 Bft) NO 45 3,8 C 15,0 C 8,0 km/h (2 Bft) 91,30 %
18.09.2019 17:12 14,9 C 47 % 1021,9 hPa 0,0 l/m 6,4 km/h (2 Bft) NO 45 3,7 C 14,9 C 9,7 km/h (2 Bft) 95,65 %
18.09.2019 17:11 14,9 C 46 % 1021,8 hPa 0,0 l/m 9,7 km/h (2 Bft) NO 45 3,4 C 13,1 C 12,9 km/h (3 Bft) 100,00 %
18.09.2019 17:10 15,0 C 46 % 1022,0 hPa 0,0 l/m 9,7 km/h (2 Bft) NO 45 3,5 C 13,3 C 14,5 km/h (3 Bft) 95,65 %
18.09.2019 17:09 15,1 C 47 % 1021,9 hPa 0,0 l/m 8,0 km/h (2 Bft) NO 45 3,9 C 14,2 C 11,3 km/h (2 Bft) 100,00 %
18.09.2019 17:08 15,0 C 47 % 1022,0 hPa 0,0 l/m 6,4 km/h (2 Bft) NO 45 3,8 C 15,0 C 12,9 km/h (3 Bft) 95,65 %
18.09.2019 17:07 15,0 C 47 % 1022,0 hPa 0,0 l/m 4,8 km/h (1 Bft) N-NO 22 3,8 C 15,0 C 9,7 km/h (2 Bft) 95,65 %
18.09.2019 17:06 15,0 C 47 % 1022,0 hPa 0,0 l/m 8,0 km/h (2 Bft) NO 45 3,8 C 14,1 C 11,3 km/h (2 Bft) 100,00 %
18.09.2019 17:05 15,1 C 46 % 1022,0 hPa 0,0 l/m 8,0 km/h (2 Bft) N-NO 22 3,6 C 14,2 C 11,3 km/h (2 Bft) 95,65 %
18.09.2019 17:04 15,1 C 46 % 1021,9 hPa 0,0 l/m 8,0 km/h (2 Bft) NO 45 3,6 C 14,2 C 11,3 km/h (2 Bft) 100,00 %
18.09.2019 17:03 15,2 C 46 % 1021,9 hPa 0,0 l/m 9,7 km/h (2 Bft) NO 45 3,7 C 13,5 C 14,5 km/h (3 Bft) 91,30 %
18.09.2019 17:02 15,3 C 45 % 1021,9 hPa 0,0 l/m 8,0 km/h (2 Bft) NO 45 3,4 C 14,4 C 16,1 km/h (3 Bft) 95,65 %
18.09.2019 17:01 15,3 C 46 % 1021,9 hPa 0,0 l/m 4,8 km/h (1 Bft) NO 45 3,8 C 15,3 C 9,7 km/h (2 Bft) 95,65 %
18.09.2019 17:00 15,2 C 46 % 1021,9 hPa 0,0 l/m 4,8 km/h (1 Bft) NO 45 3,7 C 15,2 C 8,0 km/h (2 Bft) 100,00 %
18.09.2019 16:59 15,2 C 47 % 1021,9 hPa 0,0 l/m 6,4 km/h (2 Bft) NO 45 4,0 C 15,2 C 9,7 km/h (2 Bft) 100,00 %
18.09.2019 16:58 15,2 C 48 % 1021,9 hPa 0,0 l/m 4,8 km/h (1 Bft) N-NO 22 4,3 C 15,2 C 9,7 km/h (2 Bft) 95,65 %
18.09.2019 16:57 15,2 C 47 % 1021,9 hPa 0,0 l/m 6,4 km/h (2 Bft) N-NO 22 4,0 C 15,2 C 8,0 km/h (2 Bft) 100,00 %
18.09.2019 16:56 15,2 C 47 % 1022,0 hPa 0,0 l/m 4,8 km/h (1 Bft) NO 45 4,0 C 15,2 C 6,4 km/h (2 Bft) 95,65 %
18.09.2019 16:55 15,2 C 47 % 1022,0 hPa 0,0 l/m 6,4 km/h (2 Bft) NO 45 4,0 C 15,2 C 9,7 km/h (2 Bft) 100,00 %
18.09.2019 16:54 15,2 C 47 % 1021,9 hPa 0,0 l/m 8,0 km/h (2 Bft) NO 45 4,0 C 14,3 C 16,1 km/h (3 Bft) 100,00 %
18.09.2019 16:53 15,3 C 47 % 1021,9 hPa 0,0 l/m 8,0 km/h (2 Bft) N-NO 22 4,1 C 14,4 C 14,5 km/h (3 Bft) 95,65 %
18.09.2019 16:52 15,3 C 47 % 1021,9 hPa 0,0 l/m 4,8 km/h (1 Bft) N-NO 22 4,1 C 15,3 C 9,7 km/h (2 Bft) 100,00 %
18.09.2019 16:51 15,3 C 47 % 1021,9 hPa 0,0 l/m 8,0 km/h (2 Bft) N-NO 22 4,1 C 14,4 C 11,3 km/h (2 Bft) 91,30 %
18.09.2019 16:50 15,3 C 47 % 1021,9 hPa 0,0 l/m 6,4 km/h (2 Bft) N-NO 22 4,1 C 15,3 C 6,4 km/h (2 Bft) 100,00 %
18.09.2019 16:49 15,3 C 46 % 1021,9 hPa 0,0 l/m 8,0 km/h (2 Bft) N-NO 22 3,8 C 14,4 C 14,5 km/h (3 Bft) 95,65 %
18.09.2019 16:48 15,4 C 46 % 1022,0 hPa 0,0 l/m 11,3 km/h (2 Bft) NO 45 3,8 C 13,0 C 12,9 km/h (3 Bft) 91,30 %
18.09.2019 16:47 15,5 C 47 % 1022,0 hPa 0,0 l/m 9,7 km/h (2 Bft) NO 45 4,2 C 13,8 C 12,9 km/h (3 Bft) 95,65 %
18.09.2019 16:46 15,5 C 46 % 1021,9 hPa 0,0 l/m 6,4 km/h (2 Bft) N-NO 22 3,9 C 15,5 C 11,3 km/h (2 Bft) 95,65 %
18.09.2019 16:45 15,6 C 46 % 1022,0 hPa 0,0 l/m 6,4 km/h (2 Bft) NO 45 4,0 C 15,6 C 8,0 km/h (2 Bft) 100,00 %
18.09.2019 16:44 15,6 C 46 % 1021,9 hPa 0,0 l/m 8,0 km/h (2 Bft) N-NO 22 4,0 C 14,7 C 11,3 km/h (2 Bft) 91,30 %
18.09.2019 16:43 15,6 C 46 % 1021,9 hPa 0,0 l/m 4,8 km/h (1 Bft) N-NO 22 4,0 C 15,6 C 8,0 km/h (2 Bft) 91,30 %
18.09.2019 16:42 15,5 C 47 % 1022,0 hPa 0,0 l/m 4,8 km/h (1 Bft) NO 45 4,2 C 15,5 C 8,0 km/h (2 Bft) 95,65 %
18.09.2019 16:41 15,6 C 46 % 1022,0 hPa 0,0 l/m 6,4 km/h (2 Bft) NO 45 4,0 C 15,6 C 11,3 km/h (2 Bft) 91,30 %
18.09.2019 16:40 15,6 C 46 % 1022,0 hPa 0,0 l/m 3,2 km/h (1 Bft) N-NO 22 4,0 C 15,6 C 6,4 km/h (2 Bft) 100,00 %
18.09.2019 16:39 15,5 C 47 % 1022,0 hPa 0,0 l/m 6,4 km/h (2 Bft) N-NO 22 4,2 C 15,5 C 12,9 km/h (3 Bft) 95,65 %
18.09.2019 16:38 15,6 C 46 % 1022,0 hPa 0,0 l/m 6,4 km/h (2 Bft) N-NO 22 4,0 C 15,6 C 12,9 km/h (3 Bft) 100,00 %
18.09.2019 16:37 15,5 C 47 % 1022,0 hPa 0,0 l/m 6,4 km/h (2 Bft) N-NO 22 4,2 C 15,5 C 9,7 km/h (2 Bft) 95,65 %
18.09.2019 16:36 15,5 C 46 % 1021,9 hPa 0,0 l/m 6,4 km/h (2 Bft) NO 45 3,9 C 15,5 C 9,7 km/h (2 Bft) 91,30 %
18.09.2019 16:35 15,6 C 46 % 1022,0 hPa 0,0 l/m 8,0 km/h (2 Bft) N-NO 22 4,0 C 14,7 C 16,1 km/h (3 Bft) 95,65 %
18.09.2019 16:34 15,6 C 46 % 1021,9 hPa 0,0 l/m 6,4 km/h (2 Bft) NO 45 4,0 C 15,6 C 11,3 km/h (2 Bft) 95,65 %
18.09.2019 16:33 15,6 C 46 % 1022,0 hPa 0,0 l/m 8,0 km/h (2 Bft) N-NO 22 4,0 C 14,7 C 12,9 km/h (3 Bft) 95,65 %
18.09.2019 16:32 15,7 C 46 % 1022,0 hPa 0,0 l/m 8,0 km/h (2 Bft) N-NO 22 4,1 C 14,8 C 11,3 km/h (2 Bft) 91,30 %
18.09.2019 16:31 15,7 C 46 % 1022,0 hPa 0,0 l/m 4,8 km/h (1 Bft) N-NO 22 4,1 C 15,7 C 9,7 km/h (2 Bft) 95,65 %
18.09.2019 16:30 15,7 C 47 % 1021,9 hPa 0,0 l/m 9,7 km/h (2 Bft) N-NO 22 4,4 C 14,0 C 17,7 km/h (3 Bft) 100,00 %
18.09.2019 16:29 15,7 C 46 % 1022,0 hPa 0,0 l/m 6,4 km/h (2 Bft) NO 45 4,1 C 15,7 C 11,3 km/h (2 Bft) 91,30 %
18.09.2019 16:28 15,6 C 46 % 1022,1 hPa 0,0 l/m 3,2 km/h (1 Bft) NO 45 4,0 C 15,6 C 9,7 km/h (2 Bft) 100,00 %
18.09.2019 16:27 15,6 C 46 % 1022,0 hPa 0,0 l/m 8,0 km/h (2 Bft) N-NO 22 4,0 C 14,7 C 11,3 km/h (2 Bft) 95,65 %
18.09.2019 16:26 15,6 C 46 % 1022,0 hPa 0,0 l/m 8,0 km/h (2 Bft) NO 45 4,0 C 14,7 C 12,9 km/h (3 Bft) 100,00 %
18.09.2019 16:25 15,6 C 47 % 1022,0 hPa 0,0 l/m 9,7 km/h (2 Bft) NO 45 4,3 C 13,9 C 12,9 km/h (3 Bft) 95,65 %
18.09.2019 16:24 15,7 C 46 % 1021,9 hPa 0,0 l/m 8,0 km/h (2 Bft) NO 45 4,1 C 14,8 C 14,5 km/h (3 Bft) 91,30 %
18.09.2019 16:23 15,7 C 46 % 1022,0 hPa 0,0 l/m 8,0 km/h (2 Bft) NO 45 4,1 C 14,8 C 11,3 km/h (2 Bft) 100,00 %
18.09.2019 16:22 15,8 C 46 % 1022,0 hPa 0,0 l/m 9,7 km/h (2 Bft) NO 45 4,2 C 14,1 C 11,3 km/h (2 Bft) 100,00 %
18.09.2019 16:21 15,8 C 46 % 1022,1 hPa 0,0 l/m 4,8 km/h (1 Bft) NO 45 4,2 C 15,8 C 8,0 km/h (2 Bft) 100,00 %
18.09.2019 16:20 15,8 C 47 % 1022,1 hPa 0,0 l/m 6,4 km/h (2 Bft) NO 45 4,5 C 15,8 C 9,7 km/h (2 Bft) 95,65 %
18.09.2019 16:19 15,9 C 46 % 1022,0 hPa 0,0 l/m 6,4 km/h (2 Bft) NO 45 4,3 C 15,9 C 9,7 km/h (2 Bft) 91,30 %
18.09.2019 16:18 15,9 C 45 % 1022,0 hPa 0,0 l/m 4,8 km/h (1 Bft) NO 45 4,0 C 15,9 C 8,0 km/h (2 Bft) 95,65 %
18.09.2019 16:17 15,9 C 45 % 1022,0 hPa 0,0 l/m 4,8 km/h (1 Bft) N-NO 22 4,0 C 15,9 C 8,0 km/h (2 Bft) 95,65 %
18.09.2019 16:16 15,9 C 45 % 1022,0 hPa 0,0 l/m 8,0 km/h (2 Bft) N-NO 22 4,0 C 15,0 C 11,3 km/h (2 Bft) 95,65 %
18.09.2019 16:15 15,9 C 46 % 1022,0 hPa 0,0 l/m 3,2 km/h (1 Bft) N-NO 22 4,3 C 15,9 C 4,8 km/h (1 Bft) 91,30 %
18.09.2019 16:14 15,8 C 45 % 1022,0 hPa 0,0 l/m 3,2 km/h (1 Bft) NO 45 3,9 C 15,8 C 6,4 km/h (2 Bft) 100,00 %
18.09.2019 16:13 15,8 C 46 % 1022,0 hPa 0,0 l/m 6,4 km/h (2 Bft) N-NO 22 4,2 C 15,8 C 8,0 km/h (2 Bft) 95,65 %
18.09.2019 16:12 15,7 C 46 % 1022,0 hPa 0,0 l/m 0,0 km/h (0 Bft) NO 45 4,1 C 15,7 C 4,8 km/h (1 Bft) 91,30 %
18.09.2019 16:11 15,7 C 45 % 1022,0 hPa 0,0 l/m 3,2 km/h (1 Bft) N-NO 22 3,8 C 15,7 C 8,0 km/h (2 Bft) 91,30 %
18.09.2019 16:10 15,7 C 45 % 1022,0 hPa 0,0 l/m 6,4 km/h (2 Bft) NO 45 3,8 C 15,7 C 8,0 km/h (2 Bft) 95,65 %
18.09.2019 16:09 15,7 C 45 % 1022,1 hPa 0,0 l/m 6,4 km/h (2 Bft) N-NO 22 3,8 C 15,7 C 9,7 km/h (2 Bft) 100,00 %
18.09.2019 16:08 15,8 C 45 % 1022,1 hPa 0,0 l/m 8,0 km/h (2 Bft) N-NO 22 3,9 C 14,9 C 11,3 km/h (2 Bft) 100,00 %
18.09.2019 16:07 15,8 C 45 % 1022,1 hPa 0,0 l/m 4,8 km/h (1 Bft) N-NO 22 3,9 C 15,8 C 9,7 km/h (2 Bft) 95,65 %
18.09.2019 16:06 15,8 C 45 % 1022,0 hPa 0,0 l/m 4,8 km/h (1 Bft) NO 45 3,9 C 15,8 C 9,7 km/h (2 Bft) 100,00 %
18.09.2019 16:05 15,8 C 44 % 1022,1 hPa 0,0 l/m 4,8 km/h (1 Bft) N-NO 22 3,6 C 15,8 C 8,0 km/h (2 Bft) 91,30 %
18.09.2019 16:04 15,8 C 44 % 1022,0 hPa 0,0 l/m 6,4 km/h (2 Bft) N-NO 22 3,6 C 15,8 C 9,7 km/h (2 Bft) 100,00 %
18.09.2019 16:03 15,9 C 43 % 1022,1 hPa 0,0 l/m 4,8 km/h (1 Bft) NO 45 3,3 C 15,9 C 6,4 km/h (2 Bft) 91,30 %
18.09.2019 16:02 15,9 C 42 % 1022,0 hPa 0,0 l/m 6,4 km/h (2 Bft) N-NO 22 3,0 C 15,9 C 11,3 km/h (2 Bft) 91,30 %
18.09.2019 16:01 15,9 C 42 % 1022,1 hPa 0,0 l/m 8,0 km/h (2 Bft) NO 45 3,0 C 15,0 C 11,3 km/h (2 Bft) 100,00 %
18.09.2019 16:00 16,1 C 42 % 1022,0 hPa 0,0 l/m 8,0 km/h (2 Bft) O-NO 67 3,2 C 15,3 C 12,9 km/h (3 Bft) 91,30 %
18.09.2019 15:59 16,1 C 42 % 1022,0 hPa 0,0 l/m 3,2 km/h (1 Bft) NO 45 3,2 C 16,1 C 12,9 km/h (3 Bft) 100,00 %
18.09.2019 15:58 16,0 C 42 % 1022,0 hPa 0,0 l/m 3,2 km/h (1 Bft) NW 315 3,1 C 16,0 C 6,4 km/h (2 Bft) 95,65 %
18.09.2019 15:57 15,9 C 42 % 1022,0 hPa 0,0 l/m 4,8 km/h (1 Bft) N-NO 22 3,0 C 15,9 C 8,0 km/h (2 Bft) 100,00 %
18.09.2019 15:56 15,9 C 43 % 1022,1 hPa 0,0 l/m 6,4 km/h (2 Bft) NO 45 3,3 C 15,9 C 11,3 km/h (2 Bft) 91,30 %
18.09.2019 15:55 15,9 C 41 % 1022,1 hPa 0,0 l/m 6,4 km/h (2 Bft) NO 45 2,7 C 15,9 C 12,9 km/h (3 Bft) 95,65 %
18.09.2019 15:54 16,0 C 41 % 1022,0 hPa 0,0 l/m 4,8 km/h (1 Bft) N-NO 22 2,8 C 16,0 C 6,4 km/h (2 Bft) 95,65 %
18.09.2019 15:53 16,0 C 42 % 1022,0 hPa 0,0 l/m 6,4 km/h (2 Bft) NO 45 3,1 C 16,0 C 9,7 km/h (2 Bft) 95,65 %
18.09.2019 15:52 16,1 C 40 % 1022,0 hPa 0,0 l/m 8,0 km/h (2 Bft) N-NO 22 2,5 C 15,3 C 12,9 km/h (3 Bft) 100,00 %
18.09.2019 15:51 16,1 C 41 % 1022,1 hPa 0,0 l/m 4,8 km/h (1 Bft) NO 45 2,8 C 16,1 C 11,3 km/h (2 Bft) 95,65 %
18.09.2019 15:50 16,2 C 40 % 1022,0 hPa 0,0 l/m 9,7 km/h (2 Bft) N-NO 22 2,6 C 14,6 C 12,9 km/h (3 Bft) 95,65 %
18.09.2019 15:49 16,2 C 43 % 1022,1 hPa 0,0 l/m 4,8 km/h (1 Bft) NO 45 3,6 C 16,2 C 9,7 km/h (2 Bft) 95,65 %
18.09.2019 15:48 16,2 C 44 % 1022,0 hPa 0,0 l/m 1,6 km/h (1 Bft) N-NO 22 3,9 C 16,2 C 4,8 km/h (1 Bft) 100,00 %
18.09.2019 15:47 16,1 C 44 % 1022,1 hPa 0,0 l/m 1,6 km/h (1 Bft) N 360 3,8 C 16,1 C 3,2 km/h (1 Bft) 100,00 %
18.09.2019 15:46 16,0 C 44 % 1022,1 hPa 0,0 l/m 4,8 km/h (1 Bft) N-NO 22 3,8 C 16,0 C 9,7 km/h (2 Bft) 95,65 %
18.09.2019 15:45 16,0 C 43 % 1022,1 hPa 0,0 l/m 4,8 km/h (1 Bft) N-NO 22 3,4 C 16,0 C 6,4 km/h (2 Bft) 100,00 %
18.09.2019 15:44 16,1 C 44 % 1022,0 hPa 0,0 l/m 6,4 km/h (2 Bft) NO 45 3,8 C 16,1 C 11,3 km/h (2 Bft) 95,65 %
18.09.2019 15:43 16,2 C 43 % 1022,1 hPa 0,0 l/m 8,0 km/h (2 Bft) N-NO 22 3,6 C 15,4 C 12,9 km/h (3 Bft) 95,65 %
18.09.2019 15:42 16,3 C 42 % 1022,1 hPa 0,0 l/m 6,4 km/h (2 Bft) NO 45 3,4 C 16,3 C 12,9 km/h (3 Bft) 100,00 %
18.09.2019 15:41 16,2 C 40 % 1022,1 hPa 0,0 l/m 3,2 km/h (1 Bft) W-NW 292 2,6 C 16,2 C 8,0 km/h (2 Bft) 95,65 %
18.09.2019 15:40 16,1 C 42 % 1022,2 hPa 0,0 l/m 3,2 km/h (1 Bft) N-NW 337 3,2 C 16,1 C 8,0 km/h (2 Bft) 95,65 %
18.09.2019 15:39 16,1 C 41 % 1022,1 hPa 0,0 l/m 3,2 km/h (1 Bft) N-NO 22 2,8 C 16,1 C 6,4 km/h (2 Bft) 95,65 %
18.09.2019 15:38 16,0 C 40 % 1022,1 hPa 0,0 l/m 4,8 km/h (1 Bft) N-NO 22 2,4 C 16,0 C 4,8 km/h (1 Bft) 95,65 %
18.09.2019 15:37 16,0 C 41 % 1022,1 hPa 0,0 l/m 6,4 km/h (2 Bft) NO 45 2,8 C 16,0 C 9,7 km/h (2 Bft) 95,65 %
18.09.2019 15:36 16,0 C 40 % 1022,2 hPa 0,0 l/m 4,8 km/h (1 Bft) NO 45 2,4 C 16,0 C 6,4 km/h (2 Bft) 91,30 %
18.09.2019 15:35 16,0 C 39 % 1022,2 hPa 0,0 l/m 8,0 km/h (2 Bft) N-NO 22 2,1 C 15,2 C 11,3 km/h (2 Bft) 95,65 %
18.09.2019 15:34 16,1 C 39 % 1022,2 hPa 0,0 l/m 4,8 km/h (1 Bft) NO 45 2,1 C 16,1 C 8,0 km/h (2 Bft) 91,30 %
18.09.2019 15:33 16,1 C 39 % 1022,2 hPa 0,0 l/m 4,8 km/h (1 Bft) N-NW 337 2,1 C 16,1 C 8,0 km/h (2 Bft) 100,00 %
18.09.2019 15:32 16,1 C 40 % 1022,2 hPa 0,0 l/m 1,6 km/h (1 Bft) NO 45 2,5 C 16,1 C 6,4 km/h (2 Bft) 91,30 %
18.09.2019 15:31 16,0 C 42 % 1022,2 hPa 0,0 l/m 3,2 km/h (1 Bft) N-NW 337 3,1 C 16,0 C 6,4 km/h (2 Bft) 95,65 %
18.09.2019 15:30 16,0 C 40 % 1022,3 hPa 0,0 l/m 4,8 km/h (1 Bft) N-NO 22 2,4 C 16,0 C 6,4 km/h (2 Bft) 100,00 %
18.09.2019 15:29 16,0 C 40 % 1022,2 hPa 0,0 l/m 8,0 km/h (2 Bft) N 360 2,4 C 15,2 C 12,9 km/h (3 Bft) 91,30 %
18.09.2019 15:28 16,0 C 40 % 1022,1 hPa 0,0 l/m 8,0 km/h (2 Bft) NO 45 2,4 C 15,2 C 11,3 km/h (2 Bft) 95,65 %
18.09.2019 15:27 16,0 C 40 % 1022,1 hPa 0,0 l/m 3,2 km/h (1 Bft) N 360 2,4 C 16,0 C 4,8 km/h (1 Bft) 91,30 %
18.09.2019 15:26 15,9 C 40 % 1022,2 hPa 0,0 l/m 1,6 km/h (1 Bft) O-NO 67 2,3 C 15,9 C 6,4 km/h (2 Bft) 91,30 %
18.09.2019 15:25 15,9 C 40 % 1022,2 hPa 0,0 l/m 3,2 km/h (1 Bft) N-NO 22 2,3 C 15,9 C 6,4 km/h (2 Bft) 100,00 %
18.09.2019 15:24 15,9 C 42 % 1022,2 hPa 0,0 l/m 4,8 km/h (1 Bft) NW 315 3,0 C 15,9 C 9,7 km/h (2 Bft) 95,65 %
18.09.2019 15:23 15,8 C 40 % 1022,2 hPa 0,0 l/m 3,2 km/h (1 Bft) W-NW 292 2,2 C 15,8 C 6,4 km/h (2 Bft) 95,65 %
18.09.2019 15:22 15,8 C 41 % 1022,2 hPa 0,0 l/m 3,2 km/h (1 Bft) NW 315 2,6 C 15,8 C 8,0 km/h (2 Bft) 95,65 %
18.09.2019 15:21 15,8 C 41 % 1022,2 hPa 0,0 l/m 3,2 km/h (1 Bft) NW 315 2,6 C 15,8 C 6,4 km/h (2 Bft) 100,00 %
18.09.2019 15:20 15,7 C 42 % 1022,2 hPa 0,0 l/m 1,6 km/h (1 Bft) NO 45 2,8 C 15,7 C 3,2 km/h (1 Bft) 95,65 %
18.09.2019 15:19 15,7 C 43 % 1022,2 hPa 0,0 l/m 6,4 km/h (2 Bft) N-NW 337 3,2 C 15,7 C 9,7 km/h (2 Bft) 95,65 %
18.09.2019 15:18 15,7 C 43 % 1022,3 hPa 0,0 l/m 3,2 km/h (1 Bft) NO 45 3,2 C 15,7 C 6,4 km/h (2 Bft) 100,00 %
18.09.2019 15:17 15,7 C 44 % 1022,3 hPa 0,0 l/m 9,7 km/h (2 Bft) NO 45 3,5 C 14,0 C 14,5 km/h (3 Bft) 91,30 %
18.09.2019 15:16 15,7 C 42 % 1022,3 hPa 0,0 l/m 9,7 km/h (2 Bft) NO 45 2,8 C 14,0 C 16,1 km/h (3 Bft) 100,00 %
18.09.2019 15:15 15,9 C 43 % 1022,2 hPa 0,0 l/m 9,7 km/h (2 Bft) NO 45 3,3 C 14,2 C 14,5 km/h (3 Bft) 100,00 %
18.09.2019 15:14 15,9 C 43 % 1022,3 hPa 0,0 l/m 6,4 km/h (2 Bft) NO 45 3,3 C 15,9 C 9,7 km/h (2 Bft) 91,30 %
18.09.2019 15:13 15,9 C 42 % 1022,2 hPa 0,0 l/m 4,8 km/h (1 Bft) NO 45 3,0 C 15,9 C 9,7 km/h (2 Bft) 100,00 %
18.09.2019 15:12 16,0 C 42 % 1022,2 hPa 0,0 l/m 8,0 km/h (2 Bft) N-NO 22 3,1 C 15,2 C 12,9 km/h (3 Bft) 91,30 %
18.09.2019 15:11 16,1 C 41 % 1022,2 hPa 0,0 l/m 9,7 km/h (2 Bft) NO 45 2,8 C 14,5 C 14,5 km/h (3 Bft) 95,65 %
18.09.2019 15:10 16,2 C 42 % 1022,3 hPa 0,0 l/m 6,4 km/h (2 Bft) NO 45 3,3 C 16,2 C 9,7 km/h (2 Bft) 95,65 %
18.09.2019 15:09 16,1 C 43 % 1022,3 hPa 0,0 l/m 1,6 km/h (1 Bft) O-NO 67 3,5 C 16,1 C 1,6 km/h (1 Bft) 95,65 %
18.09.2019 15:08 16,1 C 42 % 1022,2 hPa 0,0 l/m 1,6 km/h (1 Bft) NO 45 3,2 C 16,1 C 4,8 km/h (1 Bft) 100,00 %
18.09.2019 15:07 16,0 C 42 % 1022,2 hPa 0,0 l/m 1,6 km/h (1 Bft) NW 315 3,1 C 16,0 C 6,4 km/h (2 Bft) 91,30 %
18.09.2019 15:06 16,0 C 43 % 1022,4 hPa 0,0 l/m 6,4 km/h (2 Bft) N-NW 337 3,4 C 16,0 C 9,7 km/h (2 Bft) 100,00 %
18.09.2019 15:05 15,9 C 44 % 1022,3 hPa 0,0 l/m 3,2 km/h (1 Bft) N-NO 22 3,7 C 15,9 C 4,8 km/h (1 Bft) 95,65 %
18.09.2019 15:04 15,7 C 45 % 1022,2 hPa 0,0 l/m 1,6 km/h (1 Bft) N 360 3,8 C 15,7 C 3,2 km/h (1 Bft) 95,65 %
18.09.2019 15:03 15,6 C 44 % 1022,3 hPa 0,0 l/m 1,6 km/h (1 Bft) NO 45 3,4 C 15,6 C 3,2 km/h (1 Bft) 95,65 %
18.09.2019 15:02 15,6 C 43 % 1022,4 hPa 0,0 l/m 3,2 km/h (1 Bft) NO 45 3,1 C 15,6 C 6,4 km/h (2 Bft) 95,65 %
18.09.2019 15:01 15,6 C 41 % 1022,4 hPa 0,0 l/m 1,6 km/h (1 Bft) N-NO 22 2,4 C 15,6 C 4,8 km/h (1 Bft) 100,00 %
18.09.2019 15:00 15,6 C 41 % 1022,3 hPa 0,0 l/m 4,8 km/h (1 Bft) N-NO 22 2,4 C 15,6 C 8,0 km/h (2 Bft) 95,65 %
18.09.2019 14:59 15,7 C 43 % 1022,4 hPa 0,0 l/m 3,2 km/h (1 Bft) NW 315 3,2 C 15,7 C 6,4 km/h (2 Bft) 100,00 %
18.09.2019 14:58 15,8 C 41 % 1022,4 hPa 0,0 l/m 9,7 km/h (2 Bft) NW 315 2,6 C 14,1 C 11,3 km/h (2 Bft) 95,65 %
18.09.2019 14:57 15,9 C 43 % 1022,4 hPa 0,0 l/m 6,4 km/h (2 Bft) NW 315 3,3 C 15,9 C 11,3 km/h (2 Bft) 95,65 %
18.09.2019 14:56 15,9 C 43 % 1022,4 hPa 0,0 l/m 4,8 km/h (1 Bft) NW 315 3,3 C 15,9 C 6,4 km/h (2 Bft) 100,00 %
18.09.2019 14:55 15,9 C 45 % 1022,4 hPa 0,0 l/m 4,8 km/h (1 Bft) NW 315 4,0 C 15,9 C 8,0 km/h (2 Bft) 91,30 %
18.09.2019 14:54 15,9 C 45 % 1022,5 hPa 0,0 l/m 4,8 km/h (1 Bft) NW 315 4,0 C 15,9 C 8,0 km/h (2 Bft) 95,65 %
18.09.2019 14:53 15,8 C 45 % 1022,4 hPa 0,0 l/m 3,2 km/h (1 Bft) NO 45 3,9 C 15,8 C 8,0 km/h (2 Bft) 95,65 %
18.09.2019 14:52 15,7 C 46 % 1022,4 hPa 0,0 l/m 6,4 km/h (2 Bft) NW 315 4,1 C 15,7 C 12,9 km/h (3 Bft) 100,00 %
18.09.2019 14:51 15,6 C 46 % 1022,3 hPa 0,0 l/m 6,4 km/h (2 Bft) NO 45 4,0 C 15,6 C 11,3 km/h (2 Bft) 91,30 %
18.09.2019 14:50 15,6 C 42 % 1022,4 hPa 0,0 l/m 6,4 km/h (2 Bft) W-NW 292 2,7 C 15,6 C 11,3 km/h (2 Bft) 91,30 %
18.09.2019 14:49 15,7 C 45 % 1022,4 hPa 0,0 l/m 8,0 km/h (2 Bft) NW 315 3,8 C 14,8 C 12,9 km/h (3 Bft) 95,65 %
18.09.2019 14:48 15,8 C 45 % 1022,4 hPa 0,0 l/m 6,4 km/h (2 Bft) NW 315 3,9 C 15,8 C 11,3 km/h (2 Bft) 95,65 %
18.09.2019 14:47 15,8 C 47 % 1022,4 hPa 0,0 l/m 1,6 km/h (1 Bft) W-NW 292 4,5 C 15,8 C 3,2 km/h (1 Bft) 100,00 %
18.09.2019 14:46 15,7 C 47 % 1022,4 hPa 0,0 l/m 3,2 km/h (1 Bft) NW 315 4,4 C 15,7 C 6,4 km/h (2 Bft) 95,65 %
18.09.2019 14:45 15,7 C 47 % 1022,4 hPa 0,0 l/m 6,4 km/h (2 Bft) NW 315 4,4 C 15,7 C 9,7 km/h (2 Bft) 95,65 %
18.09.2019 14:44 15,7 C 46 % 1022,3 hPa 0,0 l/m 6,4 km/h (2 Bft) NW 315 4,1 C 15,7 C 16,1 km/h (3 Bft) 95,65 %
18.09.2019 14:43 15,9 C 47 % 1022,4 hPa 0,0 l/m 8,0 km/h (2 Bft) NW 315 4,6 C 15,0 C 11,3 km/h (2 Bft) 95,65 %
18.09.2019 14:42 15,8 C 47 % 1022,4 hPa 0,0 l/m 1,6 km/h (1 Bft) W 270 4,5 C 15,8 C 4,8 km/h (1 Bft) 100,00 %
18.09.2019 14:41 15,7 C 47 % 1022,4 hPa 0,0 l/m 1,6 km/h (1 Bft) N 360 4,4 C 15,7 C 3,2 km/h (1 Bft) 95,65 %
18.09.2019 14:40 15,7 C 47 % 1022,4 hPa 0,0 l/m 3,2 km/h (1 Bft) N 360 4,4 C 15,7 C 4,8 km/h (1 Bft) 95,65 %
18.09.2019 14:39 15,7 C 46 % 1022,5 hPa 0,0 l/m 8,0 km/h (2 Bft) N-NW 337 4,1 C 14,8 C 12,9 km/h (3 Bft) 95,65 %
18.09.2019 14:38 15,8 C 46 % 1022,4 hPa 0,0 l/m 6,4 km/h (2 Bft) NW 315 4,2 C 15,8 C 11,3 km/h (2 Bft) 91,30 %
18.09.2019 14:37 15,8 C 46 % 1022,4 hPa 0,0 l/m 6,4 km/h (2 Bft) NO 45 4,2 C 15,8 C 8,0 km/h (2 Bft) 100,00 %
18.09.2019 14:36 15,8 C 47 % 1022,5 hPa 0,0 l/m 6,4 km/h (2 Bft) NO 45 4,5 C 15,8 C 11,3 km/h (2 Bft) 91,30 %
18.09.2019 14:35 15,8 C 47 % 1022,4 hPa 0,0 l/m 4,8 km/h (1 Bft) N-NO 22 4,5 C 15,8 C 8,0 km/h (2 Bft) 100,00 %
18.09.2019 14:34 15,7 C 49 % 1022,4 hPa 0,0 l/m 1,6 km/h (1 Bft) O-NO 67 5,0 C 15,7 C 1,6 km/h (1 Bft) 95,65 %
18.09.2019 14:33 15,7 C 47 % 1022,6 hPa 0,0 l/m 1,6 km/h (1 Bft) N-NW 337 4,4 C 15,7 C 3,2 km/h (1 Bft) 95,65 %
18.09.2019 14:32 15,7 C 48 % 1022,6 hPa 0,0 l/m 3,2 km/h (1 Bft) N-NW 337 4,7 C 15,7 C 8,0 km/h (2 Bft) 100,00 %
18.09.2019 14:31 15,6 C 49 % 1022,5 hPa 0,0 l/m 1,6 km/h (1 Bft) NW 315 4,9 C 15,6 C 9,7 km/h (2 Bft) 95,65 %
18.09.2019 14:30 15,6 C 47 % 1022,5 hPa 0,0 l/m 1,6 km/h (1 Bft) W-NW 292 4,3 C 15,6 C 3,2 km/h (1 Bft) 95,65 %
18.09.2019 14:29 15,5 C 47 % 1022,5 hPa 0,0 l/m 1,6 km/h (1 Bft) N-NW 337 4,2 C 15,5 C 4,8 km/h (1 Bft) 100,00 %
18.09.2019 14:28 15,5 C 47 % 1022,6 hPa 0,0 l/m 4,8 km/h (1 Bft) N-NW 337 4,2 C 15,5 C 8,0 km/h (2 Bft) 95,65 %
18.09.2019 14:27 15,5 C 47 % 1022,6 hPa 0,0 l/m 6,4 km/h (2 Bft) N-NO 22 4,2 C 15,5 C 9,7 km/h (2 Bft) 100,00 %
18.09.2019 14:26 15,6 C 46 % 1022,6 hPa 0,0 l/m 6,4 km/h (2 Bft) NO 45 4,0 C 15,6 C 11,3 km/h (2 Bft) 91,30 %
18.09.2019 14:25 15,5 C 46 % 1022,5 hPa 0,0 l/m 4,8 km/h (1 Bft) N-NW 337 3,9 C 15,5 C 8,0 km/h (2 Bft) 95,65 %
18.09.2019 14:24 15,5 C 46 % 1022,6 hPa 0,0 l/m 8,0 km/h (2 Bft) N-NO 22 3,9 C 14,6 C 12,9 km/h (3 Bft) 95,65 %
18.09.2019 14:23 15,5 C 46 % 1022,6 hPa 0,0 l/m 6,4 km/h (2 Bft) N-NW 337 3,9 C 15,5 C 11,3 km/h (2 Bft) 100,00 %
18.09.2019 14:22 15,5 C 47 % 1022,5 hPa 0,0 l/m 8,0 km/h (2 Bft) N-NO 22 4,2 C 14,6 C 12,9 km/h (3 Bft) 91,30 %
18.09.2019 14:21 15,6 C 49 % 1022,5 hPa 0,0 l/m 8,0 km/h (2 Bft) NO 45 4,9 C 14,7 C 12,9 km/h (3 Bft) 91,30 %
18.09.2019 14:20 15,5 C 50 % 1022,6 hPa 0,0 l/m 1,6 km/h (1 Bft) NO 45 5,1 C 15,5 C 3,2 km/h (1 Bft) 100,00 %
18.09.2019 14:19 15,4 C 48 % 1022,5 hPa 0,0 l/m 3,2 km/h (1 Bft) NO 45 4,4 C 15,4 C 4,8 km/h (1 Bft) 95,65 %
18.09.2019 14:18 15,3 C 47 % 1022,6 hPa 0,0 l/m 1,6 km/h (1 Bft) NW 315 4,1 C 15,3 C 3,2 km/h (1 Bft) 95,65 %
18.09.2019 14:17 15,4 C 47 % 1022,7 hPa 0,0 l/m 6,4 km/h (2 Bft) W-NW 292 4,1 C 15,4 C 8,0 km/h (2 Bft) 100,00 %
18.09.2019 14:16 15,5 C 49 % 1022,6 hPa 0,0 l/m 1,6 km/h (1 Bft) W-NW 292 4,8 C 15,5 C 4,8 km/h (1 Bft) 91,30 %
18.09.2019 14:15 15,4 C 50 % 1022,6 hPa 0,0 l/m 6,4 km/h (2 Bft) NW 315 5,0 C 15,4 C 11,3 km/h (2 Bft) 100,00 %
18.09.2019 14:14 15,4 C 51 % 1022,6 hPa 0,0 l/m 8,0 km/h (2 Bft) N-NO 22 5,3 C 14,5 C 11,3 km/h (2 Bft) 95,65 %
18.09.2019 14:13 15,3 C 52 % 1022,6 hPa 0,0 l/m 3,2 km/h (1 Bft) W-SW 247 5,5 C 15,3 C 6,4 km/h (2 Bft) 95,65 %
18.09.2019 14:12 15,3 C 51 % 1022,6 hPa 0,0 l/m 4,8 km/h (1 Bft) W-NW 292 5,2 C 15,3 C 6,4 km/h (2 Bft) 95,65 %
18.09.2019 14:11 15,3 C 50 % 1022,5 hPa 0,0 l/m 4,8 km/h (1 Bft) W-NW 292 4,9 C 15,3 C 9,7 km/h (2 Bft) 95,65 %
18.09.2019 14:10 15,3 C 50 % 1022,7 hPa 0,0 l/m 4,8 km/h (1 Bft) N 360 4,9 C 15,3 C 8,0 km/h (2 Bft) 100,00 %
18.09.2019 14:09 15,3 C 51 % 1022,7 hPa 0,0 l/m 6,4 km/h (2 Bft) NW 315 5,2 C 15,3 C 8,0 km/h (2 Bft) 95,65 %
18.09.2019 14:08 15,3 C 52 % 1022,6 hPa 0,0 l/m 4,8 km/h (1 Bft) N-NO 22 5,5 C 15,3 C 9,7 km/h (2 Bft) 100,00 %
18.09.2019 14:07 15,3 C 52 % 1022,6 hPa 0,0 l/m 1,6 km/h (1 Bft) NO 45 5,5 C 15,3 C 3,2 km/h (1 Bft) 86,96 %
18.09.2019 14:06 15,3 C 52 % 1022,6 hPa 0,0 l/m 4,8 km/h (1 Bft) NO 45 5,5 C 15,3 C 12,9 km/h (3 Bft) 100,00 %
18.09.2019 14:05 15,4 C 52 % 1022,7 hPa 0,0 l/m 6,4 km/h (2 Bft) NO 45 5,6 C 15,4 C 14,5 km/h (3 Bft) 91,30 %
18.09.2019 14:04 15,4 C 52 % 1022,6 hPa 0,0 l/m 1,6 km/h (1 Bft) NO 45 5,6 C 15,4 C 4,8 km/h (1 Bft) 95,65 %
18.09.2019 14:03 15,4 C 52 % 1022,7 hPa 0,0 l/m 4,8 km/h (1 Bft) N-NW 337 5,6 C 15,4 C 8,0 km/h (2 Bft) 100,00 %
18.09.2019 14:02 15,5 C 52 % 1022,6 hPa 0,0 l/m 6,4 km/h (2 Bft) N-NO 22 5,7 C 15,5 C 11,3 km/h (2 Bft) 91,30 %
18.09.2019 14:01 15,6 C 52 % 1022,6 hPa 0,0 l/m 6,4 km/h (2 Bft) N 360 5,8 C 15,6 C 8,0 km/h (2 Bft) 95,65 %
18.09.2019 14:00 15,6 C 52 % 1022,6 hPa 0,0 l/m 4,8 km/h (1 Bft) NO 45 5,8 C 15,6 C 6,4 km/h (2 Bft) 100,00 %
18.09.2019 13:59 15,6 C 53 % 1022,7 hPa 0,0 l/m 4,8 km/h (1 Bft) NO 45 6,1 C 15,6 C 8,0 km/h (2 Bft) 100,00 %
18.09.2019 13:58 15,6 C 53 % 1022,6 hPa 0,0 l/m 8,0 km/h (2 Bft) N-NO 22 6,1 C 14,7 C 11,3 km/h (2 Bft) 95,65 %
18.09.2019 13:57 15,5 C 52 % 1022,6 hPa 0,0 l/m 4,8 km/h (1 Bft) N-NO 22 5,7 C 15,5 C 8,0 km/h (2 Bft) 95,65 %
18.09.2019 13:56 15,6 C 51 % 1022,6 hPa 0,0 l/m 8,0 km/h (2 Bft) NO 45 5,5 C 14,7 C 12,9 km/h (3 Bft) 95,65 %
18.09.2019 13:55 15,6 C 53 % 1022,7 hPa 0,0 l/m 8,0 km/h (2 Bft) NO 45 6,1 C 14,7 C 11,3 km/h (2 Bft) 95,65 %
18.09.2019 13:54 15,6 C 53 % 1022,6 hPa 0,0 l/m 3,2 km/h (1 Bft) N-NO 22 6,1 C 15,6 C 9,7 km/h (2 Bft) 100,00 %
18.09.2019 13:53 15,5 C 52 % 1022,7 hPa 0,0 l/m 1,6 km/h (1 Bft) O-SO 112 5,7 C 15,5 C 4,8 km/h (1 Bft) 91,30 %
18.09.2019 13:52 15,6 C 52 % 1022,7 hPa 0,0 l/m 1,6 km/h (1 Bft) W-SW 247 5,8 C 15,6 C 3,2 km/h (1 Bft) 95,65 %
18.09.2019 13:51 15,6 C 53 % 1022,7 hPa 0,0 l/m 6,4 km/h (2 Bft) N-NO 22 6,1 C 15,6 C 11,3 km/h (2 Bft) 100,00 %
18.09.2019 13:50 15,6 C 54 % 1022,7 hPa 0,0 l/m 6,4 km/h (2 Bft) NO 45 6,3 C 15,6 C 11,3 km/h (2 Bft) 95,65 %
18.09.2019 13:49 15,6 C 54 % 1022,7 hPa 0,0 l/m 1,6 km/h (1 Bft) N-NO 22 6,3 C 15,6 C 4,8 km/h (1 Bft) 100,00 %
18.09.2019 13:48 15,5 C 54 % 1022,7 hPa 0,0 l/m 4,8 km/h (1 Bft) N 360 6,2 C 15,5 C 9,7 km/h (2 Bft) 91,30 %
18.09.2019 13:47 15,4 C 54 % 1022,7 hPa 0,0 l/m 6,4 km/h (2 Bft) N 360 6,1 C 15,4 C 8,0 km/h (2 Bft) 100,00 %
18.09.2019 13:46 15,3 C 54 % 1022,7 hPa 0,0 l/m 3,2 km/h (1 Bft) W-SW 247 6,0 C 15,3 C 6,4 km/h (2 Bft) 100,00 %
18.09.2019 13:45 15,3 C 54 % 1022,8 hPa 0,0 l/m 3,2 km/h (1 Bft) W-NW 292 6,0 C 15,3 C 4,8 km/h (1 Bft) 95,65 %
18.09.2019 13:44 15,3 C 54 % 1022,8 hPa 0,0 l/m 3,2 km/h (1 Bft) W-SW 247 6,0 C 15,3 C 6,4 km/h (2 Bft) 95,65 %
18.09.2019 13:43 15,4 C 53 % 1022,8 hPa 0,0 l/m 8,0 km/h (2 Bft) N-NW 337 5,9 C 14,5 C 14,5 km/h (3 Bft) 95,65 %
18.09.2019 13:42 15,5 C 53 % 1022,8 hPa 0,0 l/m 8,0 km/h (2 Bft) N 360 6,0 C 14,6 C 11,3 km/h (2 Bft) 95,65 %
18.09.2019 13:41 15,6 C 53 % 1022,8 hPa 0,0 l/m 4,8 km/h (1 Bft) N-NW 337 6,1 C 15,6 C 9,7 km/h (2 Bft) 95,65 %
18.09.2019 13:40 15,5 C 54 % 1022,8 hPa 0,0 l/m 3,2 km/h (1 Bft) N 360 6,2 C 15,5 C 4,8 km/h (1 Bft) 95,65 %
18.09.2019 13:39 15,4 C 55 % 1022,8 hPa 0,0 l/m 4,8 km/h (1 Bft) NO 45 6,4 C 15,4 C 11,3 km/h (2 Bft) 100,00 %
18.09.2019 13:38 15,3 C 53 % 1022,8 hPa 0,0 l/m 3,2 km/h (1 Bft) N-NW 337 5,8 C 15,3 C 9,7 km/h (2 Bft) 91,30 %
18.09.2019 13:37 15,1 C 53 % 1022,8 hPa 0,0 l/m 1,6 km/h (1 Bft) N 360 5,6 C 15,1 C 3,2 km/h (1 Bft) 100,00 %
18.09.2019 13:36 15,1 C 54 % 1022,8 hPa 0,0 l/m 3,2 km/h (1 Bft) N-NO 22 5,9 C 15,1 C 6,4 km/h (2 Bft) 95,65 %
18.09.2019 13:35 15,1 C 54 % 1022,7 hPa 0,0 l/m 4,8 km/h (1 Bft) N-NW 337 5,9 C 15,1 C 6,4 km/h (2 Bft) 95,65 %
18.09.2019 13:34 15,2 C 53 % 1022,8 hPa 0,0 l/m 4,8 km/h (1 Bft) NW 315 5,7 C 15,2 C 11,3 km/h (2 Bft) 91,30 %
18.09.2019 13:33 15,2 C 52 % 1022,8 hPa 0,0 l/m 8,0 km/h (2 Bft) N-NW 337 5,4 C 14,3 C 11,3 km/h (2 Bft) 100,00 %
18.09.2019 13:32 15,3 C 51 % 1022,8 hPa 0,0 l/m 4,8 km/h (1 Bft) N-NO 22 5,2 C 15,3 C 9,7 km/h (2 Bft) 100,00 %
18.09.2019 13:31 15,2 C 53 % 1022,8 hPa 0,0 l/m 3,2 km/h (1 Bft) N-NO 22 5,7 C 15,2 C 6,4 km/h (2 Bft) 95,65 %
18.09.2019 13:30 15,1 C 53 % 1022,8 hPa 0,0 l/m 3,2 km/h (1 Bft) N-NO 22 5,6 C 15,1 C 11,3 km/h (2 Bft) 100,00 %
18.09.2019 13:29 15,2 C 52 % 1022,8 hPa 0,0 l/m 6,4 km/h (2 Bft) N-NO 22 5,4 C 15,2 C 9,7 km/h (2 Bft) 91,30 %
18.09.2019 13:28 15,1 C 52 % 1022,8 hPa 0,0 l/m 3,2 km/h (1 Bft) NO 45 5,3 C 15,1 C 6,4 km/h (2 Bft) 100,00 %
18.09.2019 13:27 15,0 C 53 % 1022,8 hPa 0,0 l/m 4,8 km/h (1 Bft) N-NW 337 5,5 C 15,0 C 8,0 km/h (2 Bft) 100,00 %
18.09.2019 13:26 14,9 C 54 % 1022,9 hPa 0,0 l/m 3,2 km/h (1 Bft) O-NO 67 5,7 C 14,9 C 4,8 km/h (1 Bft) 91,30 %
18.09.2019 13:25 14,9 C 54 % 1022,8 hPa 0,0 l/m 6,4 km/h (2 Bft) N-NO 22 5,7 C 14,9 C 9,7 km/h (2 Bft) 100,00 %
18.09.2019 13:24 14,8 C 55 % 1022,8 hPa 0,0 l/m 4,8 km/h (1 Bft) N-NO 22 5,8 C 14,8 C 8,0 km/h (2 Bft) 100,00 %
18.09.2019 13:23 14,7 C 55 % 1022,8 hPa 0,0 l/m 1,6 km/h (1 Bft) O-NO 67 5,8 C 14,7 C 4,8 km/h (1 Bft) 100,00 %
18.09.2019 13:22 14,6 C 55 % 1022,9 hPa 0,0 l/m 4,8 km/h (1 Bft) N-NW 337 5,7 C 14,6 C 8,0 km/h (2 Bft) 95,65 %
18.09.2019 13:21 14,7 C 53 % 1022,8 hPa 0,0 l/m 8,0 km/h (2 Bft) NO 45 5,2 C 13,8 C 11,3 km/h (2 Bft) 95,65 %
18.09.2019 13:20 14,8 C 54 % 1022,9 hPa 0,0 l/m 12,9 km/h (3 Bft) NO 45 5,6 C 11,7 C 16,1 km/h (3 Bft) 95,65 %
18.09.2019 13:19 14,9 C 55 % 1022,9 hPa 0,0 l/m 6,4 km/h (2 Bft) N-NO 22 5,9 C 14,9 C 9,7 km/h (2 Bft) 91,30 %
18.09.2019 13:18 14,9 C 55 % 1022,9 hPa 0,0 l/m 4,8 km/h (1 Bft) N 360 5,9 C 14,9 C 11,3 km/h (2 Bft) 95,65 %
18.09.2019 13:17 14,8 C 55 % 1022,9 hPa 0,0 l/m 4,8 km/h (1 Bft) N-NO 22 5,8 C 14,8 C 8,0 km/h (2 Bft) 91,30 %
18.09.2019 13:16 14,7 C 55 % 1022,9 hPa 0,0 l/m 4,8 km/h (1 Bft) NO 45 5,8 C 14,7 C 6,4 km/h (2 Bft) 86,96 %
18.09.2019 13:15 14,6 C 55 % 1022,9 hPa 0,0 l/m 4,8 km/h (1 Bft) NO 45 5,7 C 14,6 C 9,7 km/h (2 Bft) 100,00 %
18.09.2019 13:14 14,6 C 53 % 1023,0 hPa 0,0 l/m 9,7 km/h (2 Bft) NO 45 5,1 C 12,8 C 11,3 km/h (2 Bft) 95,65 %
18.09.2019 13:13 14,6 C 52 % 1023,0 hPa 0,0 l/m 9,7 km/h (2 Bft) NO 45 4,9 C 12,8 C 14,5 km/h (3 Bft) 100,00 %
18.09.2019 13:12 14,7 C 52 % 1023,0 hPa 0,0 l/m 11,3 km/h (2 Bft) NO 45 5,0 C 12,2 C 14,5 km/h (3 Bft) 91,30 %
18.09.2019 13:11 14,7 C 51 % 1023,0 hPa 0,0 l/m 8,0 km/h (2 Bft) NO 45 4,7 C 13,8 C 12,9 km/h (3 Bft) 95,65 %
18.09.2019 13:10 14,8 C 50 % 1023,1 hPa 0,0 l/m 6,4 km/h (2 Bft) N-NO 22 4,5 C 14,8 C 11,3 km/h (2 Bft) 95,65 %
18.09.2019 13:09 14,8 C 52 % 1023,0 hPa 0,0 l/m 4,8 km/h (1 Bft) N-NO 22 5,0 C 14,8 C 11,3 km/h (2 Bft) 91,30 %
18.09.2019 13:08 14,7 C 52 % 1023,1 hPa 0,0 l/m 4,8 km/h (1 Bft) NW 315 5,0 C 14,7 C 6,4 km/h (2 Bft) 100,00 %
18.09.2019 13:07 14,7 C 51 % 1023,0 hPa 0,0 l/m 6,4 km/h (2 Bft) N-NO 22 4,7 C 14,7 C 8,0 km/h (2 Bft) 95,65 %
18.09.2019 13:06 14,7 C 52 % 1023,1 hPa 0,0 l/m 4,8 km/h (1 Bft) N-NO 22 5,0 C 14,7 C 6,4 km/h (2 Bft) 100,00 %
18.09.2019 13:05 14,6 C 54 % 1023,1 hPa 0,0 l/m 3,2 km/h (1 Bft) NO 45 5,4 C 14,6 C 8,0 km/h (2 Bft) 91,30 %
18.09.2019 13:04 14,5 C 53 % 1023,1 hPa 0,0 l/m 4,8 km/h (1 Bft) N-NW 337 5,0 C 14,5 C 9,7 km/h (2 Bft) 91,30 %
18.09.2019 13:03 14,6 C 53 % 1023,1 hPa 0,0 l/m 6,4 km/h (2 Bft) NW 315 5,1 C 14,6 C 12,9 km/h (3 Bft) 100,00 %
18.09.2019 13:02 14,7 C 54 % 1023,0 hPa 0,0 l/m 4,8 km/h (1 Bft) NW 315 5,5 C 14,7 C 9,7 km/h (2 Bft) 91,30 %
18.09.2019 13:01 14,8 C 54 % 1023,1 hPa 0,0 l/m 4,8 km/h (1 Bft) NW 315 5,6 C 14,8 C 6,4 km/h (2 Bft) 95,65 %
18.09.2019 13:00 14,8 C 54 % 1023,1 hPa 0,0 l/m 8,0 km/h (2 Bft) N-NO 22 5,6 C 13,9 C 11,3 km/h (2 Bft) 95,65 %
18.09.2019 12:59 14,9 C 54 % 1023,1 hPa 0,0 l/m 6,4 km/h (2 Bft) N-NO 22 5,7 C 14,9 C 9,7 km/h (2 Bft) 95,65 %
18.09.2019 12:58 14,9 C 55 % 1023,1 hPa 0,0 l/m 6,4 km/h (2 Bft) NO 45 5,9 C 14,9 C 12,9 km/h (3 Bft) 100,00 %
18.09.2019 12:57 14,8 C 54 % 1023,2 hPa 0,0 l/m 4,8 km/h (1 Bft) NO 45 5,6 C 14,8 C 8,0 km/h (2 Bft) 95,65 %
18.09.2019 12:56 14,8 C 54 % 1023,1 hPa 0,0 l/m 6,4 km/h (2 Bft) N-NO 22 5,6 C 14,8 C 9,7 km/h (2 Bft) 100,00 %
18.09.2019 12:55 14,8 C 53 % 1023,1 hPa 0,0 l/m 3,2 km/h (1 Bft) NO 45 5,3 C 14,8 C 8,0 km/h (2 Bft) 95,65 %
18.09.2019 12:54 14,8 C 53 % 1023,1 hPa 0,0 l/m 3,2 km/h (1 Bft) NO 45 5,3 C 14,8 C 8,0 km/h (2 Bft) 100,00 %
18.09.2019 12:53 14,7 C 54 % 1023,2 hPa 0,0 l/m 4,8 km/h (1 Bft) N-NW 337 5,5 C 14,7 C 9,7 km/h (2 Bft) 95,65 %
18.09.2019 12:52 14,7 C 56 % 1023,2 hPa 0,0 l/m 6,4 km/h (2 Bft) NO 45 6,0 C 14,7 C 14,5 km/h (3 Bft) 91,30 %
18.09.2019 12:51 14,6 C 56 % 1023,3 hPa 0,0 l/m 3,2 km/h (1 Bft) NO 45 5,9 C 14,6 C 9,7 km/h (2 Bft) 95,65 %
18.09.2019 12:50 14,4 C 55 % 1023,2 hPa 0,0 l/m 1,6 km/h (1 Bft) N-NW 337 5,5 C 14,4 C 3,2 km/h (1 Bft) 91,30 %
18.09.2019 12:49 14,4 C 55 % 1023,2 hPa 0,0 l/m 3,2 km/h (1 Bft) N-NO 22 5,5 C 14,4 C 4,8 km/h (1 Bft) 100,00 %
18.09.2019 12:48 14,4 C 55 % 1023,2 hPa 0,0 l/m 6,4 km/h (2 Bft) N-NO 22 5,5 C 14,4 C 9,7 km/h (2 Bft) 95,65 %
18.09.2019 12:47 14,4 C 55 % 1023,2 hPa 0,0 l/m 6,4 km/h (2 Bft) N-NO 22 5,5 C 14,4 C 9,7 km/h (2 Bft) 91,30 %
18.09.2019 12:46 14,4 C 55 % 1023,1 hPa 0,0 l/m 6,4 km/h (2 Bft) NO 45 5,5 C 14,4 C 11,3 km/h (2 Bft) 100,00 %
18.09.2019 12:45 14,4 C 54 % 1023,2 hPa 0,0 l/m 6,4 km/h (2 Bft) NO 45 5,2 C 14,4 C 11,3 km/h (2 Bft) 100,00 %
18.09.2019 12:44 14,3 C 54 % 1023,3 hPa 0,0 l/m 3,2 km/h (1 Bft) NO 45 5,1 C 14,3 C 11,3 km/h (2 Bft) 100,00 %
18.09.2019 12:43 14,3 C 53 % 1023,2 hPa 0,0 l/m 8,0 km/h (2 Bft) NO 45 4,9 C 13,4 C 12,9 km/h (3 Bft) 91,30 %
18.09.2019 12:42 14,4 C 53 % 1023,2 hPa 0,0 l/m 8,0 km/h (2 Bft) N-NO 22 4,9 C 13,5 C 11,3 km/h (2 Bft) 95,65 %
18.09.2019 12:41 14,4 C 55 % 1023,2 hPa 0,0 l/m 8,0 km/h (2 Bft) N-NO 22 5,5 C 13,5 C 11,3 km/h (2 Bft) 95,65 %
18.09.2019 12:40 14,4 C 54 % 1023,1 hPa 0,0 l/m 9,7 km/h (2 Bft) NO 45 5,2 C 12,6 C 14,5 km/h (3 Bft) 91,30 %
18.09.2019 12:39 14,4 C 56 % 1023,2 hPa 0,0 l/m 6,4 km/h (2 Bft) N-NO 22 5,7 C 14,4 C 9,7 km/h (2 Bft) 100,00 %
18.09.2019 12:38 14,3 C 56 % 1023,2 hPa 0,0 l/m 8,0 km/h (2 Bft) N-NO 22 5,6 C 13,4 C 12,9 km/h (3 Bft) 95,65 %
18.09.2019 12:37 14,2 C 55 % 1023,1 hPa 0,0 l/m 4,8 km/h (1 Bft) N-NO 22 5,3 C 14,2 C 9,7 km/h (2 Bft) 95,65 %
18.09.2019 12:36 14,3 C 55 % 1023,2 hPa 0,0 l/m 6,4 km/h (2 Bft) N-NO 22 5,4 C 14,3 C 11,3 km/h (2 Bft) 95,65 %
18.09.2019 12:35 14,4 C 55 % 1023,2 hPa 0,0 l/m 8,0 km/h (2 Bft) NO 45 5,5 C 13,5 C 11,3 km/h (2 Bft) 100,00 %
18.09.2019 12:34 14,4 C 57 % 1023,2 hPa 0,0 l/m 6,4 km/h (2 Bft) N-NO 22 6,0 C 14,4 C 11,3 km/h (2 Bft) 100,00 %
18.09.2019 12:33 14,4 C 58 % 1023,2 hPa 0,0 l/m 4,8 km/h (1 Bft) NO 45 6,2 C 14,4 C 9,7 km/h (2 Bft) 91,30 %
18.09.2019 12:32 14,4 C 57 % 1023,2 hPa 0,0 l/m 3,2 km/h (1 Bft) NO 45 6,0 C 14,4 C 6,4 km/h (2 Bft) 100,00 %
18.09.2019 12:31 14,4 C 56 % 1023,2 hPa 0,0 l/m 8,0 km/h (2 Bft) N-NO 22 5,7 C 13,5 C 11,3 km/h (2 Bft) 91,30 %
18.09.2019 12:30 14,5 C 58 % 1023,2 hPa 0,0 l/m 11,3 km/h (2 Bft) N-NO 22 6,3 C 12,0 C 14,5 km/h (3 Bft) 100,00 %
18.09.2019 12:29 14,7 C 58 % 1023,2 hPa 0,0 l/m 8,0 km/h (2 Bft) N-NO 22 6,5 C 13,8 C 14,5 km/h (3 Bft) 95,65 %
18.09.2019 12:28 14,6 C 58 % 1023,2 hPa 0,0 l/m 4,8 km/h (1 Bft) NO 45 6,4 C 14,6 C 8,0 km/h (2 Bft) 91,30 %
18.09.2019 12:27 14,5 C 58 % 1023,1 hPa 0,0 l/m 1,6 km/h (1 Bft) N-NO 22 6,3 C 14,5 C 3,2 km/h (1 Bft) 95,65 %
18.09.2019 12:26 14,4 C 57 % 1023,2 hPa 0,0 l/m 4,8 km/h (1 Bft) NW 315 6,0 C 14,4 C 9,7 km/h (2 Bft) 91,30 %
18.09.2019 12:25 14,5 C 56 % 1023,2 hPa 0,0 l/m 6,4 km/h (2 Bft) N-NO 22 5,8 C 14,5 C 12,9 km/h (3 Bft) 95,65 %
18.09.2019 12:24 14,4 C 57 % 1023,2 hPa 0,0 l/m 3,2 km/h (1 Bft) NO 45 6,0 C 14,4 C 8,0 km/h (2 Bft) 95,65 %
18.09.2019 12:23 14,4 C 57 % 1023,3 hPa 0,0 l/m 6,4 km/h (2 Bft) NO 45 6,0 C 14,4 C 11,3 km/h (2 Bft) 95,65 %
18.09.2019 12:22 14,5 C 57 % 1023,2 hPa 0,0 l/m 6,4 km/h (2 Bft) NO 45 6,1 C 14,5 C 9,7 km/h (2 Bft) 100,00 %
18.09.2019 12:21 14,5 C 56 % 1023,2 hPa 0,0 l/m 8,0 km/h (2 Bft) NO 45 5,8 C 13,6 C 12,9 km/h (3 Bft) 100,00 %
18.09.2019 12:20 14,5 C 58 % 1023,2 hPa 0,0 l/m 3,2 km/h (1 Bft) NO 45 6,3 C 14,5 C 4,8 km/h (1 Bft) 100,00 %
18.09.2019 12:19 14,2 C 57 % 1023,3 hPa 0,0 l/m 0,0 km/h (0 Bft) S-SO 157 5,8 C 14,2 C 1,6 km/h (1 Bft) 95,65 %
18.09.2019 12:18 14,1 C 56 % 1023,3 hPa 0,0 l/m 1,6 km/h (1 Bft) W-SW 247 5,5 C 14,1 C 6,4 km/h (2 Bft) 91,30 %
18.09.2019 12:17 14,1 C 56 % 1023,3 hPa 0,0 l/m 4,8 km/h (1 Bft) W-NW 292 5,5 C 14,1 C 12,9 km/h (3 Bft) 100,00 %
18.09.2019 12:16 14,1 C 57 % 1023,3 hPa 0,0 l/m 1,6 km/h (1 Bft) N-NW 337 5,7 C 14,1 C 3,2 km/h (1 Bft) 95,65 %
18.09.2019 12:15 14,1 C 55 % 1023,4 hPa 0,0 l/m 1,6 km/h (1 Bft) W-NW 292 5,2 C 14,1 C 6,4 km/h (2 Bft) 100,00 %
18.09.2019 12:14 14,1 C 55 % 1023,3 hPa 0,0 l/m 8,0 km/h (2 Bft) NW 315 5,2 C 13,2 C 11,3 km/h (2 Bft) 100,00 %
18.09.2019 12:13 14,2 C 57 % 1023,3 hPa 0,0 l/m 6,4 km/h (2 Bft) NO 45 5,8 C 14,2 C 11,3 km/h (2 Bft) 100,00 %
18.09.2019 12:12 14,1 C 56 % 1023,4 hPa 0,0 l/m 0,0 km/h (0 Bft) O-NO 67 5,5 C 14,1 C 3,2 km/h (1 Bft) 95,65 %
18.09.2019 12:11 14,0 C 56 % 1023,4 hPa 0,0 l/m 4,8 km/h (1 Bft) N-NO 22 5,4 C 14,0 C 6,4 km/h (2 Bft) 91,30 %
18.09.2019 12:10 14,0 C 56 % 1023,4 hPa 0,0 l/m 4,8 km/h (1 Bft) N-NO 22 5,4 C 14,0 C 8,0 km/h (2 Bft) 100,00 %
18.09.2019 12:09 14,0 C 57 % 1023,4 hPa 0,0 l/m 4,8 km/h (1 Bft) N-NO 22 5,6 C 14,0 C 6,4 km/h (2 Bft) 95,65 %
18.09.2019 12:08 13,9 C 57 % 1023,3 hPa 0,0 l/m 4,8 km/h (1 Bft) NO 45 5,5 C 13,9 C 9,7 km/h (2 Bft) 100,00 %
18.09.2019 12:07 13,9 C 59 % 1023,4 hPa 0,0 l/m 4,8 km/h (1 Bft) NW 315 6,0 C 13,9 C 6,4 km/h (2 Bft) 91,30 %
18.09.2019 12:06 14,0 C 55 % 1023,4 hPa 0,0 l/m 6,4 km/h (2 Bft) W-NW 292 5,1 C 14,0 C 11,3 km/h (2 Bft) 95,65 %
18.09.2019 12:05 14,1 C 57 % 1023,4 hPa 0,0 l/m 6,4 km/h (2 Bft) NW 315 5,7 C 14,1 C 11,3 km/h (2 Bft) 100,00 %
18.09.2019 12:04 14,3 C 55 % 1023,3 hPa 0,0 l/m 4,8 km/h (1 Bft) NO 45 5,4 C 14,3 C 8,0 km/h (2 Bft) 95,65 %
18.09.2019 12:03 14,4 C 56 % 1023,3 hPa 0,0 l/m 6,4 km/h (2 Bft) N-NW 337 5,7 C 14,4 C 12,9 km/h (3 Bft) 95,65 %
18.09.2019 12:02 14,5 C 57 % 1023,3 hPa 0,0 l/m 6,4 km/h (2 Bft) N-NW 337 6,1 C 14,5 C 12,9 km/h (3 Bft) 95,65 %
18.09.2019 12:01 14,4 C 59 % 1023,3 hPa 0,0 l/m 1,6 km/h (1 Bft) NO 45 6,5 C 14,4 C 4,8 km/h (1 Bft) 100,00 %
18.09.2019 12:00 14,4 C 56 % 1023,3 hPa 0,0 l/m 3,2 km/h (1 Bft) W-NW 292 5,7 C 14,4 C 4,8 km/h (1 Bft) 100,00 %
18.09.2019 11:59 14,4 C 58 % 1023,3 hPa 0,0 l/m 4,8 km/h (1 Bft) N-NW 337 6,2 C 14,4 C 9,7 km/h (2 Bft) 95,65 %
18.09.2019 11:58 14,4 C 60 % 1023,3 hPa 0,0 l/m 4,8 km/h (1 Bft) N-NW 337 6,7 C 14,4 C 9,7 km/h (2 Bft) 95,65 %
18.09.2019 11:57 14,3 C 60 % 1023,3 hPa 0,0 l/m 6,4 km/h (2 Bft) NO 45 6,6 C 14,3 C 9,7 km/h (2 Bft) 95,65 %
18.09.2019 11:56 14,1 C 61 % 1023,2 hPa 0,0 l/m 3,2 km/h (1 Bft) N-NO 22 6,7 C 14,1 C 6,4 km/h (2 Bft) 100,00 %
18.09.2019 11:55 13,9 C 60 % 1023,4 hPa 0,0 l/m 3,2 km/h (1 Bft) NO 45 6,3 C 13,9 C 4,8 km/h (1 Bft) 100,00 %
18.09.2019 11:54 13,9 C 60 % 1023,5 hPa 0,0 l/m 4,8 km/h (1 Bft) O-NO 67 6,3 C 13,9 C 8,0 km/h (2 Bft) 91,30 %
18.09.2019 11:53 13,8 C 60 % 1023,4 hPa 0,0 l/m 1,6 km/h (1 Bft) N-NW 337 6,2 C 13,8 C 3,2 km/h (1 Bft) 100,00 %
18.09.2019 11:52 13,7 C 60 % 1023,5 hPa 0,0 l/m 1,6 km/h (1 Bft) NW 315 6,1 C 13,7 C 4,8 km/h (1 Bft) 91,30 %
18.09.2019 11:51 13,7 C 60 % 1023,4 hPa 0,0 l/m 3,2 km/h (1 Bft) NO 45 6,1 C 13,7 C 4,8 km/h (1 Bft) 95,65 %
18.09.2019 11:50 13,6 C 60 % 1023,4 hPa 0,0 l/m 4,8 km/h (1 Bft) NO 45 6,0 C 13,6 C 6,4 km/h (2 Bft) 95,65 %
18.09.2019 11:49 13,6 C 59 % 1023,5 hPa 0,0 l/m 4,8 km/h (1 Bft) O-NO 67 5,7 C 13,6 C 8,0 km/h (2 Bft) 100,00 %
18.09.2019 11:48 13,6 C 60 % 1023,4 hPa 0,0 l/m 4,8 km/h (1 Bft) N-NW 337 6,0 C 13,6 C 8,0 km/h (2 Bft) 91,30 %
18.09.2019 11:47 13,7 C 60 % 1023,4 hPa 0,0 l/m 8,0 km/h (2 Bft) N-NO 22 6,1 C 12,7 C 9,7 km/h (2 Bft) 95,65 %
18.09.2019 11:46 13,7 C 60 % 1023,4 hPa 0,0 l/m 4,8 km/h (1 Bft) N-NW 337 6,1 C 13,7 C 9,7 km/h (2 Bft) 100,00 %
18.09.2019 11:45 13,7 C 62 % 1023,4 hPa 0,0 l/m 1,6 km/h (1 Bft) N-NW 337 6,6 C 13,7 C 9,7 km/h (2 Bft) 95,65 %
18.09.2019 11:44 13,5 C 61 % 1023,4 hPa 0,0 l/m 1,6 km/h (1 Bft) W 270 6,1 C 13,5 C 4,8 km/h (1 Bft) 100,00 %
18.09.2019 11:43 13,5 C 62 % 1023,5 hPa 0,0 l/m 3,2 km/h (1 Bft) NW 315 6,4 C 13,5 C 4,8 km/h (1 Bft) 91,30 %
18.09.2019 11:42 13,4 C 61 % 1023,4 hPa 0,0 l/m 3,2 km/h (1 Bft) N-NO 22 6,0 C 13,4 C 6,4 km/h (2 Bft) 100,00 %
18.09.2019 11:41 13,5 C 60 % 1023,4 hPa 0,0 l/m 6,4 km/h (2 Bft) NW 315 5,9 C 13,5 C 9,7 km/h (2 Bft) 100,00 %
18.09.2019 11:40 13,7 C 60 % 1023,4 hPa 0,0 l/m 4,8 km/h (1 Bft) NW 315 6,1 C 13,7 C 9,7 km/h (2 Bft) 95,65 %
18.09.2019 11:39 13,7 C 59 % 1023,4 hPa 0,0 l/m 4,8 km/h (1 Bft) NW 315 5,8 C 13,7 C 8,0 km/h (2 Bft) 100,00 %
18.09.2019 11:38 13,8 C 61 % 1023,4 hPa 0,0 l/m 3,2 km/h (1 Bft) NW 315 6,4 C 13,8 C 8,0 km/h (2 Bft) 95,65 %
18.09.2019 11:37 13,8 C 59 % 1023,5 hPa 0,0 l/m 3,2 km/h (1 Bft) NW 315 5,9 C 13,8 C 6,4 km/h (2 Bft) 100,00 %
18.09.2019 11:36 13,9 C 60 % 1023,4 hPa 0,0 l/m 4,8 km/h (1 Bft) N-NW 337 6,3 C 13,9 C 9,7 km/h (2 Bft) 95,65 %
18.09.2019 11:35 14,1 C 59 % 1023,4 hPa 0,0 l/m 8,0 km/h (2 Bft) N-NW 337 6,2 C 13,2 C 12,9 km/h (3 Bft) 95,65 %
18.09.2019 11:34 14,1 C 61 % 1023,4 hPa 0,0 l/m 4,8 km/h (1 Bft) N-NO 22 6,7 C 14,1 C 8,0 km/h (2 Bft) 100,00 %
18.09.2019 11:33 14,2 C 61 % 1023,5 hPa 0,0 l/m 3,2 km/h (1 Bft) NW 315 6,8 C 14,2 C 9,7 km/h (2 Bft) 91,30 %
18.09.2019 11:32 14,1 C 60 % 1023,4 hPa 0,0 l/m 4,8 km/h (1 Bft) N-NO 22 6,5 C 14,1 C 8,0 km/h (2 Bft) 100,00 %
18.09.2019 11:31 14,1 C 61 % 1023,4 hPa 0,0 l/m 4,8 km/h (1 Bft) NO 45 6,7 C 14,1 C 9,7 km/h (2 Bft) 91,30 %
18.09.2019 11:30 14,1 C 61 % 1023,4 hPa 0,0 l/m 4,8 km/h (1 Bft) NO 45 6,7 C 14,1 C 8,0 km/h (2 Bft) 95,65 %
18.09.2019 11:29 14,1 C 62 % 1023,4 hPa 0,0 l/m 1,6 km/h (1 Bft) O 90 6,9 C 14,1 C 3,2 km/h (1 Bft) 100,00 %
18.09.2019 11:28 13,9 C 61 % 1023,4 hPa 0,0 l/m 1,6 km/h (1 Bft) N-NO 22 6,5 C 13,9 C 3,2 km/h (1 Bft) 95,65 %
18.09.2019 11:27 13,8 C 62 % 1023,4 hPa 0,0 l/m 0,0 km/h (0 Bft) O-NO 67 6,6 C 13,8 C 1,6 km/h (1 Bft) 95,65 %
18.09.2019 11:26 13,7 C 61 % 1023,4 hPa 0,0 l/m 1,6 km/h (1 Bft) N 360 6,3 C 13,7 C 4,8 km/h (1 Bft) 95,65 %
18.09.2019 11:25 13,7 C 61 % 1023,4 hPa 0,0 l/m 3,2 km/h (1 Bft) NW 315 6,3 C 13,7 C 4,8 km/h (1 Bft) 95,65 %
18.09.2019 11:24 13,7 C 61 % 1023,4 hPa 0,0 l/m 3,2 km/h (1 Bft) NW 315 6,3 C 13,7 C 9,7 km/h (2 Bft) 95,65 %
18.09.2019 11:23 13,7 C 61 % 1023,4 hPa 0,0 l/m 3,2 km/h (1 Bft) N 360 6,3 C 13,7 C 4,8 km/h (1 Bft) 95,65 %
18.09.2019 11:22 13,8 C 60 % 1023,4 hPa 0,0 l/m 6,4 km/h (2 Bft) N-NO 22 6,2 C 13,8 C 8,0 km/h (2 Bft) 100,00 %
18.09.2019 11:21 13,9 C 60 % 1023,3 hPa 0,0 l/m 6,4 km/h (2 Bft) N-NW 337 6,3 C 13,9 C 11,3 km/h (2 Bft) 91,30 %
18.09.2019 11:20 13,9 C 61 % 1023,4 hPa 0,0 l/m 1,6 km/h (1 Bft) N-NW 337 6,5 C 13,9 C 6,4 km/h (2 Bft) 100,00 %
18.09.2019 11:19 13,8 C 61 % 1023,4 hPa 0,0 l/m 3,2 km/h (1 Bft) N-NO 22 6,4 C 13,8 C 6,4 km/h (2 Bft) 95,65 %
18.09.2019 11:18 13,6 C 61 % 1023,4 hPa 0,0 l/m 1,6 km/h (1 Bft) N-NO 22 6,2 C 13,6 C 4,8 km/h (1 Bft) 91,30 %
18.09.2019 11:17 13,4 C 61 % 1023,4 hPa 0,0 l/m 3,2 km/h (1 Bft) NO 45 6,0 C 13,4 C 8,0 km/h (2 Bft) 95,65 %
18.09.2019 11:16 13,5 C 61 % 1023,4 hPa 0,0 l/m 6,4 km/h (2 Bft) NO 45 6,1 C 13,5 C 11,3 km/h (2 Bft) 91,30 %
18.09.2019 11:15 13,6 C 62 % 1023,4 hPa 0,0 l/m 4,8 km/h (1 Bft) NO 45 6,5 C 13,6 C 11,3 km/h (2 Bft) 100,00 %
18.09.2019 11:14 13,6 C 62 % 1023,4 hPa 0,0 l/m 8,0 km/h (2 Bft) NO 45 6,5 C 12,6 C 11,3 km/h (2 Bft) 91,30 %
18.09.2019 11:13 13,6 C 62 % 1023,4 hPa 0,0 l/m 3,2 km/h (1 Bft) NW 315 6,5 C 13,6 C 8,0 km/h (2 Bft) 91,30 %
18.09.2019 11:12 13,5 C 62 % 1023,5 hPa 0,0 l/m 4,8 km/h (1 Bft) O-NO 67 6,4 C 13,5 C 6,4 km/h (2 Bft) 100,00 %
18.09.2019 11:11 13,5 C 62 % 1023,5 hPa 0,0 l/m 1,6 km/h (1 Bft) NO 45 6,4 C 13,5 C 3,2 km/h (1 Bft) 100,00 %
18.09.2019 11:10 13,5 C 61 % 1023,5 hPa 0,0 l/m 4,8 km/h (1 Bft) N-NO 22 6,1 C 13,5 C 9,7 km/h (2 Bft) 100,00 %
18.09.2019 11:09 13,5 C 62 % 1023,5 hPa 0,0 l/m 3,2 km/h (1 Bft) O-NO 67 6,4 C 13,5 C 6,4 km/h (2 Bft) 95,65 %
18.09.2019 11:08 13,6 C 60 % 1023,6 hPa 0,0 l/m 3,2 km/h (1 Bft) N-NO 22 6,0 C 13,6 C 6,4 km/h (2 Bft) 95,65 %
18.09.2019 11:07 13,7 C 62 % 1023,5 hPa 0,0 l/m 4,8 km/h (1 Bft) N-NO 22 6,6 C 13,7 C 6,4 km/h (2 Bft) 91,30 %
18.09.2019 11:06 13,6 C 64 % 1023,5 hPa 0,0 l/m 3,2 km/h (1 Bft) N-NW 337 6,9 C 13,6 C 6,4 km/h (2 Bft) 95,65 %
18.09.2019 11:05 13,4 C 63 % 1023,4 hPa 0,0 l/m 3,2 km/h (1 Bft) NO 45 6,5 C 13,4 C 6,4 km/h (2 Bft) 95,65 %
18.09.2019 11:04 13,4 C 63 % 1023,5 hPa 0,0 l/m 3,2 km/h (1 Bft) W-NW 292 6,5 C 13,4 C 4,8 km/h (1 Bft) 91,30 %
18.09.2019 11:03 13,4 C 63 % 1023,5 hPa 0,0 l/m 3,2 km/h (1 Bft) N-NW 337 6,5 C 13,4 C 6,4 km/h (2 Bft) 100,00 %
18.09.2019 11:02 13,5 C 63 % 1023,5 hPa 0,0 l/m 4,8 km/h (1 Bft) W-NW 292 6,6 C 13,5 C 9,7 km/h (2 Bft) 100,00 %
18.09.2019 11:01 13,5 C 63 % 1023,5 hPa 0,0 l/m 3,2 km/h (1 Bft) NO 45 6,6 C 13,5 C 6,4 km/h (2 Bft) 91,30 %
18.09.2019 11:00 13,4 C 63 % 1023,5 hPa 0,0 l/m 4,8 km/h (1 Bft) N 360 6,5 C 13,4 C 6,4 km/h (2 Bft) 95,65 %
18.09.2019 10:59 13,3 C 64 % 1023,5 hPa 0,0 l/m 1,6 km/h (1 Bft) N 360 6,6 C 13,3 C 4,8 km/h (1 Bft) 91,30 %
18.09.2019 10:58 13,2 C 64 % 1023,4 hPa 0,0 l/m 0,0 km/h (0 Bft) W-NW 292 6,5 C 13,2 C 1,6 km/h (1 Bft) 95,65 %
18.09.2019 10:57 13,1 C 63 % 1023,5 hPa 0,0 l/m 0,0 km/h (0 Bft) N-NW 337 6,2 C 13,1 C 1,6 km/h (1 Bft) 95,65 %
18.09.2019 10:56 13,1 C 64 % 1023,5 hPa 0,0 l/m 3,2 km/h (1 Bft) N 360 6,4 C 13,1 C 3,2 km/h (1 Bft) 100,00 %
18.09.2019 10:55 13,1 C 66 % 1023,4 hPa 0,0 l/m 3,2 km/h (1 Bft) N 360 6,9 C 13,1 C 4,8 km/h (1 Bft) 95,65 %
18.09.2019 10:54 12,9 C 66 % 1023,4 hPa 0,0 l/m 3,2 km/h (1 Bft) NO 45 6,7 C 12,9 C 6,4 km/h (2 Bft) 100,00 %
18.09.2019 10:53 12,8 C 64 % 1023,4 hPa 0,0 l/m 8,0 km/h (2 Bft) NO 45 6,2 C 11,8 C 11,3 km/h (2 Bft) 95,65 %
18.09.2019 10:52 12,8 C 65 % 1023,4 hPa 0,0 l/m 4,8 km/h (1 Bft) NO 45 6,4 C 12,8 C 6,4 km/h (2 Bft) 91,30 %
18.09.2019 10:51 12,8 C 63 % 1023,3 hPa 0,0 l/m 1,6 km/h (1 Bft) W-NW 292 5,9 C 12,8 C 6,4 km/h (2 Bft) 100,00 %
18.09.2019 10:50 12,8 C 63 % 1023,3 hPa 0,0 l/m 3,2 km/h (1 Bft) N-NW 337 5,9 C 12,8 C 6,4 km/h (2 Bft) 100,00 %
18.09.2019 10:49 12,8 C 63 % 1023,3 hPa 0,0 l/m 4,8 km/h (1 Bft) N-NW 337 5,9 C 12,8 C 6,4 km/h (2 Bft) 91,30 %
18.09.2019 10:48 12,9 C 63 % 1023,2 hPa 0,0 l/m 6,4 km/h (2 Bft) N-NO 22 6,0 C 12,9 C 8,0 km/h (2 Bft) 95,65 %
18.09.2019 10:47 12,9 C 63 % 1023,3 hPa 0,0 l/m 4,8 km/h (1 Bft) NW 315 6,0 C 12,9 C 8,0 km/h (2 Bft) 91,30 %
18.09.2019 10:46 12,7 C 65 % 1023,4 hPa 0,0 l/m 1,6 km/h (1 Bft) O-NO 67 6,3 C 12,7 C 3,2 km/h (1 Bft) 100,00 %
18.09.2019 10:45 12,5 C 65 % 1023,5 hPa 0,0 l/m 0,0 km/h (0 Bft) O-NO 67 6,1 C 12,5 C 1,6 km/h (1 Bft) 95,65 %
18.09.2019 10:44 12,4 C 65 % 1023,4 hPa 0,0 l/m 1,6 km/h (1 Bft) W-NW 292 6,0 C 12,4 C 4,8 km/h (1 Bft) 100,00 %
18.09.2019 10:43 12,3 C 64 % 1023,4 hPa 0,0 l/m 0,0 km/h (0 Bft) N 360 5,7 C 12,3 C 1,6 km/h (1 Bft) 95,65 %
18.09.2019 10:42 12,2 C 63 % 1023,5 hPa 0,0 l/m 1,6 km/h (1 Bft) N 360 5,4 C 12,2 C 3,2 km/h (1 Bft) 95,65 %
18.09.2019 10:41 12,3 C 63 % 1023,4 hPa 0,0 l/m 4,8 km/h (1 Bft) NW 315 5,5 C 12,3 C 8,0 km/h (2 Bft) 95,65 %
18.09.2019 10:40 12,4 C 63 % 1023,4 hPa 0,0 l/m 4,8 km/h (1 Bft) N-NW 337 5,6 C 12,4 C 9,7 km/h (2 Bft) 91,30 %
18.09.2019 10:39 12,3 C 64 % 1023,4 hPa 0,0 l/m 6,4 km/h (2 Bft) N-NW 337 5,7 C 12,3 C 11,3 km/h (2 Bft) 95,65 %
18.09.2019 10:38 12,3 C 64 % 1023,4 hPa 0,0 l/m 3,2 km/h (1 Bft) W-NW 292 5,7 C 12,3 C 6,4 km/h (2 Bft) 95,65 %
18.09.2019 10:37 12,3 C 63 % 1023,4 hPa 0,0 l/m 4,8 km/h (1 Bft) NW 315 5,5 C 12,3 C 8,0 km/h (2 Bft) 95,65 %
18.09.2019 10:36 12,4 C 62 % 1023,4 hPa 0,0 l/m 6,4 km/h (2 Bft) NW 315 5,3 C 12,4 C 11,3 km/h (2 Bft) 100,00 %
18.09.2019 10:35 12,4 C 63 % 1023,5 hPa 0,0 l/m 3,2 km/h (1 Bft) NW 315 5,6 C 12,4 C 6,4 km/h (2 Bft) 100,00 %
18.09.2019 10:34 12,4 C 63 % 1023,5 hPa 0,0 l/m 4,8 km/h (1 Bft) NO 45 5,6 C 12,4 C 8,0 km/h (2 Bft) 100,00 %
18.09.2019 10:33 12,3 C 64 % 1023,4 hPa 0,0 l/m 6,4 km/h (2 Bft) NO 45 5,7 C 12,3 C 11,3 km/h (2 Bft) 100,00 %
18.09.2019 10:32 12,3 C 62 % 1023,4 hPa 0,0 l/m 1,6 km/h (1 Bft) N-NO 22 5,2 C 12,3 C 4,8 km/h (1 Bft) 91,30 %
18.09.2019 10:31 12,3 C 62 % 1023,5 hPa 0,0 l/m 3,2 km/h (1 Bft) W 270 5,2 C 12,3 C 6,4 km/h (2 Bft) 100,00 %
18.09.2019 10:30 12,4 C 61 % 1023,4 hPa 0,0 l/m 8,0 km/h (2 Bft) NW 315 5,1 C 11,4 C 12,9 km/h (3 Bft) 95,65 %
18.09.2019 10:29 12,5 C 62 % 1023,4 hPa 0,0 l/m 6,4 km/h (2 Bft) N-NW 337 5,4 C 12,5 C 12,9 km/h (3 Bft) 91,30 %
18.09.2019 10:28 12,6 C 62 % 1023,4 hPa 0,0 l/m 8,0 km/h (2 Bft) NW 315 5,5 C 11,6 C 11,3 km/h (2 Bft) 95,65 %
18.09.2019 10:27 12,6 C 62 % 1023,4 hPa 0,0 l/m 3,2 km/h (1 Bft) NO 45 5,5 C 12,6 C 6,4 km/h (2 Bft) 95,65 %
18.09.2019 10:26 12,6 C 63 % 1023,3 hPa 0,0 l/m 3,2 km/h (1 Bft) NO 45 5,7 C 12,6 C 6,4 km/h (2 Bft) 91,30 %
18.09.2019 10:25 12,5 C 62 % 1023,4 hPa 0,0 l/m 3,2 km/h (1 Bft) NW 315 5,4 C 12,5 C 4,8 km/h (1 Bft) 91,30 %
18.09.2019 10:24 12,5 C 61 % 1023,4 hPa 0,0 l/m 4,8 km/h (1 Bft) N-NW 337 5,2 C 12,5 C 8,0 km/h (2 Bft) 100,00 %
18.09.2019 10:23 12,5 C 64 % 1023,4 hPa 0,0 l/m 3,2 km/h (1 Bft) NW 315 5,9 C 12,5 C 6,4 km/h (2 Bft) 91,30 %
18.09.2019 10:22 12,4 C 64 % 1023,4 hPa 0,0 l/m 0,0 km/h (0 Bft) N-NW 337 5,8 C 12,4 C 3,2 km/h (1 Bft) 100,00 %
18.09.2019 10:21 12,3 C 64 % 1023,4 hPa 0,0 l/m 1,6 km/h (1 Bft) NO 45 5,7 C 12,3 C 1,6 km/h (1 Bft) 91,30 %
18.09.2019 10:20 12,3 C 63 % 1023,4 hPa 0,0 l/m 4,8 km/h (1 Bft) N-NW 337 5,5 C 12,3 C 8,0 km/h (2 Bft) 91,30 %
18.09.2019 10:19 12,4 C 64 % 1023,4 hPa 0,0 l/m 4,8 km/h (1 Bft) NW 315 5,8 C 12,4 C 8,0 km/h (2 Bft) 100,00 %
18.09.2019 10:18 12,4 C 64 % 1023,4 hPa 0,0 l/m 1,6 km/h (1 Bft) N 360 5,8 C 12,4 C 4,8 km/h (1 Bft) 95,65 %
18.09.2019 10:17 12,4 C 64 % 1023,4 hPa 0,0 l/m 6,4 km/h (2 Bft) N-NO 22 5,8 C 12,4 C 11,3 km/h (2 Bft) 100,00 %
18.09.2019 10:16 12,4 C 64 % 1023,4 hPa 0,0 l/m 3,2 km/h (1 Bft) NO 45 5,8 C 12,4 C 9,7 km/h (2 Bft) 91,30 %
18.09.2019 10:15 12,3 C 65 % 1023,4 hPa 0,0 l/m 1,6 km/h (1 Bft) N 360 5,9 C 12,3 C 3,2 km/h (1 Bft) 95,65 %
18.09.2019 10:14 12,3 C 64 % 1023,4 hPa 0,0 l/m 3,2 km/h (1 Bft) NO 45 5,7 C 12,3 C 3,2 km/h (1 Bft) 100,00 %
18.09.2019 10:13 12,3 C 64 % 1023,5 hPa 0,0 l/m 1,6 km/h (1 Bft) NO 45 5,7 C 12,3 C 3,2 km/h (1 Bft) 91,30 %
18.09.2019 10:12 12,3 C 64 % 1023,4 hPa 0,0 l/m 3,2 km/h (1 Bft) N-NW 337 5,7 C 12,3 C 4,8 km/h (1 Bft) 100,00 %
18.09.2019 10:11 12,4 C 64 % 1023,5 hPa 0,0 l/m 3,2 km/h (1 Bft) N 360 5,8 C 12,4 C 6,4 km/h (2 Bft) 91,30 %
18.09.2019 10:10 12,4 C 65 % 1023,5 hPa 0,0 l/m 4,8 km/h (1 Bft) N 360 6,0 C 12,4 C 8,0 km/h (2 Bft) 95,65 %
18.09.2019 10:09 12,3 C 65 % 1023,3 hPa 0,0 l/m 1,6 km/h (1 Bft) NW 315 5,9 C 12,3 C 4,8 km/h (1 Bft) 91,30 %
18.09.2019 10:08 12,3 C 64 % 1023,4 hPa 0,0 l/m 4,8 km/h (1 Bft) NO 45 5,7 C 12,3 C 8,0 km/h (2 Bft) 95,65 %
18.09.2019 10:07 12,3 C 64 % 1023,4 hPa 0,0 l/m 4,8 km/h (1 Bft) NO 45 5,7 C 12,3 C 6,4 km/h (2 Bft) 100,00 %
18.09.2019 10:06 12,2 C 66 % 1023,4 hPa 0,0 l/m 1,6 km/h (1 Bft) NO 45 6,0 C 12,2 C 6,4 km/h (2 Bft) 95,65 %
18.09.2019 10:05 12,1 C 67 % 1023,4 hPa 0,0 l/m 1,6 km/h (1 Bft) NO 45 6,2 C 12,1 C 4,8 km/h (1 Bft) 100,00 %
18.09.2019 10:04 11,9 C 66 % 1023,5 hPa 0,0 l/m 3,2 km/h (1 Bft) NO 45 5,8 C 11,9 C 6,4 km/h (2 Bft) 95,65 %
18.09.2019 10:03 11,8 C 66 % 1023,4 hPa 0,0 l/m 1,6 km/h (1 Bft) NO 45 5,7 C 11,8 C 6,4 km/h (2 Bft) 100,00 %
18.09.2019 10:02 11,7 C 66 % 1023,4 hPa 0,0 l/m 1,6 km/h (1 Bft) NW 315 5,6 C 11,7 C 4,8 km/h (1 Bft) 95,65 %
18.09.2019 10:01 11,6 C 66 % 1023,5 hPa 0,0 l/m 1,6 km/h (1 Bft) W-NW 292 5,5 C 11,6 C 4,8 km/h (1 Bft) 95,65 %
18.09.2019 10:00 11,6 C 65 % 1023,5 hPa 0,0 l/m 3,2 km/h (1 Bft) W-NW 292 5,2 C 11,6 C 8,0 km/h (2 Bft) 95,65 %
18.09.2019 09:59 11,6 C 65 % 1023,5 hPa 0,0 l/m 6,4 km/h (2 Bft) NW 315 5,2 C 11,6 C 9,7 km/h (2 Bft) 95,65 %
18.09.2019 09:58 11,7 C 65 % 1023,5 hPa 0,0 l/m 6,4 km/h (2 Bft) N 360 5,3 C 11,7 C 11,3 km/h (2 Bft) 100,00 %
18.09.2019 09:57 11,7 C 65 % 1023,4 hPa 0,0 l/m 4,8 km/h (1 Bft) NO 45 5,3 C 11,7 C 8,0 km/h (2 Bft) 91,30 %
18.09.2019 09:56 11,8 C 65 % 1023,5 hPa 0,0 l/m 9,7 km/h (2 Bft) NO 45 5,4 C 9,7 C 11,3 km/h (2 Bft) 95,65 %
18.09.2019 09:55 11,9 C 65 % 1023,5 hPa 0,0 l/m 6,4 km/h (2 Bft) NO 45 5,5 C 11,9 C 9,7 km/h (2 Bft) 100,00 %
18.09.2019 09:54 12,0 C 64 % 1023,5 hPa 0,0 l/m 9,7 km/h (2 Bft) NO 45 5,4 C 10,0 C 14,5 km/h (3 Bft) 91,30 %
18.09.2019 09:53 12,1 C 64 % 1023,5 hPa 0,0 l/m 6,4 km/h (2 Bft) NO 45 5,5 C 12,1 C 11,3 km/h (2 Bft) 100,00 %
18.09.2019 09:52 12,1 C 65 % 1023,5 hPa 0,0 l/m 4,8 km/h (1 Bft) NO 45 5,7 C 12,1 C 9,7 km/h (2 Bft) 95,65 %
18.09.2019 09:51 11,9 C 65 % 1023,5 hPa 0,0 l/m 4,8 km/h (1 Bft) NO 45 5,5 C 11,9 C 9,7 km/h (2 Bft) 100,00 %
18.09.2019 09:50 11,8 C 66 % 1023,5 hPa 0,0 l/m 1,6 km/h (1 Bft) NO 45 5,7 C 11,8 C 6,4 km/h (2 Bft) 91,30 %
18.09.2019 09:49 11,7 C 66 % 1023,5 hPa 0,0 l/m 0,0 km/h (0 Bft) N-NW 337 5,6 C 11,7 C 1,6 km/h (1 Bft) 91,30 %
18.09.2019 09:48 11,6 C 65 % 1023,3 hPa 0,0 l/m 3,2 km/h (1 Bft) NO 45 5,2 C 11,6 C 4,8 km/h (1 Bft) 100,00 %
18.09.2019 09:47 11,6 C 66 % 1023,4 hPa 0,0 l/m 1,6 km/h (1 Bft) NO 45 5,5 C 11,6 C 3,2 km/h (1 Bft) 91,30 %
18.09.2019 09:46 11,5 C 64 % 1023,5 hPa 0,0 l/m 3,2 km/h (1 Bft) NO 45 4,9 C 11,5 C 4,8 km/h (1 Bft) 95,65 %
18.09.2019 09:45 11,5 C 64 % 1023,3 hPa 0,0 l/m 3,2 km/h (1 Bft) NW 315 4,9 C 11,5 C 8,0 km/h (2 Bft) 91,30 %
18.09.2019 09:44 11,5 C 64 % 1023,4 hPa 0,0 l/m 6,4 km/h (2 Bft) N-NO 22 4,9 C 11,5 C 8,0 km/h (2 Bft) 91,30 %
18.09.2019 09:43 11,5 C 64 % 1023,4 hPa 0,0 l/m 6,4 km/h (2 Bft) NO 45 4,9 C 11,5 C 11,3 km/h (2 Bft) 91,30 %
18.09.2019 09:42 11,6 C 64 % 1023,3 hPa 0,0 l/m 1,6 km/h (1 Bft) NW 315 5,0 C 11,6 C 3,2 km/h (1 Bft) 100,00 %
18.09.2019 09:41 11,5 C 65 % 1023,3 hPa 0,0 l/m 3,2 km/h (1 Bft) NW 315 5,2 C 11,5 C 3,2 km/h (1 Bft) 100,00 %
18.09.2019 09:40 11,4 C 65 % 1023,3 hPa 0,0 l/m 4,8 km/h (1 Bft) O-NO 67 5,1 C 11,4 C 8,0 km/h (2 Bft) 91,30 %
18.09.2019 09:39 11,4 C 65 % 1023,3 hPa 0,0 l/m 4,8 km/h (1 Bft) NO 45 5,1 C 11,4 C 8,0 km/h (2 Bft) 91,30 %
18.09.2019 09:38 11,4 C 65 % 1023,3 hPa 0,0 l/m 6,4 km/h (2 Bft) NO 45 5,1 C 11,4 C 9,7 km/h (2 Bft) 100,00 %
18.09.2019 09:37 11,4 C 64 % 1023,3 hPa 0,0 l/m 4,8 km/h (1 Bft) NO 45 4,8 C 11,4 C 8,0 km/h (2 Bft) 95,65 %
18.09.2019 09:36 11,4 C 65 % 1023,3 hPa 0,0 l/m 6,4 km/h (2 Bft) N-NO 22 5,1 C 11,4 C 8,0 km/h (2 Bft) 95,65 %
18.09.2019 09:35 11,4 C 65 % 1023,4 hPa 0,0 l/m 1,6 km/h (1 Bft) N-NW 337 5,1 C 11,4 C 3,2 km/h (1 Bft) 95,65 %
18.09.2019 09:34 11,4 C 64 % 1023,4 hPa 0,0 l/m 1,6 km/h (1 Bft) NW 315 4,8 C 11,4 C 3,2 km/h (1 Bft) 100,00 %
18.09.2019 09:33 11,4 C 64 % 1023,4 hPa 0,0 l/m 6,4 km/h (2 Bft) NO 45 4,8 C 11,4 C 11,3 km/h (2 Bft) 91,30 %
18.09.2019 09:32 11,4 C 64 % 1023,3 hPa 0,0 l/m 4,8 km/h (1 Bft) NO 45 4,8 C 11,4 C 12,9 km/h (3 Bft) 95,65 %
18.09.2019 09:31 11,4 C 64 % 1023,3 hPa 0,0 l/m 3,2 km/h (1 Bft) NO 45 4,8 C 11,4 C 3,2 km/h (1 Bft) 100,00 %
18.09.2019 09:30 11,4 C 63 % 1023,3 hPa 0,0 l/m 3,2 km/h (1 Bft) N-NO 22 4,6 C 11,4 C 6,4 km/h (2 Bft) 95,65 %
18.09.2019 09:29 11,5 C 63 % 1023,4 hPa 0,0 l/m 3,2 km/h (1 Bft) N-NO 22 4,7 C 11,5 C 8,0 km/h (2 Bft) 100,00 %
18.09.2019 09:28 11,6 C 63 % 1023,4 hPa 0,0 l/m 0,0 km/h (0 Bft) W-NW 292 4,8 C 11,6 C 1,6 km/h (1 Bft) 91,30 %
18.09.2019 09:27 11,6 C 62 % 1023,4 hPa 0,0 l/m 3,2 km/h (1 Bft) W-NW 292 4,6 C 11,6 C 4,8 km/h (1 Bft) 95,65 %
18.09.2019 09:26 11,7 C 62 % 1023,4 hPa 0,0 l/m 6,4 km/h (2 Bft) NW 315 4,7 C 11,7 C 9,7 km/h (2 Bft) 100,00 %
18.09.2019 09:25 11,8 C 63 % 1023,3 hPa 0,0 l/m 0,0 km/h (0 Bft) W 270 5,0 C 11,8 C 1,6 km/h (1 Bft) 100,00 %
18.09.2019 09:24 11,8 C 62 % 1023,4 hPa 0,0 l/m 1,6 km/h (1 Bft) NO 45 4,8 C 11,8 C 4,8 km/h (1 Bft) 95,65 %
18.09.2019 09:23 11,8 C 63 % 1023,3 hPa 0,0 l/m 1,6 km/h (1 Bft) NO 45 5,0 C 11,8 C 3,2 km/h (1 Bft) 100,00 %
18.09.2019 09:22 11,7 C 63 % 1023,3 hPa 0,0 l/m 0,0 km/h (0 Bft) N-NW 337 4,9 C 11,7 C 1,6 km/h (1 Bft) 100,00 %
18.09.2019 09:21 11,7 C 63 % 1023,3 hPa 0,0 l/m 0,0 km/h (0 Bft) W 270 4,9 C 11,7 C 1,6 km/h (1 Bft) 91,30 %
18.09.2019 09:20 11,6 C 64 % 1023,3 hPa 0,0 l/m 0,0 km/h (0 Bft) O-NO 67 5,0 C 11,6 C 1,6 km/h (1 Bft) 91,30 %
18.09.2019 09:19 11,6 C 63 % 1023,3 hPa 0,0 l/m 0,0 km/h (0 Bft) NW 315 4,8 C 11,6 C 1,6 km/h (1 Bft) 95,65 %
18.09.2019 09:18 11,6 C 63 % 1023,2 hPa 0,0 l/m 1,6 km/h (1 Bft) W-NW 292 4,8 C 11,6 C 3,2 km/h (1 Bft) 95,65 %
18.09.2019 09:17 11,6 C 64 % 1023,2 hPa 0,0 l/m 1,6 km/h (1 Bft) NO 45 5,0 C 11,6 C 6,4 km/h (2 Bft) 95,65 %
18.09.2019 09:16 11,6 C 63 % 1023,1 hPa 0,0 l/m 0,0 km/h (0 Bft) O-NO 67 4,8 C 11,6 C 1,6 km/h (1 Bft) 95,65 %
18.09.2019 09:15 11,6 C 63 % 1023,2 hPa 0,0 l/m 1,6 km/h (1 Bft) O 90 4,8 C 11,6 C 3,2 km/h (1 Bft) 95,65 %
18.09.2019 09:14 11,6 C 63 % 1023,2 hPa 0,0 l/m 1,6 km/h (1 Bft) W-NW 292 4,8 C 11,6 C 4,8 km/h (1 Bft) 95,65 %
18.09.2019 09:13 11,6 C 64 % 1023,2 hPa 0,0 l/m 3,2 km/h (1 Bft) NO 45 5,0 C 11,6 C 6,4 km/h (2 Bft) 95,65 %
18.09.2019 09:12 11,4 C 65 % 1023,1 hPa 0,0 l/m 0,0 km/h (0 Bft) NO 45 5,1 C 11,4 C 3,2 km/h (1 Bft) 100,00 %
18.09.2019 09:11 11,3 C 65 % 1023,2 hPa 0,0 l/m 0,0 km/h (0 Bft) O 90 5,0 C 11,3 C 1,6 km/h (1 Bft) 91,30 %
18.09.2019 09:10 11,2 C 64 % 1023,3 hPa 0,0 l/m 0,0 km/h (0 Bft) N 0 4,6 C 11,2 C 0,0 km/h (0 Bft) 95,65 %
18.09.2019 09:09 11,2 C 64 % 1023,2 hPa 0,0 l/m 0,0 km/h (0 Bft) N 0 4,6 C 11,2 C 0,0 km/h (0 Bft) 95,65 %
18.09.2019 09:08 11,2 C 64 % 1023,2 hPa 0,0 l/m 3,2 km/h (1 Bft) N-NW 337 4,6 C 11,2 C 4,8 km/h (1 Bft) 95,65 %
18.09.2019 09:07 11,3 C 65 % 1023,1 hPa 0,0 l/m 1,6 km/h (1 Bft) NO 45 5,0 C 11,3 C 3,2 km/h (1 Bft) 100,00 %
18.09.2019 09:06 11,3 C 63 % 1023,1 hPa 0,0 l/m 4,8 km/h (1 Bft) N-NO 22 4,5 C 11,3 C 8,0 km/h (2 Bft) 91,30 %
18.09.2019 09:05 11,4 C 66 % 1023,2 hPa 0,0 l/m 4,8 km/h (1 Bft) NO 45 5,3 C 11,4 C 9,7 km/h (2 Bft) 95,65 %
18.09.2019 09:04 11,3 C 67 % 1023,1 hPa 0,0 l/m 3,2 km/h (1 Bft) O-NO 67 5,4 C 11,3 C 6,4 km/h (2 Bft) 95,65 %
18.09.2019 09:03 11,2 C 67 % 1023,1 hPa 0,0 l/m 0,0 km/h (0 Bft) O-NO 67 5,3 C 11,2 C 1,6 km/h (1 Bft) 91,30 %
18.09.2019 09:02 11,2 C 66 % 1023,1 hPa 0,0 l/m 0,0 km/h (0 Bft) W-NW 292 5,1 C 11,2 C 1,6 km/h (1 Bft) 100,00 %
18.09.2019 09:01 11,1 C 66 % 1023,0 hPa 0,0 l/m 0,0 km/h (0 Bft) N-NO 22 5,0 C 11,1 C 1,6 km/h (1 Bft) 95,65 %
18.09.2019 09:00 11,1 C 65 % 1023,1 hPa 0,0 l/m 3,2 km/h (1 Bft) N-NO 22 4,8 C 11,1 C 6,4 km/h (2 Bft) 100,00 %
18.09.2019 08:59 11,1 C 66 % 1023,1 hPa 0,0 l/m 1,6 km/h (1 Bft) O-NO 67 5,0 C 11,1 C 4,8 km/h (1 Bft) 95,65 %
18.09.2019 08:58 11,1 C 65 % 1023,1 hPa 0,0 l/m 4,8 km/h (1 Bft) N-NW 337 4,8 C 11,1 C 9,7 km/h (2 Bft) 95,65 %
18.09.2019 08:57 11,1 C 67 % 1023,1 hPa 0,0 l/m 1,6 km/h (1 Bft) N-NO 22 5,2 C 11,1 C 9,7 km/h (2 Bft) 91,30 %
18.09.2019 08:56 11,0 C 67 % 1023,1 hPa 0,0 l/m 0,0 km/h (0 Bft) NO 45 5,1 C 11,0 C 1,6 km/h (1 Bft) 95,65 %
18.09.2019 08:55 10,9 C 67 % 1023,0 hPa 0,0 l/m 1,6 km/h (1 Bft) N-NO 22 5,0 C 10,9 C 4,8 km/h (1 Bft) 100,00 %
18.09.2019 08:54 10,8 C 68 % 1023,0 hPa 0,0 l/m 0,0 km/h (0 Bft) NO 45 5,1 C 10,8 C 3,2 km/h (1 Bft) 91,30 %
18.09.2019 08:53 10,8 C 67 % 1023,0 hPa 0,0 l/m 1,6 km/h (1 Bft) N 360 4,9 C 10,8 C 6,4 km/h (2 Bft) 100,00 %
18.09.2019 08:52 10,8 C 68 % 1022,9 hPa 0,0 l/m 3,2 km/h (1 Bft) N-NO 22 5,1 C 10,8 C 6,4 km/h (2 Bft) 95,65 %
18.09.2019 08:51 10,7 C 69 % 1023,0 hPa 0,0 l/m 1,6 km/h (1 Bft) NO 45 5,2 C 10,7 C 3,2 km/h (1 Bft) 95,65 %
18.09.2019 08:50 10,6 C 69 % 1023,0 hPa 0,0 l/m 3,2 km/h (1 Bft) NW 315 5,2 C 10,6 C 4,8 km/h (1 Bft) 95,65 %
18.09.2019 08:49 10,6 C 69 % 1022,8 hPa 0,0 l/m 6,4 km/h (2 Bft) NO 45 5,2 C 10,6 C 12,9 km/h (3 Bft) 95,65 %
18.09.2019 08:48 10,4 C 69 % 1022,8 hPa 0,0 l/m 3,2 km/h (1 Bft) NO 45 5,0 C 10,4 C 6,4 km/h (2 Bft) 100,00 %
18.09.2019 08:47 10,4 C 70 % 1022,9 hPa 0,0 l/m 3,2 km/h (1 Bft) NO 45 5,2 C 10,4 C 6,4 km/h (2 Bft) 91,30 %
18.09.2019 08:46 10,4 C 69 % 1022,9 hPa 0,0 l/m 3,2 km/h (1 Bft) W-NW 292 5,0 C 10,4 C 6,4 km/h (2 Bft) 91,30 %
18.09.2019 08:45 10,4 C 70 % 1022,8 hPa 0,0 l/m 3,2 km/h (1 Bft) W-NW 292 5,2 C 10,4 C 8,0 km/h (2 Bft) 100,00 %
18.09.2019 08:44 10,4 C 70 % 1022,8 hPa 0,0 l/m 3,2 km/h (1 Bft) N 360 5,2 C 10,4 C 4,8 km/h (1 Bft) 95,65 %
18.09.2019 08:43 10,3 C 72 % 1022,8 hPa 0,0 l/m 1,6 km/h (1 Bft) NO 45 5,5 C 10,3 C 3,2 km/h (1 Bft) 95,65 %
18.09.2019 08:42 10,3 C 71 % 1022,8 hPa 0,0 l/m 4,8 km/h (1 Bft) NW 315 5,3 C 10,3 C 8,0 km/h (2 Bft) 91,30 %
18.09.2019 08:41 10,3 C 72 % 1022,8 hPa 0,0 l/m 1,6 km/h (1 Bft) NW 315 5,5 C 10,3 C 6,4 km/h (2 Bft) 100,00 %
18.09.2019 08:40 10,2 C 72 % 1022,8 hPa 0,0 l/m 3,2 km/h (1 Bft) NW 315 5,4 C 10,2 C 9,7 km/h (2 Bft) 95,65 %
18.09.2019 08:39 10,2 C 73 % 1022,8 hPa 0,0 l/m 1,6 km/h (1 Bft) NW 315 5,6 C 10,2 C 3,2 km/h (1 Bft) 91,30 %
18.09.2019 08:38 10,1 C 73 % 1022,8 hPa 0,0 l/m 3,2 km/h (1 Bft) W-NW 292 5,5 C 10,1 C 6,4 km/h (2 Bft) 100,00 %
18.09.2019 08:37 10,1 C 73 % 1022,8 hPa 0,0 l/m 1,6 km/h (1 Bft) N 360 5,5 C 10,1 C 4,8 km/h (1 Bft) 95,65 %
18.09.2019 08:36 10,1 C 72 % 1022,8 hPa 0,0 l/m 4,8 km/h (1 Bft) W-NW 292 5,3 C 10,1 C 8,0 km/h (2 Bft) 100,00 %
18.09.2019 08:35 10,0 C 73 % 1022,8 hPa 0,0 l/m 1,6 km/h (1 Bft) NW 315 5,4 C 10,0 C 1,6 km/h (1 Bft) 95,65 %
18.09.2019 08:34 9,9 C 72 % 1022,8 hPa 0,0 l/m 6,4 km/h (2 Bft) N-NW 337 5,1 C 9,9 C 12,9 km/h (3 Bft) 91,30 %
18.09.2019 08:33 10,0 C 73 % 1022,8 hPa 0,0 l/m 3,2 km/h (1 Bft) N-NO 22 5,4 C 10,0 C 8,0 km/h (2 Bft) 95,65 %
18.09.2019 08:32 10,0 C 72 % 1022,7 hPa 0,0 l/m 8,0 km/h (2 Bft) N-NW 337 5,2 C 8,9 C 11,3 km/h (2 Bft) 95,65 %
18.09.2019 08:31 10,0 C 73 % 1022,7 hPa 0,0 l/m 3,2 km/h (1 Bft) NW 315 5,4 C 10,0 C 8,0 km/h (2 Bft) 100,00 %
18.09.2019 08:30 9,9 C 73 % 1022,8 hPa 0,0 l/m 3,2 km/h (1 Bft) W-NW 292 5,3 C 9,9 C 6,4 km/h (2 Bft) 91,30 %
18.09.2019 08:29 9,9 C 75 % 1022,6 hPa 0,0 l/m 4,8 km/h (1 Bft) NW 315 5,7 C 9,9 C 8,0 km/h (2 Bft) 100,00 %
18.09.2019 08:28 9,8 C 74 % 1022,8 hPa 0,0 l/m 0,0 km/h (0 Bft) NW 315 5,4 C 9,8 C 1,6 km/h (1 Bft) 95,65 %
18.09.2019 08:27 9,8 C 74 % 1022,6 hPa 0,0 l/m 4,8 km/h (1 Bft) W-NW 292 5,4 C 9,8 C 8,0 km/h (2 Bft) 95,65 %
18.09.2019 08:26 9,8 C 75 % 1022,7 hPa 0,0 l/m 3,2 km/h (1 Bft) NW 315 5,6 C 9,8 C 6,4 km/h (2 Bft) 95,65 %
18.09.2019 08:25 9,8 C 74 % 1022,7 hPa 0,0 l/m 8,0 km/h (2 Bft) NW 315 5,4 C 8,6 C 12,9 km/h (3 Bft) 91,30 %
18.09.2019 08:24 9,8 C 74 % 1022,7 hPa 0,0 l/m 6,4 km/h (2 Bft) NW 315 5,4 C 9,8 C 11,3 km/h (2 Bft) 95,65 %
18.09.2019 08:23 9,8 C 74 % 1022,7 hPa 0,0 l/m 0,0 km/h (0 Bft) W-NW 292 5,4 C 9,8 C 1,6 km/h (1 Bft) 91,30 %
18.09.2019 08:22 9,8 C 73 % 1022,7 hPa 0,0 l/m 3,2 km/h (1 Bft) W-NW 292 5,2 C 9,8 C 4,8 km/h (1 Bft) 95,65 %
18.09.2019 08:21 9,8 C 74 % 1022,8 hPa 0,0 l/m 3,2 km/h (1 Bft) W-NW 292 5,4 C 9,8 C 8,0 km/h (2 Bft) 100,00 %
18.09.2019 08:20 9,8 C 73 % 1022,7 hPa 0,0 l/m 3,2 km/h (1 Bft) W-NW 292 5,2 C 9,8 C 8,0 km/h (2 Bft) 95,65 %
18.09.2019 08:19 9,8 C 74 % 1022,7 hPa 0,0 l/m 4,8 km/h (1 Bft) NW 315 5,4 C 9,8 C 9,7 km/h (2 Bft) 95,65 %
18.09.2019 08:18 9,8 C 75 % 1022,6 hPa 0,0 l/m 1,6 km/h (1 Bft) N-NW 337 5,6 C 9,8 C 3,2 km/h (1 Bft) 95,65 %
18.09.2019 08:17 9,7 C 74 % 1022,6 hPa 0,0 l/m 0,0 km/h (0 Bft) N 0 5,3 C 9,7 C 0,0 km/h (0 Bft) 95,65 %
18.09.2019 08:16 9,7 C 74 % 1022,6 hPa 0,0 l/m 1,6 km/h (1 Bft) NW 315 5,3 C 9,7 C 3,2 km/h (1 Bft) 91,30 %
18.09.2019 08:15 9,6 C 74 % 1022,6 hPa 0,0 l/m 4,8 km/h (1 Bft) NW 315 5,2 C 9,6 C 9,7 km/h (2 Bft) 95,65 %
18.09.2019 08:14 9,6 C 74 % 1022,6 hPa 0,0 l/m 4,8 km/h (1 Bft) W-NW 292 5,2 C 9,6 C 9,7 km/h (2 Bft) 100,00 %
18.09.2019 08:13 9,6 C 74 % 1022,6 hPa 0,0 l/m 3,2 km/h (1 Bft) N-NW 337 5,2 C 9,6 C 6,4 km/h (2 Bft) 95,65 %
18.09.2019 08:12 9,6 C 74 % 1022,6 hPa 0,0 l/m 4,8 km/h (1 Bft) N-NW 337 5,2 C 9,6 C 9,7 km/h (2 Bft) 100,00 %
18.09.2019 08:11 9,6 C 73 % 1022,5 hPa 0,0 l/m 4,8 km/h (1 Bft) N-NW 337 5,0 C 9,6 C 11,3 km/h (2 Bft) 91,30 %
18.09.2019 08:10 9,6 C 73 % 1022,4 hPa 0,0 l/m 4,8 km/h (1 Bft) NW 315 5,0 C 9,6 C 6,4 km/h (2 Bft) 95,65 %
18.09.2019 08:09 9,5 C 73 % 1022,5 hPa 0,0 l/m 3,2 km/h (1 Bft) NW 315 4,9 C 9,5 C 6,4 km/h (2 Bft) 95,65 %
18.09.2019 08:08 9,5 C 73 % 1022,5 hPa 0,0 l/m 6,4 km/h (2 Bft) W-NW 292 4,9 C 9,5 C 12,9 km/h (3 Bft) 100,00 %
18.09.2019 08:07 9,5 C 74 % 1022,5 hPa 0,0 l/m 6,4 km/h (2 Bft) NW 315 5,1 C 9,5 C 9,7 km/h (2 Bft) 100,00 %
18.09.2019 08:06 9,4 C 73 % 1022,5 hPa 0,0 l/m 6,4 km/h (2 Bft) N-NW 337 4,8 C 9,4 C 11,3 km/h (2 Bft) 91,30 %
18.09.2019 08:05 9,4 C 73 % 1022,5 hPa 0,0 l/m 8,0 km/h (2 Bft) NW 315 4,8 C 8,2 C 11,3 km/h (2 Bft) 95,65 %
18.09.2019 08:04 9,4 C 74 % 1022,6 hPa 0,0 l/m 1,6 km/h (1 Bft) NW 315 5,0 C 9,4 C 6,4 km/h (2 Bft) 95,65 %
18.09.2019 08:03 9,3 C 74 % 1022,5 hPa 0,0 l/m 0,0 km/h (0 Bft) NW 315 4,9 C 9,3 C 1,6 km/h (1 Bft) 95,65 %
18.09.2019 08:02 9,3 C 74 % 1022,5 hPa 0,0 l/m 1,6 km/h (1 Bft) W-NW 292 4,9 C 9,3 C 3,2 km/h (1 Bft) 100,00 %
18.09.2019 08:01 9,2 C 74 % 1022,5 hPa 0,0 l/m 3,2 km/h (1 Bft) NW 315 4,8 C 9,2 C 4,8 km/h (1 Bft) 95,65 %
18.09.2019 08:00 9,2 C 74 % 1022,4 hPa 0,0 l/m 1,6 km/h (1 Bft) N 360 4,8 C 9,2 C 4,8 km/h (1 Bft) 95,65 %
18.09.2019 07:59 9,2 C 74 % 1022,5 hPa 0,0 l/m 0,0 km/h (0 Bft) N 0 4,8 C 9,2 C 0,0 km/h (0 Bft) 91,30 %
18.09.2019 07:58 9,1 C 74 % 1022,4 hPa 0,0 l/m 0,0 km/h (0 Bft) N 0 4,7 C 9,1 C 0,0 km/h (0 Bft) 91,30 %
18.09.2019 07:57 9,1 C 74 % 1022,4 hPa 0,0 l/m 0,0 km/h (0 Bft) N 0 4,7 C 9,1 C 0,0 km/h (0 Bft) 95,65 %
18.09.2019 07:56 9,1 C 74 % 1022,4 hPa 0,0 l/m 1,6 km/h (1 Bft) NW 315 4,7 C 9,1 C 3,2 km/h (1 Bft) 100,00 %
18.09.2019 07:55 9,0 C 73 % 1022,4 hPa 0,0 l/m 3,2 km/h (1 Bft) NW 315 4,4 C 9,0 C 4,8 km/h (1 Bft) 100,00 %
18.09.2019 07:54 9,0 C 74 % 1022,4 hPa 0,0 l/m 3,2 km/h (1 Bft) NW 315 4,6 C 9,0 C 6,4 km/h (2 Bft) 100,00 %
18.09.2019 07:53 9,0 C 74 % 1022,4 hPa 0,0 l/m 3,2 km/h (1 Bft) NW 315 4,6 C 9,0 C 4,8 km/h (1 Bft) 91,30 %
18.09.2019 07:52 9,0 C 74 % 1022,4 hPa 0,0 l/m 1,6 km/h (1 Bft) W-NW 292 4,6 C 9,0 C 3,2 km/h (1 Bft) 100,00 %
18.09.2019 07:51 9,0 C 73 % 1022,4 hPa 0,0 l/m 3,2 km/h (1 Bft) NW 315 4,4 C 9,0 C 6,4 km/h (2 Bft) 91,30 %
18.09.2019 07:50 8,9 C 73 % 1022,4 hPa 0,0 l/m 4,8 km/h (1 Bft) NW 315 4,3 C 8,9 C 6,4 km/h (2 Bft) 100,00 %
18.09.2019 07:49 9,0 C 73 % 1022,4 hPa 0,0 l/m 3,2 km/h (1 Bft) NW 315 4,4 C 9,0 C 4,8 km/h (1 Bft) 95,65 %
18.09.2019 07:48 9,0 C 73 % 1022,4 hPa 0,0 l/m 1,6 km/h (1 Bft) NW 315 4,4 C 9,0 C 4,8 km/h (1 Bft) 100,00 %
18.09.2019 07:47 9,0 C 73 % 1022,3 hPa 0,0 l/m 1,6 km/h (1 Bft) N-NW 337 4,4 C 9,0 C 1,6 km/h (1 Bft) 95,65 %
18.09.2019 07:46 9,0 C 71 % 1022,4 hPa 0,0 l/m 1,6 km/h (1 Bft) W-NW 292 4,0 C 9,0 C 1,6 km/h (1 Bft) 91,30 %
18.09.2019 07:45 9,0 C 71 % 1022,2 hPa 0,0 l/m 3,2 km/h (1 Bft) W-NW 292 4,0 C 9,0 C 4,8 km/h (1 Bft) 100,00 %
18.09.2019 07:44 9,0 C 72 % 1022,3 hPa 0,0 l/m 3,2 km/h (1 Bft) NW 315 4,2 C 9,0 C 4,8 km/h (1 Bft) 100,00 %
18.09.2019 07:43 9,0 C 73 % 1022,2 hPa 0,0 l/m 4,8 km/h (1 Bft) NW 315 4,4 C 9,0 C 6,4 km/h (2 Bft) 100,00 %
18.09.2019 07:42 9,1 C 72 % 1022,3 hPa 0,0 l/m 0,0 km/h (0 Bft) NO 45 4,3 C 9,1 C 1,6 km/h (1 Bft) 91,30 %
18.09.2019 07:41 9,0 C 72 % 1022,3 hPa 0,0 l/m 1,6 km/h (1 Bft) W-SW 247 4,2 C 9,0 C 4,8 km/h (1 Bft) 95,65 %
18.09.2019 07:40 9,1 C 73 % 1022,3 hPa 0,0 l/m 1,6 km/h (1 Bft) N 360 4,5 C 9,1 C 4,8 km/h (1 Bft) 100,00 %
18.09.2019 07:39 9,0 C 72 % 1022,4 hPa 0,0 l/m 4,8 km/h (1 Bft) W 270 4,2 C 9,0 C 11,3 km/h (2 Bft) 95,65 %
18.09.2019 07:38 9,0 C 73 % 1022,3 hPa 0,0 l/m 6,4 km/h (2 Bft) N-NW 337 4,4 C 9,0 C 16,1 km/h (3 Bft) 100,00 %
18.09.2019 07:37 8,9 C 73 % 1022,2 hPa 0,0 l/m 3,2 km/h (1 Bft) NW 315 4,3 C 8,9 C 4,8 km/h (1 Bft) 95,65 %
18.09.2019 07:36 8,9 C 73 % 1022,2 hPa 0,0 l/m 1,6 km/h (1 Bft) NW 315 4,3 C 8,9 C 4,8 km/h (1 Bft) 100,00 %
18.09.2019 07:35 8,9 C 73 % 1022,4 hPa 0,0 l/m 3,2 km/h (1 Bft) NW 315 4,3 C 8,9 C 4,8 km/h (1 Bft) 91,30 %
18.09.2019 07:34 8,9 C 74 % 1022,3 hPa 0,0 l/m 6,4 km/h (2 Bft) W-NW 292 4,5 C 8,9 C 9,7 km/h (2 Bft) 91,30 %
18.09.2019 07:33 8,9 C 74 % 1022,3 hPa 0,0 l/m 6,4 km/h (2 Bft) NW 315 4,5 C 8,9 C 9,7 km/h (2 Bft) 95,65 %
18.09.2019 07:32 8,8 C 74 % 1022,2 hPa 0,0 l/m 3,2 km/h (1 Bft) W-NW 292 4,4 C 8,8 C 4,8 km/h (1 Bft) 95,65 %
18.09.2019 07:31 8,8 C 74 % 1022,3 hPa 0,0 l/m 3,2 km/h (1 Bft) NW 315 4,4 C 8,8 C 4,8 km/h (1 Bft) 100,00 %
18.09.2019 07:30 8,8 C 74 % 1022,2 hPa 0,0 l/m 3,2 km/h (1 Bft) W-NW 292 4,4 C 8,8 C 4,8 km/h (1 Bft) 91,30 %
18.09.2019 07:29 8,8 C 74 % 1022,2 hPa 0,0 l/m 4,8 km/h (1 Bft) W-NW 292 4,4 C 8,8 C 6,4 km/h (2 Bft) 95,65 %
18.09.2019 07:28 8,8 C 75 % 1022,3 hPa 0,0 l/m 3,2 km/h (1 Bft) W 270 4,6 C 8,8 C 4,8 km/h (1 Bft) 100,00 %
18.09.2019 07:27 8,7 C 75 % 1022,3 hPa 0,0 l/m 1,6 km/h (1 Bft) W-NW 292 4,5 C 8,7 C 3,2 km/h (1 Bft) 95,65 %
18.09.2019 07:26 8,7 C 74 % 1022,3 hPa 0,0 l/m 4,8 km/h (1 Bft) NW 315 4,3 C 8,7 C 4,8 km/h (1 Bft) 100,00 %
18.09.2019 07:25 8,8 C 75 % 1022,3 hPa 0,0 l/m 3,2 km/h (1 Bft) NW 315 4,6 C 8,8 C 4,8 km/h (1 Bft) 100,00 %
18.09.2019 07:24 8,7 C 75 % 1022,3 hPa 0,0 l/m 3,2 km/h (1 Bft) W-NW 292 4,5 C 8,7 C 4,8 km/h (1 Bft) 100,00 %
18.09.2019 07:23 8,7 C 75 % 1022,3 hPa 0,0 l/m 4,8 km/h (1 Bft) W-NW 292 4,5 C 8,7 C 8,0 km/h (2 Bft) 95,65 %
18.09.2019 07:22 8,7 C 75 % 1022,3 hPa 0,0 l/m 4,8 km/h (1 Bft) NW 315 4,5 C 8,7 C 9,7 km/h (2 Bft) 95,65 %
18.09.2019 07:21 8,7 C 75 % 1022,3 hPa 0,0 l/m 4,8 km/h (1 Bft) NW 315 4,5 C 8,7 C 11,3 km/h (2 Bft) 100,00 %
18.09.2019 07:20 8,7 C 75 % 1022,2 hPa 0,0 l/m 4,8 km/h (1 Bft) N-NW 337 4,5 C 8,7 C 6,4 km/h (2 Bft) 95,65 %
18.09.2019 07:19 8,7 C 75 % 1022,3 hPa 0,0 l/m 3,2 km/h (1 Bft) NW 315 4,5 C 8,7 C 6,4 km/h (2 Bft) 95,65 %
18.09.2019 07:18 8,7 C 75 % 1022,1 hPa 0,0 l/m 4,8 km/h (1 Bft) NW 315 4,5 C 8,7 C 8,0 km/h (2 Bft) 91,30 %
18.09.2019 07:17 8,7 C 75 % 1022,2 hPa 0,0 l/m 3,2 km/h (1 Bft) NW 315 4,5 C 8,7 C 6,4 km/h (2 Bft) 95,65 %
18.09.2019 07:16 8,6 C 75 % 1022,2 hPa 0,0 l/m 4,8 km/h (1 Bft) NW 315 4,4 C 8,6 C 6,4 km/h (2 Bft) 95,65 %
18.09.2019 07:15 8,6 C 75 % 1022,2 hPa 0,0 l/m 3,2 km/h (1 Bft) NW 315 4,4 C 8,6 C 6,4 km/h (2 Bft) 91,30 %
18.09.2019 07:14 8,6 C 76 % 1022,2 hPa 0,0 l/m 3,2 km/h (1 Bft) NW 315 4,6 C 8,6 C 6,4 km/h (2 Bft) 95,65 %
18.09.2019 07:13 8,6 C 76 % 1022,2 hPa 0,0 l/m 6,4 km/h (2 Bft) NW 315 4,6 C 8,6 C 9,7 km/h (2 Bft) 100,00 %
18.09.2019 07:12 8,6 C 76 % 1022,1 hPa 0,0 l/m 4,8 km/h (1 Bft) NW 315 4,6 C 8,6 C 6,4 km/h (2 Bft) 100,00 %
18.09.2019 07:11 8,6 C 76 % 1022,2 hPa 0,0 l/m 3,2 km/h (1 Bft) NW 315 4,6 C 8,6 C 4,8 km/h (1 Bft) 100,00 %
18.09.2019 07:10 8,6 C 76 % 1022,2 hPa 0,0 l/m 4,8 km/h (1 Bft) NW 315 4,6 C 8,6 C 8,0 km/h (2 Bft) 91,30 %
18.09.2019 07:09 8,6 C 76 % 1022,1 hPa 0,0 l/m 1,6 km/h (1 Bft) NW 315 4,6 C 8,6 C 4,8 km/h (1 Bft) 100,00 %
18.09.2019 07:08 8,6 C 76 % 1022,2 hPa 0,0 l/m 3,2 km/h (1 Bft) NW 315 4,6 C 8,6 C 6,4 km/h (2 Bft) 95,65 %
18.09.2019 07:07 8,6 C 76 % 1022,1 hPa 0,0 l/m 3,2 km/h (1 Bft) NW 315 4,6 C 8,6 C 3,2 km/h (1 Bft) 95,65 %
18.09.2019 07:06 8,6 C 76 % 1022,2 hPa 0,0 l/m 3,2 km/h (1 Bft) NW 315 4,6 C 8,6 C 8,0 km/h (2 Bft) 95,65 %
18.09.2019 07:05 8,7 C 75 % 1022,3 hPa 0,0 l/m 1,6 km/h (1 Bft) NW 315 4,5 C 8,7 C 4,8 km/h (1 Bft) 91,30 %
18.09.2019 07:04 8,7 C 75 % 1022,2 hPa 0,0 l/m 4,8 km/h (1 Bft) NW 315 4,5 C 8,7 C 6,4 km/h (2 Bft) 95,65 %
18.09.2019 07:03 8,7 C 76 % 1022,2 hPa 0,0 l/m 3,2 km/h (1 Bft) NW 315 4,7 C 8,7 C 6,4 km/h (2 Bft) 91,30 %
18.09.2019 07:02 8,7 C 75 % 1022,1 hPa 0,0 l/m 0,0 km/h (0 Bft) W-NW 292 4,5 C 8,7 C 1,6 km/h (1 Bft) 100,00 %
18.09.2019 07:01 8,7 C 75 % 1022,1 hPa 0,0 l/m 1,6 km/h (1 Bft) NW 315 4,5 C 8,7 C 3,2 km/h (1 Bft) 95,65 %
18.09.2019 07:00 8,7 C 75 % 1022,2 hPa 0,0 l/m 4,8 km/h (1 Bft) N-NW 337 4,5 C 8,7 C 8,0 km/h (2 Bft) 95,65 %
18.09.2019 06:59 8,7 C 75 % 1022,1 hPa 0,0 l/m 4,8 km/h (1 Bft) NW 315 4,5 C 8,7 C 9,7 km/h (2 Bft) 100,00 %
18.09.2019 06:58 8,7 C 75 % 1022,1 hPa 0,0 l/m 4,8 km/h (1 Bft) N-NW 337 4,5 C 8,7 C 9,7 km/h (2 Bft) 95,65 %
18.09.2019 06:57 8,7 C 75 % 1022,2 hPa 0,0 l/m 4,8 km/h (1 Bft) NW 315 4,5 C 8,7 C 11,3 km/h (2 Bft) 100,00 %
18.09.2019 06:56 8,7 C 75 % 1022,1 hPa 0,0 l/m 3,2 km/h (1 Bft) NW 315 4,5 C 8,7 C 6,4 km/h (2 Bft) 91,30 %
18.09.2019 06:55 8,7 C 75 % 1022,2 hPa 0,0 l/m 3,2 km/h (1 Bft) NW 315 4,5 C 8,7 C 4,8 km/h (1 Bft) 95,65 %
18.09.2019 06:54 8,7 C 75 % 1022,1 hPa 0,0 l/m 4,8 km/h (1 Bft) W-NW 292 4,5 C 8,7 C 6,4 km/h (2 Bft) 95,65 %
18.09.2019 06:53 8,7 C 75 % 1022,0 hPa 0,0 l/m 1,6 km/h (1 Bft) NW 315 4,5 C 8,7 C 4,8 km/h (1 Bft) 95,65 %
18.09.2019 06:52 8,7 C 75 % 1022,0 hPa 0,0 l/m 8,0 km/h (2 Bft) NW 315 4,5 C 7,5 C 14,5 km/h (3 Bft) 100,00 %
18.09.2019 06:51 8,6 C 75 % 1022,0 hPa 0,0 l/m 6,4 km/h (2 Bft) W-NW 292 4,4 C 8,6 C 11,3 km/h (2 Bft) 95,65 %
18.09.2019 06:50 8,6 C 76 % 1022,0 hPa 0,0 l/m 4,8 km/h (1 Bft) N 360 4,6 C 8,6 C 9,7 km/h (2 Bft) 100,00 %
18.09.2019 06:49 8,6 C 76 % 1022,0 hPa 0,0 l/m 3,2 km/h (1 Bft) NW 315 4,6 C 8,6 C 6,4 km/h (2 Bft) 95,65 %
18.09.2019 06:48 8,6 C 76 % 1022,1 hPa 0,0 l/m 1,6 km/h (1 Bft) NW 315 4,6 C 8,6 C 3,2 km/h (1 Bft) 91,30 %
18.09.2019 06:47 8,6 C 76 % 1022,0 hPa 0,0 l/m 0,0 km/h (0 Bft) N-NW 337 4,6 C 8,6 C 1,6 km/h (1 Bft) 100,00 %
18.09.2019 06:46 8,6 C 76 % 1022,0 hPa 0,0 l/m 3,2 km/h (1 Bft) NW 315 4,6 C 8,6 C 4,8 km/h (1 Bft) 95,65 %
18.09.2019 06:45 8,6 C 75 % 1022,0 hPa 0,0 l/m 3,2 km/h (1 Bft) NW 315 4,4 C 8,6 C 6,4 km/h (2 Bft) 100,00 %
18.09.2019 06:44 8,7 C 76 % 1022,0 hPa 0,0 l/m 3,2 km/h (1 Bft) NW 315 4,7 C 8,7 C 6,4 km/h (2 Bft) 95,65 %
18.09.2019 06:43 8,7 C 76 % 1022,0 hPa 0,0 l/m 3,2 km/h (1 Bft) NW 315 4,7 C 8,7 C 6,4 km/h (2 Bft) 100,00 %
18.09.2019 06:42 8,7 C 76 % 1022,0 hPa 0,0 l/m 1,6 km/h (1 Bft) NW 315 4,7 C 8,7 C 3,2 km/h (1 Bft) 100,00 %
18.09.2019 06:41 8,7 C 76 % 1022,0 hPa 0,0 l/m 3,2 km/h (1 Bft) NW 315 4,7 C 8,7 C 4,8 km/h (1 Bft) 95,65 %
18.09.2019 06:40 8,7 C 76 % 1022,0 hPa 0,0 l/m 4,8 km/h (1 Bft) NW 315 4,7 C 8,7 C 8,0 km/h (2 Bft) 95,65 %
18.09.2019 06:39 8,7 C 75 % 1021,9 hPa 0,0 l/m 8,0 km/h (2 Bft) NW 315 4,5 C 7,5 C 9,7 km/h (2 Bft) 100,00 %
18.09.2019 06:38 8,7 C 76 % 1022,0 hPa 0,0 l/m 8,0 km/h (2 Bft) NW 315 4,7 C 7,5 C 12,9 km/h (3 Bft) 95,65 %
18.09.2019 06:37 8,7 C 76 % 1022,0 hPa 0,0 l/m 6,4 km/h (2 Bft) NW 315 4,7 C 8,7 C 9,7 km/h (2 Bft) 91,30 %
18.09.2019 06:36 8,7 C 76 % 1022,0 hPa 0,0 l/m 6,4 km/h (2 Bft) NW 315 4,7 C 8,7 C 9,7 km/h (2 Bft) 100,00 %
18.09.2019 06:35 8,6 C 76 % 1021,9 hPa 0,0 l/m 6,4 km/h (2 Bft) N-NW 337 4,6 C 8,6 C 9,7 km/h (2 Bft) 100,00 %
18.09.2019 06:34 8,6 C 77 % 1022,0 hPa 0,0 l/m 1,6 km/h (1 Bft) N-NO 22 4,8 C 8,6 C 3,2 km/h (1 Bft) 91,30 %
18.09.2019 06:33 8,7 C 77 % 1021,9 hPa 0,0 l/m 1,6 km/h (1 Bft) NW 315 4,9 C 8,7 C 6,4 km/h (2 Bft) 95,65 %
18.09.2019 06:32 8,7 C 77 % 1021,9 hPa 0,0 l/m 1,6 km/h (1 Bft) N-NW 337 4,9 C 8,7 C 8,0 km/h (2 Bft) 95,65 %
18.09.2019 06:31 8,7 C 77 % 1021,9 hPa 0,0 l/m 3,2 km/h (1 Bft) NW 315 4,9 C 8,7 C 6,4 km/h (2 Bft) 95,65 %
18.09.2019 06:30 8,7 C 77 % 1021,9 hPa 0,0 l/m 0,0 km/h (0 Bft) NW 315 4,9 C 8,7 C 1,6 km/h (1 Bft) 91,30 %
18.09.2019 06:29 8,8 C 77 % 1021,9 hPa 0,0 l/m 1,6 km/h (1 Bft) N-NW 337 5,0 C 8,8 C 4,8 km/h (1 Bft) 95,65 %
18.09.2019 06:28 8,8 C 77 % 1021,8 hPa 0,0 l/m 3,2 km/h (1 Bft) NW 315 5,0 C 8,8 C 6,4 km/h (2 Bft) 95,65 %
18.09.2019 06:27 8,9 C 76 % 1021,8 hPa 0,0 l/m 3,2 km/h (1 Bft) NW 315 4,9 C 8,9 C 6,4 km/h (2 Bft) 95,65 %
18.09.2019 06:26 8,9 C 76 % 1021,9 hPa 0,0 l/m 1,6 km/h (1 Bft) NW 315 4,9 C 8,9 C 4,8 km/h (1 Bft) 95,65 %
18.09.2019 06:25 8,9 C 76 % 1021,8 hPa 0,0 l/m 1,6 km/h (1 Bft) N-NW 337 4,9 C 8,9 C 6,4 km/h (2 Bft) 91,30 %
18.09.2019 06:24 8,9 C 76 % 1021,8 hPa 0,0 l/m 3,2 km/h (1 Bft) N-NO 22 4,9 C 8,9 C 8,0 km/h (2 Bft) 91,30 %
18.09.2019 06:23 8,9 C 76 % 1021,7 hPa 0,0 l/m 3,2 km/h (1 Bft) N-NO 22 4,9 C 8,9 C 6,4 km/h (2 Bft) 95,65 %
18.09.2019 06:22 8,9 C 76 % 1021,8 hPa 0,0 l/m 4,8 km/h (1 Bft) W-NW 292 4,9 C 8,9 C 9,7 km/h (2 Bft) 95,65 %
18.09.2019 06:21 8,9 C 77 % 1021,8 hPa 0,0 l/m 3,2 km/h (1 Bft) N 360 5,1 C 8,9 C 8,0 km/h (2 Bft) 95,65 %
18.09.2019 06:20 8,9 C 77 % 1021,7 hPa 0,0 l/m 4,8 km/h (1 Bft) NW 315 5,1 C 8,9 C 8,0 km/h (2 Bft) 95,65 %
18.09.2019 06:19 8,9 C 77 % 1021,8 hPa 0,0 l/m 6,4 km/h (2 Bft) W-NW 292 5,1 C 8,9 C 11,3 km/h (2 Bft) 100,00 %
18.09.2019 06:18 8,9 C 77 % 1021,8 hPa 0,0 l/m 8,0 km/h (2 Bft) NW 315 5,1 C 7,7 C 11,3 km/h (2 Bft) 100,00 %
18.09.2019 06:17 8,9 C 77 % 1021,7 hPa 0,0 l/m 4,8 km/h (1 Bft) NW 315 5,1 C 8,9 C 8,0 km/h (2 Bft) 95,65 %
18.09.2019 06:16 8,8 C 78 % 1021,7 hPa 0,0 l/m 4,8 km/h (1 Bft) NW 315 5,2 C 8,8 C 8,0 km/h (2 Bft) 100,00 %
18.09.2019 06:15 8,8 C 78 % 1021,7 hPa 0,0 l/m 3,2 km/h (1 Bft) NW 315 5,2 C 8,8 C 6,4 km/h (2 Bft) 95,65 %
18.09.2019 06:14 8,8 C 78 % 1021,7 hPa 0,0 l/m 3,2 km/h (1 Bft) NW 315 5,2 C 8,8 C 6,4 km/h (2 Bft) 95,65 %
18.09.2019 06:13 8,8 C 78 % 1021,7 hPa 0,0 l/m 1,6 km/h (1 Bft) NW 315 5,2 C 8,8 C 3,2 km/h (1 Bft) 95,65 %
18.09.2019 06:12 8,8 C 78 % 1021,7 hPa 0,0 l/m 4,8 km/h (1 Bft) N-NW 337 5,2 C 8,8 C 9,7 km/h (2 Bft) 95,65 %
18.09.2019 06:11 8,9 C 78 % 1021,7 hPa 0,0 l/m 3,2 km/h (1 Bft) NW 315 5,3 C 8,9 C 6,4 km/h (2 Bft) 100,00 %
18.09.2019 06:10 8,9 C 78 % 1021,7 hPa 0,0 l/m 6,4 km/h (2 Bft) W-NW 292 5,3 C 8,9 C 8,0 km/h (2 Bft) 95,65 %
18.09.2019 06:09 8,9 C 78 % 1021,7 hPa 0,0 l/m 4,8 km/h (1 Bft) NW 315 5,3 C 8,9 C 6,4 km/h (2 Bft) 100,00 %
18.09.2019 06:08 8,9 C 78 % 1021,7 hPa 0,0 l/m 6,4 km/h (2 Bft) N-NW 337 5,3 C 8,9 C 9,7 km/h (2 Bft) 91,30 %
18.09.2019 06:07 8,9 C 79 % 1021,7 hPa 0,0 l/m 6,4 km/h (2 Bft) W-NW 292 5,5 C 8,9 C 9,7 km/h (2 Bft) 91,30 %
18.09.2019 06:06 8,9 C 78 % 1021,7 hPa 0,0 l/m 4,8 km/h (1 Bft) NW 315 5,3 C 8,9 C 6,4 km/h (2 Bft) 100,00 %
18.09.2019 06:05 8,9 C 79 % 1021,7 hPa 0,0 l/m 3,2 km/h (1 Bft) NW 315 5,5 C 8,9 C 6,4 km/h (2 Bft) 91,30 %
18.09.2019 06:04 9,0 C 78 % 1021,7 hPa 0,0 l/m 0,0 km/h (0 Bft) N 360 5,4 C 9,0 C 3,2 km/h (1 Bft) 100,00 %
18.09.2019 06:03 9,0 C 78 % 1021,7 hPa 0,0 l/m 1,6 km/h (1 Bft) N 360 5,4 C 9,0 C 3,2 km/h (1 Bft) 95,65 %
18.09.2019 06:02 9,1 C 78 % 1021,6 hPa 0,0 l/m 1,6 km/h (1 Bft) N-NO 22 5,5 C 9,1 C 3,2 km/h (1 Bft) 100,00 %
18.09.2019 06:01 9,1 C 78 % 1021,6 hPa 0,0 l/m 1,6 km/h (1 Bft) N-NO 22 5,5 C 9,1 C 3,2 km/h (1 Bft) 95,65 %
18.09.2019 06:00 9,1 C 78 % 1021,7 hPa 0,0 l/m 1,6 km/h (1 Bft) N-NW 337 5,5 C 9,1 C 1,6 km/h (1 Bft) 91,30 %
18.09.2019 05:59 9,1 C 78 % 1021,6 hPa 0,0 l/m 4,8 km/h (1 Bft) NW 315 5,5 C 9,1 C 9,7 km/h (2 Bft) 100,00 %
18.09.2019 05:58 9,1 C 78 % 1021,6 hPa 0,0 l/m 1,6 km/h (1 Bft) NW 315 5,5 C 9,1 C 3,2 km/h (1 Bft) 95,65 %
18.09.2019 05:57 9,1 C 78 % 1021,6 hPa 0,0 l/m 6,4 km/h (2 Bft) NW 315 5,5 C 9,1 C 9,7 km/h (2 Bft) 95,65 %
18.09.2019 05:56 9,1 C 78 % 1021,6 hPa 0,0 l/m 3,2 km/h (1 Bft) NW 315 5,5 C 9,1 C 8,0 km/h (2 Bft) 95,65 %
18.09.2019 05:55 9,1 C 78 % 1021,6 hPa 0,0 l/m 1,6 km/h (1 Bft) NW 315 5,5 C 9,1 C 3,2 km/h (1 Bft) 95,65 %
18.09.2019 05:54 9,1 C 78 % 1021,5 hPa 0,0 l/m 3,2 km/h (1 Bft) N 360 5,5 C 9,1 C 4,8 km/h (1 Bft) 100,00 %
18.09.2019 05:53 9,1 C 78 % 1021,6 hPa 0,0 l/m 3,2 km/h (1 Bft) N-NW 337 5,5 C 9,1 C 4,8 km/h (1 Bft) 95,65 %
18.09.2019 05:52 9,2 C 78 % 1021,5 hPa 0,0 l/m 1,6 km/h (1 Bft) NW 315 5,6 C 9,2 C 3,2 km/h (1 Bft) 95,65 %
18.09.2019 05:51 9,2 C 78 % 1021,5 hPa 0,0 l/m 4,8 km/h (1 Bft) N-NW 337 5,6 C 9,2 C 9,7 km/h (2 Bft) 95,65 %
18.09.2019 05:50 9,2 C 78 % 1021,6 hPa 0,0 l/m 3,2 km/h (1 Bft) NW 315 5,6 C 9,2 C 4,8 km/h (1 Bft) 95,65 %
18.09.2019 05:49 9,2 C 78 % 1021,4 hPa 0,0 l/m 1,6 km/h (1 Bft) NW 315 5,6 C 9,2 C 3,2 km/h (1 Bft) 95,65 %
18.09.2019 05:48 9,2 C 78 % 1021,5 hPa 0,0 l/m 0,0 km/h (0 Bft) W-NW 292 5,6 C 9,2 C 1,6 km/h (1 Bft) 95,65 %
18.09.2019 05:47 9,2 C 78 % 1021,6 hPa 0,0 l/m 3,2 km/h (1 Bft) W-NW 292 5,6 C 9,2 C 4,8 km/h (1 Bft) 100,00 %
18.09.2019 05:46 9,2 C 78 % 1021,5 hPa 0,0 l/m 6,4 km/h (2 Bft) NW 315 5,6 C 9,2 C 11,3 km/h (2 Bft) 100,00 %
18.09.2019 05:45 9,2 C 78 % 1021,4 hPa 0,0 l/m 3,2 km/h (1 Bft) NW 315 5,6 C 9,2 C 9,7 km/h (2 Bft) 100,00 %
18.09.2019 05:44 9,2 C 78 % 1021,5 hPa 0,0 l/m 1,6 km/h (1 Bft) N-NW 337 5,6 C 9,2 C 4,8 km/h (1 Bft) 91,30 %
18.09.2019 05:43 9,2 C 78 % 1021,5 hPa 0,0 l/m 6,4 km/h (2 Bft) NW 315 5,6 C 9,2 C 9,7 km/h (2 Bft) 91,30 %
18.09.2019 05:42 9,3 C 78 % 1021,6 hPa 0,0 l/m 3,2 km/h (1 Bft) NW 315 5,7 C 9,3 C 4,8 km/h (1 Bft) 95,65 %
18.09.2019 05:41 9,3 C 78 % 1021,5 hPa 0,0 l/m 3,2 km/h (1 Bft) NW 315 5,7 C 9,3 C 4,8 km/h (1 Bft) 91,30 %
18.09.2019 05:40 9,3 C 78 % 1021,5 hPa 0,0 l/m 0,0 km/h (0 Bft) N-NW 337 5,7 C 9,3 C 1,6 km/h (1 Bft) 100,00 %
18.09.2019 05:39 9,3 C 78 % 1021,5 hPa 0,0 l/m 0,0 km/h (0 Bft) N-NW 337 5,7 C 9,3 C 1,6 km/h (1 Bft) 95,65 %
18.09.2019 05:38 9,4 C 78 % 1021,5 hPa 0,0 l/m 3,2 km/h (1 Bft) N-NW 337 5,8 C 9,4 C 6,4 km/h (2 Bft) 100,00 %
18.09.2019 05:37 9,4 C 78 % 1021,5 hPa 0,0 l/m 3,2 km/h (1 Bft) NW 315 5,8 C 9,4 C 8,0 km/h (2 Bft) 91,30 %
18.09.2019 05:36 9,4 C 78 % 1021,5 hPa 0,0 l/m 3,2 km/h (1 Bft) N-NW 337 5,8 C 9,4 C 9,7 km/h (2 Bft) 95,65 %
18.09.2019 05:35 9,4 C 78 % 1021,4 hPa 0,0 l/m 0,0 km/h (0 Bft) NW 315 5,8 C 9,4 C 1,6 km/h (1 Bft) 100,00 %
18.09.2019 05:34 9,5 C 78 % 1021,5 hPa 0,0 l/m 4,8 km/h (1 Bft) N-NO 22 5,9 C 9,5 C 6,4 km/h (2 Bft) 95,65 %
18.09.2019 05:33 9,5 C 78 % 1021,5 hPa 0,0 l/m 6,4 km/h (2 Bft) W-NW 292 5,9 C 9,5 C 9,7 km/h (2 Bft) 100,00 %
18.09.2019 05:32 9,5 C 78 % 1021,4 hPa 0,0 l/m 1,6 km/h (1 Bft) NW 315 5,9 C 9,5 C 3,2 km/h (1 Bft) 91,30 %
18.09.2019 05:31 9,5 C 78 % 1021,4 hPa 0,0 l/m 3,2 km/h (1 Bft) N 360 5,9 C 9,5 C 6,4 km/h (2 Bft) 95,65 %
18.09.2019 05:30 9,6 C 78 % 1021,4 hPa 0,0 l/m 3,2 km/h (1 Bft) NO 45 6,0 C 9,6 C 4,8 km/h (1 Bft) 95,65 %
18.09.2019 05:29 9,6 C 78 % 1021,4 hPa 0,0 l/m 1,6 km/h (1 Bft) NW 315 6,0 C 9,6 C 6,4 km/h (2 Bft) 95,65 %
18.09.2019 05:28 9,6 C 77 % 1021,3 hPa 0,0 l/m 1,6 km/h (1 Bft) N 360 5,8 C 9,6 C 3,2 km/h (1 Bft) 100,00 %
18.09.2019 05:27 9,6 C 78 % 1021,3 hPa 0,0 l/m 3,2 km/h (1 Bft) NW 315 6,0 C 9,6 C 4,8 km/h (1 Bft) 91,30 %
18.09.2019 05:26 9,6 C 77 % 1021,3 hPa 0,0 l/m 1,6 km/h (1 Bft) NW 315 5,8 C 9,6 C 6,4 km/h (2 Bft) 91,30 %
18.09.2019 05:25 9,7 C 77 % 1021,3 hPa 0,0 l/m 4,8 km/h (1 Bft) W-NW 292 5,9 C 9,7 C 12,9 km/h (3 Bft) 95,65 %
18.09.2019 05:24 9,6 C 77 % 1021,3 hPa 0,0 l/m 6,4 km/h (2 Bft) NW 315 5,8 C 9,6 C 11,3 km/h (2 Bft) 100,00 %
18.09.2019 05:23 9,7 C 77 % 1021,4 hPa 0,0 l/m 4,8 km/h (1 Bft) N 360 5,9 C 9,7 C 8,0 km/h (2 Bft) 95,65 %
18.09.2019 05:22 9,7 C 77 % 1021,4 hPa 0,0 l/m 6,4 km/h (2 Bft) N-NO 22 5,9 C 9,7 C 9,7 km/h (2 Bft) 100,00 %
18.09.2019 05:21 9,6 C 77 % 1021,3 hPa 0,0 l/m 1,6 km/h (1 Bft) W-NW 292 5,8 C 9,6 C 6,4 km/h (2 Bft) 100,00 %
18.09.2019 05:20 9,6 C 77 % 1021,2 hPa 0,0 l/m 6,4 km/h (2 Bft) NW 315 5,8 C 9,6 C 11,3 km/h (2 Bft) 91,30 %
18.09.2019 05:19 9,6 C 77 % 1021,2 hPa 0,0 l/m 3,2 km/h (1 Bft) N-NO 22 5,8 C 9,6 C 9,7 km/h (2 Bft) 91,30 %
18.09.2019 05:18 9,7 C 77 % 1021,2 hPa 0,0 l/m 4,8 km/h (1 Bft) NO 45 5,9 C 9,7 C 9,7 km/h (2 Bft) 95,65 %
18.09.2019 05:17 9,6 C 77 % 1021,3 hPa 0,0 l/m 3,2 km/h (1 Bft) NO 45 5,8 C 9,6 C 8,0 km/h (2 Bft) 95,65 %
18.09.2019 05:16 9,7 C 77 % 1021,2 hPa 0,0 l/m 4,8 km/h (1 Bft) N-NO 22 5,9 C 9,7 C 8,0 km/h (2 Bft) 100,00 %
18.09.2019 05:15 9,7 C 78 % 1021,2 hPa 0,0 l/m 3,2 km/h (1 Bft) NO 45 6,1 C 9,7 C 8,0 km/h (2 Bft) 91,30 %
18.09.2019 05:14 9,7 C 78 % 1021,1 hPa 0,0 l/m 1,6 km/h (1 Bft) N-NO 22 6,1 C 9,7 C 3,2 km/h (1 Bft) 95,65 %
18.09.2019 05:13 9,7 C 78 % 1021,2 hPa 0,0 l/m 3,2 km/h (1 Bft) NO 45 6,1 C 9,7 C 8,0 km/h (2 Bft) 100,00 %
18.09.2019 05:12 9,7 C 77 % 1021,2 hPa 0,0 l/m 3,2 km/h (1 Bft) NO 45 5,9 C 9,7 C 6,4 km/h (2 Bft) 91,30 %
18.09.2019 05:11 9,7 C 77 % 1021,1 hPa 0,0 l/m 0,0 km/h (0 Bft) O 90 5,9 C 9,7 C 1,6 km/h (1 Bft) 95,65 %
18.09.2019 05:10 9,7 C 77 % 1021,2 hPa 0,0 l/m 0,0 km/h (0 Bft) O-SO 112 5,9 C 9,7 C 1,6 km/h (1 Bft) 91,30 %
18.09.2019 05:09 9,7 C 77 % 1021,1 hPa 0,0 l/m 0,0 km/h (0 Bft) SO 135 5,9 C 9,7 C 3,2 km/h (1 Bft) 100,00 %
18.09.2019 05:08 9,7 C 77 % 1021,1 hPa 0,0 l/m 1,6 km/h (1 Bft) W-NW 292 5,9 C 9,7 C 1,6 km/h (1 Bft) 100,00 %
18.09.2019 05:07 9,7 C 77 % 1021,1 hPa 0,0 l/m 1,6 km/h (1 Bft) NW 315 5,9 C 9,7 C 4,8 km/h (1 Bft) 95,65 %
18.09.2019 05:06 9,7 C 77 % 1021,2 hPa 0,0 l/m 0,0 km/h (0 Bft) NW 315 5,9 C 9,7 C 3,2 km/h (1 Bft) 100,00 %
18.09.2019 05:05 9,7 C 77 % 1021,1 hPa 0,0 l/m 0,0 km/h (0 Bft) N 0 5,9 C 9,7 C 0,0 km/h (0 Bft) 95,65 %
18.09.2019 05:04 9,8 C 77 % 1021,0 hPa 0,0 l/m 0,0 km/h (0 Bft) N 0 6,0 C 9,8 C 0,0 km/h (0 Bft) 95,65 %
18.09.2019 05:03 9,8 C 77 % 1021,0 hPa 0,0 l/m 0,0 km/h (0 Bft) N-NO 22 6,0 C 9,8 C 1,6 km/h (1 Bft) 91,30 %
18.09.2019 05:02 9,8 C 77 % 1021,0 hPa 0,0 l/m 0,0 km/h (0 Bft) O 90 6,0 C 9,8 C 3,2 km/h (1 Bft) 91,30 %
18.09.2019 05:01 9,9 C 77 % 1020,9 hPa 0,0 l/m 0,0 km/h (0 Bft) O-SO 112 6,1 C 9,9 C 1,6 km/h (1 Bft) 43,48 %
18.09.2019 04:58 9,9 C 77 % 1020,9 hPa 0,0 l/m 1,6 km/h (1 Bft) O-SO 112 6,1 C 9,9 C 4,8 km/h (1 Bft) 100,00 %
18.09.2019 04:57 9,9 C 77 % 1020,8 hPa 0,0 l/m 1,6 km/h (1 Bft) O 90 6,1 C 9,9 C 4,8 km/h (1 Bft) 100,00 %
18.09.2019 04:56 10,0 C 77 % 1020,9 hPa 0,0 l/m 1,6 km/h (1 Bft) N-NO 22 6,2 C 10,0 C 4,8 km/h (1 Bft) 91,30 %
18.09.2019 04:55 10,0 C 77 % 1020,7 hPa 0,0 l/m 3,2 km/h (1 Bft) N 360 6,2 C 10,0 C 3,2 km/h (1 Bft) 100,00 %
18.09.2019 04:54 10,0 C 77 % 1020,8 hPa 0,0 l/m 0,0 km/h (0 Bft) O-NO 67 6,2 C 10,0 C 4,8 km/h (1 Bft) 100,00 %
18.09.2019 04:53 10,0 C 76 % 1020,7 hPa 0,0 l/m 3,2 km/h (1 Bft) N 360 6,0 C 10,0 C 9,7 km/h (2 Bft) 91,30 %
18.09.2019 04:52 10,0 C 77 % 1020,8 hPa 0,0 l/m 3,2 km/h (1 Bft) N-NW 337 6,2 C 10,0 C 6,4 km/h (2 Bft) 100,00 %
18.09.2019 04:51 10,0 C 76 % 1020,8 hPa 0,0 l/m 1,6 km/h (1 Bft) NO 45 6,0 C 10,0 C 6,4 km/h (2 Bft) 95,65 %
18.09.2019 04:50 10,0 C 76 % 1020,6 hPa 0,0 l/m 0,0 km/h (0 Bft) N-NO 22 6,0 C 10,0 C 1,6 km/h (1 Bft) 95,65 %
18.09.2019 04:49 10,1 C 76 % 1020,6 hPa 0,0 l/m 0,0 km/h (0 Bft) O 90 6,1 C 10,1 C 1,6 km/h (1 Bft) 95,65 %
18.09.2019 04:48 10,1 C 76 % 1020,6 hPa 0,0 l/m 0,0 km/h (0 Bft) N-NO 22 6,1 C 10,1 C 1,6 km/h (1 Bft) 95,65 %
18.09.2019 04:47 10,1 C 76 % 1020,5 hPa 0,0 l/m 0,0 km/h (0 Bft) N-NO 22 6,1 C 10,1 C 1,6 km/h (1 Bft) 95,65 %
18.09.2019 04:46 10,1 C 76 % 1020,6 hPa 0,0 l/m 1,6 km/h (1 Bft) NO 45 6,1 C 10,1 C 3,2 km/h (1 Bft) 91,30 %
18.09.2019 04:45 10,1 C 76 % 1020,6 hPa 0,0 l/m 1,6 km/h (1 Bft) N-NO 22 6,1 C 10,1 C 4,8 km/h (1 Bft) 95,65 %
18.09.2019 04:44 10,2 C 76 % 1020,6 hPa 0,0 l/m 0,0 km/h (0 Bft) N 0 6,2 C 10,2 C 0,0 km/h (0 Bft) 100,00 %
18.09.2019 04:43 10,2 C 76 % 1020,5 hPa 0,0 l/m 0,0 km/h (0 Bft) NO 45 6,2 C 10,2 C 1,6 km/h (1 Bft) 91,30 %
18.09.2019 04:42 10,2 C 76 % 1020,6 hPa 0,0 l/m 1,6 km/h (1 Bft) O 90 6,2 C 10,2 C 6,4 km/h (2 Bft) 95,65 %
18.09.2019 04:41 10,2 C 76 % 1020,4 hPa 0,0 l/m 0,0 km/h (0 Bft) O 90 6,2 C 10,2 C 1,6 km/h (1 Bft) 91,30 %
18.09.2019 04:40 10,3 C 76 % 1020,5 hPa 0,0 l/m 3,2 km/h (1 Bft) O 90 6,3 C 10,3 C 3,2 km/h (1 Bft) 100,00 %
18.09.2019 04:39 10,2 C 76 % 1020,5 hPa 0,0 l/m 1,6 km/h (1 Bft) O-NO 67 6,2 C 10,2 C 4,8 km/h (1 Bft) 100,00 %
18.09.2019 04:38 10,3 C 76 % 1020,5 hPa 0,0 l/m 0,0 km/h (0 Bft) O-NO 67 6,3 C 10,3 C 1,6 km/h (1 Bft) 100,00 %
18.09.2019 04:37 10,3 C 76 % 1020,5 hPa 0,0 l/m 4,8 km/h (1 Bft) O-NO 67 6,3 C 10,3 C 8,0 km/h (2 Bft) 100,00 %
18.09.2019 04:36 10,3 C 76 % 1020,6 hPa 0,0 l/m 0,0 km/h (0 Bft) SO 135 6,3 C 10,3 C 3,2 km/h (1 Bft) 95,65 %
18.09.2019 04:35 10,3 C 75 % 1020,5 hPa 0,0 l/m 3,2 km/h (1 Bft) W-NW 292 6,1 C 10,3 C 6,4 km/h (2 Bft) 100,00 %
18.09.2019 04:34 10,4 C 75 % 1020,4 hPa 0,0 l/m 0,0 km/h (0 Bft) N-NW 337 6,2 C 10,4 C 1,6 km/h (1 Bft) 100,00 %
18.09.2019 04:33 10,4 C 75 % 1020,5 hPa 0,0 l/m 0,0 km/h (0 Bft) NW 315 6,2 C 10,4 C 3,2 km/h (1 Bft) 91,30 %
18.09.2019 04:32 10,4 C 75 % 1020,6 hPa 0,0 l/m 4,8 km/h (1 Bft) N 360 6,2 C 10,4 C 8,0 km/h (2 Bft) 100,00 %
18.09.2019 04:31 10,4 C 75 % 1020,5 hPa 0,0 l/m 3,2 km/h (1 Bft) N 360 6,2 C 10,4 C 8,0 km/h (2 Bft) 95,65 %
18.09.2019 04:30 10,4 C 75 % 1020,5 hPa 0,0 l/m 0,0 km/h (0 Bft) NW 315 6,2 C 10,4 C 3,2 km/h (1 Bft) 100,00 %
18.09.2019 04:29 10,5 C 75 % 1020,5 hPa 0,0 l/m 3,2 km/h (1 Bft) O 90 6,3 C 10,5 C 4,8 km/h (1 Bft) 91,30 %
18.09.2019 04:28 10,5 C 75 % 1020,4 hPa 0,0 l/m 1,6 km/h (1 Bft) O-NO 67 6,3 C 10,5 C 3,2 km/h (1 Bft) 100,00 %
18.09.2019 04:27 10,5 C 75 % 1020,4 hPa 0,0 l/m 1,6 km/h (1 Bft) W 270 6,3 C 10,5 C 3,2 km/h (1 Bft) 95,65 %
18.09.2019 04:26 10,5 C 75 % 1020,4 hPa 0,0 l/m 1,6 km/h (1 Bft) W 270 6,3 C 10,5 C 4,8 km/h (1 Bft) 95,65 %
18.09.2019 04:25 10,5 C 75 % 1020,3 hPa 0,0 l/m 8,0 km/h (2 Bft) N-NO 22 6,3 C 9,4 C 11,3 km/h (2 Bft) 100,00 %
18.09.2019 04:24 10,5 C 75 % 1020,4 hPa 0,0 l/m 6,4 km/h (2 Bft) N-NO 22 6,3 C 10,5 C 8,0 km/h (2 Bft) 95,65 %
18.09.2019 04:23 10,5 C 75 % 1020,4 hPa 0,0 l/m 1,6 km/h (1 Bft) NW 315 6,3 C 10,5 C 4,8 km/h (1 Bft) 100,00 %
18.09.2019 04:22 10,5 C 75 % 1020,3 hPa 0,0 l/m 1,6 km/h (1 Bft) N 360 6,3 C 10,5 C 3,2 km/h (1 Bft) 95,65 %
18.09.2019 04:21 10,5 C 75 % 1020,4 hPa 0,0 l/m 4,8 km/h (1 Bft) NW 315 6,3 C 10,5 C 8,0 km/h (2 Bft) 91,30 %
18.09.2019 04:20 10,6 C 75 % 1020,4 hPa 0,0 l/m 6,4 km/h (2 Bft) NW 315 6,4 C 10,6 C 9,7 km/h (2 Bft) 95,65 %
18.09.2019 04:19 10,5 C 75 % 1020,3 hPa 0,0 l/m 1,6 km/h (1 Bft) W 270 6,3 C 10,5 C 6,4 km/h (2 Bft) 100,00 %
18.09.2019 04:18 10,6 C 75 % 1020,4 hPa 0,0 l/m 6,4 km/h (2 Bft) W 270 6,4 C 10,6 C 11,3 km/h (2 Bft) 100,00 %
18.09.2019 04:17 10,6 C 75 % 1020,4 hPa 0,0 l/m 1,6 km/h (1 Bft) NO 45 6,4 C 10,6 C 4,8 km/h (1 Bft) 95,65 %
18.09.2019 04:16 10,6 C 75 % 1020,5 hPa 0,0 l/m 1,6 km/h (1 Bft) W 270 6,4 C 10,6 C 3,2 km/h (1 Bft) 100,00 %
18.09.2019 04:15 10,6 C 75 % 1020,3 hPa 0,0 l/m 1,6 km/h (1 Bft) W-NW 292 6,4 C 10,6 C 4,8 km/h (1 Bft) 100,00 %
18.09.2019 04:14 10,6 C 75 % 1020,4 hPa 0,0 l/m 4,8 km/h (1 Bft) NO 45 6,4 C 10,6 C 11,3 km/h (2 Bft) 95,65 %
18.09.2019 04:13 10,6 C 75 % 1020,3 hPa 0,0 l/m 4,8 km/h (1 Bft) N-NO 22 6,4 C 10,6 C 12,9 km/h (3 Bft) 100,00 %
18.09.2019 04:12 10,6 C 75 % 1020,3 hPa 0,0 l/m 1,6 km/h (1 Bft) W-SW 247 6,4 C 10,6 C 3,2 km/h (1 Bft) 95,65 %
18.09.2019 04:11 10,7 C 75 % 1020,3 hPa 0,0 l/m 1,6 km/h (1 Bft) N-NO 22 6,5 C 10,7 C 6,4 km/h (2 Bft) 95,65 %
18.09.2019 04:10 10,7 C 75 % 1020,3 hPa 0,0 l/m 0,0 km/h (0 Bft) O-NO 67 6,5 C 10,7 C 1,6 km/h (1 Bft) 95,65 %
18.09.2019 04:09 10,8 C 75 % 1020,3 hPa 0,0 l/m 1,6 km/h (1 Bft) O 90 6,5 C 10,8 C 3,2 km/h (1 Bft) 95,65 %
18.09.2019 04:08 10,8 C 75 % 1020,3 hPa 0,0 l/m 0,0 km/h (0 Bft) W-NW 292 6,5 C 10,8 C 3,2 km/h (1 Bft) 100,00 %
18.09.2019 04:07 10,8 C 75 % 1020,3 hPa 0,0 l/m 3,2 km/h (1 Bft) O-NO 67 6,5 C 10,8 C 4,8 km/h (1 Bft) 95,65 %
18.09.2019 04:06 10,8 C 75 % 1020,3 hPa 0,0 l/m 1,6 km/h (1 Bft) O-SO 112 6,5 C 10,8 C 4,8 km/h (1 Bft) 100,00 %
18.09.2019 04:05 10,9 C 75 % 1020,2 hPa 0,0 l/m 3,2 km/h (1 Bft) W-NW 292 6,6 C 10,9 C 6,4 km/h (2 Bft) 95,65 %
18.09.2019 04:04 10,8 C 75 % 1020,3 hPa 0,0 l/m 4,8 km/h (1 Bft) N 360 6,5 C 10,8 C 12,9 km/h (3 Bft) 95,65 %
18.09.2019 04:03 10,9 C 75 % 1020,3 hPa 0,0 l/m 9,7 km/h (2 Bft) N-NW 337 6,6 C 8,8 C 17,7 km/h (3 Bft) 91,30 %
18.09.2019 04:02 10,9 C 75 % 1020,2 hPa 0,0 l/m 4,8 km/h (1 Bft) N-NO 22 6,6 C 10,9 C 8,0 km/h (2 Bft) 95,65 %
18.09.2019 04:01 10,9 C 75 % 1020,2 hPa 0,0 l/m 3,2 km/h (1 Bft) N 360 6,6 C 10,9 C 6,4 km/h (2 Bft) 100,00 %
18.09.2019 04:00 10,9 C 75 % 1020,3 hPa 0,0 l/m 3,2 km/h (1 Bft) N-NW 337 6,6 C 10,9 C 8,0 km/h (2 Bft) 95,65 %
18.09.2019 03:59 10,9 C 75 % 1020,3 hPa 0,0 l/m 6,4 km/h (2 Bft) N 360 6,6 C 10,9 C 12,9 km/h (3 Bft) 100,00 %
18.09.2019 03:58 10,9 C 74 % 1020,1 hPa 0,0 l/m 0,0 km/h (0 Bft) W-NW 292 6,5 C 10,9 C 4,8 km/h (1 Bft) 100,00 %
18.09.2019 03:57 10,9 C 74 % 1020,2 hPa 0,0 l/m 1,6 km/h (1 Bft) O-NO 67 6,5 C 10,9 C 8,0 km/h (2 Bft) 100,00 %
18.09.2019 03:56 10,9 C 75 % 1020,3 hPa 0,0 l/m 4,8 km/h (1 Bft) N 360 6,6 C 10,9 C 11,3 km/h (2 Bft) 95,65 %
18.09.2019 03:55 11,0 C 75 % 1020,1 hPa 0,0 l/m 0,0 km/h (0 Bft) SW 225 6,7 C 11,0 C 1,6 km/h (1 Bft) 95,65 %
18.09.2019 03:54 10,9 C 74 % 1020,2 hPa 0,0 l/m 0,0 km/h (0 Bft) N 0 6,5 C 10,9 C 0,0 km/h (0 Bft) 95,65 %
18.09.2019 03:53 10,9 C 74 % 1020,0 hPa 0,0 l/m 0,0 km/h (0 Bft) W-NW 292 6,5 C 10,9 C 19,3 km/h (3 Bft) 91,30 %
18.09.2019 03:52 11,0 C 75 % 1020,1 hPa 0,0 l/m 9,7 km/h (2 Bft) NO 45 6,7 C 8,9 C 19,3 km/h (3 Bft) 91,30 %
18.09.2019 03:51 10,9 C 75 % 1020,1 hPa 0,0 l/m 4,8 km/h (1 Bft) N-NO 22 6,6 C 10,9 C 11,3 km/h (2 Bft) 95,65 %
18.09.2019 03:50 11,0 C 75 % 1020,1 hPa 0,0 l/m 3,2 km/h (1 Bft) NO 45 6,7 C 11,0 C 6,4 km/h (2 Bft) 95,65 %
18.09.2019 03:49 11,0 C 75 % 1020,1 hPa 0,0 l/m 3,2 km/h (1 Bft) NO 45 6,7 C 11,0 C 9,7 km/h (2 Bft) 100,00 %
18.09.2019 03:48 11,0 C 75 % 1020,0 hPa 0,0 l/m 1,6 km/h (1 Bft) N-NW 337 6,7 C 11,0 C 9,7 km/h (2 Bft) 95,65 %
18.09.2019 03:47 11,0 C 75 % 1020,1 hPa 0,0 l/m 6,4 km/h (2 Bft) NW 315 6,7 C 11,0 C 12,9 km/h (3 Bft) 95,65 %
18.09.2019 03:46 11,1 C 75 % 1020,0 hPa 0,0 l/m 1,6 km/h (1 Bft) NW 315 6,8 C 11,1 C 4,8 km/h (1 Bft) 95,65 %
18.09.2019 03:45 11,1 C 75 % 1020,1 hPa 0,0 l/m 0,0 km/h (0 Bft) W-NW 292 6,8 C 11,1 C 1,6 km/h (1 Bft) 91,30 %
18.09.2019 03:44 11,1 C 75 % 1020,0 hPa 0,0 l/m 1,6 km/h (1 Bft) N 360 6,8 C 11,1 C 4,8 km/h (1 Bft) 100,00 %
18.09.2019 03:43 11,1 C 75 % 1020,1 hPa 0,0 l/m 3,2 km/h (1 Bft) O 90 6,8 C 11,1 C 6,4 km/h (2 Bft) 95,65 %
18.09.2019 03:42 11,1 C 75 % 1020,0 hPa 0,0 l/m 9,7 km/h (2 Bft) NO 45 6,8 C 9,0 C 14,5 km/h (3 Bft) 100,00 %
18.09.2019 03:41 11,1 C 75 % 1020,0 hPa 0,0 l/m 3,2 km/h (1 Bft) N 360 6,8 C 11,1 C 6,4 km/h (2 Bft) 95,65 %
18.09.2019 03:40 11,1 C 75 % 1020,0 hPa 0,0 l/m 1,6 km/h (1 Bft) O-NO 67 6,8 C 11,1 C 3,2 km/h (1 Bft) 91,30 %
18.09.2019 03:39 11,1 C 75 % 1019,9 hPa 0,0 l/m 1,6 km/h (1 Bft) S 180 6,8 C 11,1 C 4,8 km/h (1 Bft) 100,00 %
18.09.2019 03:38 11,2 C 75 % 1019,9 hPa 0,0 l/m 1,6 km/h (1 Bft) O 90 6,9 C 11,2 C 4,8 km/h (1 Bft) 91,30 %
18.09.2019 03:37 11,2 C 75 % 1019,9 hPa 0,0 l/m 1,6 km/h (1 Bft) O-SO 112 6,9 C 11,2 C 3,2 km/h (1 Bft) 100,00 %
18.09.2019 03:36 11,2 C 75 % 1019,9 hPa 0,0 l/m 1,6 km/h (1 Bft) O 90 6,9 C 11,2 C 4,8 km/h (1 Bft) 95,65 %
18.09.2019 03:35 11,2 C 75 % 1019,9 hPa 0,0 l/m 1,6 km/h (1 Bft) N 360 6,9 C 11,2 C 4,8 km/h (1 Bft) 100,00 %
18.09.2019 03:34 11,2 C 75 % 1019,9 hPa 0,0 l/m 8,0 km/h (2 Bft) N-NO 22 6,9 C 10,1 C 11,3 km/h (2 Bft) 95,65 %
18.09.2019 03:33 11,2 C 75 % 1019,8 hPa 0,0 l/m 4,8 km/h (1 Bft) N-NO 22 6,9 C 11,2 C 11,3 km/h (2 Bft) 91,30 %
18.09.2019 03:32 11,2 C 75 % 1019,9 hPa 0,0 l/m 3,2 km/h (1 Bft) NO 45 6,9 C 11,2 C 8,0 km/h (2 Bft) 95,65 %
18.09.2019 03:31 11,2 C 75 % 1019,8 hPa 0,0 l/m 6,4 km/h (2 Bft) NO 45 6,9 C 11,2 C 8,0 km/h (2 Bft) 91,30 %
18.09.2019 03:30 11,2 C 75 % 1019,8 hPa 0,0 l/m 1,6 km/h (1 Bft) O 90 6,9 C 11,2 C 4,8 km/h (1 Bft) 100,00 %
18.09.2019 03:29 11,2 C 75 % 1019,8 hPa 0,0 l/m 1,6 km/h (1 Bft) O 90 6,9 C 11,2 C 3,2 km/h (1 Bft) 91,30 %
18.09.2019 03:28 11,2 C 75 % 1019,8 hPa 0,0 l/m 1,6 km/h (1 Bft) NW 315 6,9 C 11,2 C 3,2 km/h (1 Bft) 91,30 %
18.09.2019 03:27 11,2 C 75 % 1019,6 hPa 0,0 l/m 3,2 km/h (1 Bft) W-NW 292 6,9 C 11,2 C 4,8 km/h (1 Bft) 100,00 %
18.09.2019 03:26 11,2 C 75 % 1019,7 hPa 0,0 l/m 3,2 km/h (1 Bft) SO 135 6,9 C 11,2 C 4,8 km/h (1 Bft) 95,65 %
18.09.2019 03:25 11,2 C 75 % 1019,7 hPa 0,0 l/m 1,6 km/h (1 Bft) NW 315 6,9 C 11,2 C 4,8 km/h (1 Bft) 100,00 %
18.09.2019 03:24 11,2 C 75 % 1019,7 hPa 0,0 l/m 1,6 km/h (1 Bft) N-NW 337 6,9 C 11,2 C 3,2 km/h (1 Bft) 91,30 %
18.09.2019 03:23 11,3 C 75 % 1019,8 hPa 0,0 l/m 1,6 km/h (1 Bft) O 90 7,0 C 11,3 C 1,6 km/h (1 Bft) 100,00 %
18.09.2019 03:22 11,3 C 75 % 1019,7 hPa 0,0 l/m 1,6 km/h (1 Bft) N-NW 337 7,0 C 11,3 C 8,0 km/h (2 Bft) 95,65 %
18.09.2019 03:21 11,3 C 74 % 1019,7 hPa 0,0 l/m 4,8 km/h (1 Bft) NO 45 6,8 C 11,3 C 6,4 km/h (2 Bft) 95,65 %
18.09.2019 03:20 11,3 C 74 % 1019,7 hPa 0,0 l/m 4,8 km/h (1 Bft) N-NW 337 6,8 C 11,3 C 9,7 km/h (2 Bft) 100,00 %
18.09.2019 03:19 11,3 C 74 % 1019,7 hPa 0,0 l/m 3,2 km/h (1 Bft) NO 45 6,8 C 11,3 C 9,7 km/h (2 Bft) 95,65 %
18.09.2019 03:18 11,4 C 74 % 1019,7 hPa 0,0 l/m 0,0 km/h (0 Bft) N 360 6,9 C 11,4 C 1,6 km/h (1 Bft) 100,00 %
18.09.2019 03:17 11,4 C 74 % 1019,8 hPa 0,0 l/m 1,6 km/h (1 Bft) NO 45 6,9 C 11,4 C 4,8 km/h (1 Bft) 95,65 %
18.09.2019 03:16 11,4 C 74 % 1019,7 hPa 0,0 l/m 0,0 km/h (0 Bft) SO 135 6,9 C 11,4 C 1,6 km/h (1 Bft) 91,30 %
18.09.2019 03:15 11,5 C 74 % 1019,8 hPa 0,0 l/m 1,6 km/h (1 Bft) NW 315 7,0 C 11,5 C 3,2 km/h (1 Bft) 100,00 %
18.09.2019 03:14 11,5 C 74 % 1019,7 hPa 0,0 l/m 3,2 km/h (1 Bft) NO 45 7,0 C 11,5 C 8,0 km/h (2 Bft) 95,65 %
18.09.2019 03:13 11,5 C 74 % 1019,6 hPa 0,0 l/m 0,0 km/h (0 Bft) N-NO 22 7,0 C 11,5 C 1,6 km/h (1 Bft) 100,00 %
18.09.2019 03:12 11,5 C 73 % 1019,6 hPa 0,0 l/m 3,2 km/h (1 Bft) NO 45 6,8 C 11,5 C 6,4 km/h (2 Bft) 91,30 %
18.09.2019 03:11 11,6 C 73 % 1019,6 hPa 0,0 l/m 0,0 km/h (0 Bft) N 0 6,9 C 11,6 C 0,0 km/h (0 Bft) 100,00 %
18.09.2019 03:10 11,6 C 73 % 1019,7 hPa 0,0 l/m 1,6 km/h (1 Bft) W-SW 247 6,9 C 11,6 C 3,2 km/h (1 Bft) 91,30 %
18.09.2019 03:09 11,6 C 74 % 1019,6 hPa 0,0 l/m 1,6 km/h (1 Bft) N-NO 22 7,1 C 11,6 C 4,8 km/h (1 Bft) 91,30 %
18.09.2019 03:08 11,6 C 73 % 1019,6 hPa 0,0 l/m 0,0 km/h (0 Bft) NW 315 6,9 C 11,6 C 1,6 km/h (1 Bft) 100,00 %
18.09.2019 03:07 11,6 C 73 % 1019,6 hPa 0,0 l/m 4,8 km/h (1 Bft) N 360 6,9 C 11,6 C 8,0 km/h (2 Bft) 95,65 %
18.09.2019 03:06 11,6 C 73 % 1019,6 hPa 0,0 l/m 8,0 km/h (2 Bft) N 360 6,9 C 10,5 C 14,5 km/h (3 Bft) 95,65 %
18.09.2019 03:05 11,6 C 74 % 1019,6 hPa 0,0 l/m 3,2 km/h (1 Bft) NO 45 7,1 C 11,6 C 8,0 km/h (2 Bft) 91,30 %
18.09.2019 03:04 11,6 C 74 % 1019,6 hPa 0,0 l/m 4,8 km/h (1 Bft) N-NO 22 7,1 C 11,6 C 9,7 km/h (2 Bft) 73,91 %
18.09.2019 03:03 11,7 C 74 % 1019,6 hPa 0,0 l/m 8,0 km/h (2 Bft) N-NO 22 7,2 C 10,6 C 9,7 km/h (2 Bft) 21,74 %
18.09.2019 03:01 11,7 C 73 % 1019,6 hPa 0,0 l/m 1,6 km/h (1 Bft) O-NO 67 7,0 C 11,7 C 4,8 km/h (1 Bft) 100,00 %
18.09.2019 03:00 11,7 C 73 % 1019,6 hPa 0,0 l/m 0,0 km/h (0 Bft) O 90 7,0 C 11,7 C 1,6 km/h (1 Bft) 95,65 %
18.09.2019 02:59 11,7 C 73 % 1019,5 hPa 0,0 l/m 0,0 km/h (0 Bft) O-SO 112 7,0 C 11,7 C 1,6 km/h (1 Bft) 91,30 %
18.09.2019 02:58 11,8 C 73 % 1019,6 hPa 0,0 l/m 4,8 km/h (1 Bft) W-NW 292 7,1 C 11,8 C 11,3 km/h (2 Bft) 100,00 %
18.09.2019 02:57 11,8 C 73 % 1019,5 hPa 0,0 l/m 3,2 km/h (1 Bft) W 270 7,1 C 11,8 C 8,0 km/h (2 Bft) 95,65 %
18.09.2019 02:56 11,8 C 73 % 1019,5 hPa 0,0 l/m 1,6 km/h (1 Bft) N 360 7,1 C 11,8 C 3,2 km/h (1 Bft) 100,00 %
18.09.2019 02:55 11,8 C 73 % 1019,5 hPa 0,0 l/m 1,6 km/h (1 Bft) N-NW 337 7,1 C 11,8 C 3,2 km/h (1 Bft) 91,30 %
18.09.2019 02:54 11,8 C 73 % 1019,5 hPa 0,0 l/m 1,6 km/h (1 Bft) N-NW 337 7,1 C 11,8 C 4,8 km/h (1 Bft) 95,65 %
18.09.2019 02:53 11,8 C 73 % 1019,5 hPa 0,0 l/m 1,6 km/h (1 Bft) NW 315 7,1 C 11,8 C 4,8 km/h (1 Bft) 95,65 %
18.09.2019 02:52 11,8 C 73 % 1019,5 hPa 0,0 l/m 1,6 km/h (1 Bft) W-SW 247 7,1 C 11,8 C 3,2 km/h (1 Bft) 91,30 %
18.09.2019 02:51 11,8 C 73 % 1019,5 hPa 0,0 l/m 4,8 km/h (1 Bft) SW 225 7,1 C 11,8 C 16,1 km/h (3 Bft) 95,65 %
18.09.2019 02:50 11,9 C 73 % 1019,5 hPa 0,0 l/m 1,6 km/h (1 Bft) O-SO 112 7,2 C 11,9 C 3,2 km/h (1 Bft) 95,65 %
18.09.2019 02:49 11,9 C 73 % 1019,5 hPa 0,0 l/m 1,6 km/h (1 Bft) O-SO 112 7,2 C 11,9 C 4,8 km/h (1 Bft) 95,65 %
18.09.2019 02:48 11,9 C 73 % 1019,5 hPa 0,0 l/m 4,8 km/h (1 Bft) W-SW 247 7,2 C 11,9 C 9,7 km/h (2 Bft) 95,65 %
18.09.2019 02:47 11,9 C 73 % 1019,5 hPa 0,0 l/m 6,4 km/h (2 Bft) N-NW 337 7,2 C 11,9 C 14,5 km/h (3 Bft) 95,65 %
18.09.2019 02:46 11,9 C 73 % 1019,5 hPa 0,0 l/m 3,2 km/h (1 Bft) NW 315 7,2 C 11,9 C 9,7 km/h (2 Bft) 100,00 %
18.09.2019 02:45 11,9 C 73 % 1019,4 hPa 0,0 l/m 3,2 km/h (1 Bft) NW 315 7,2 C 11,9 C 6,4 km/h (2 Bft) 95,65 %
18.09.2019 02:44 11,9 C 73 % 1019,5 hPa 0,0 l/m 4,8 km/h (1 Bft) NW 315 7,2 C 11,9 C 9,7 km/h (2 Bft) 100,00 %
18.09.2019 02:43 11,9 C 73 % 1019,5 hPa 0,0 l/m 6,4 km/h (2 Bft) W-NW 292 7,2 C 11,9 C 9,7 km/h (2 Bft) 91,30 %
18.09.2019 02:42 11,9 C 74 % 1019,4 hPa 0,0 l/m 3,2 km/h (1 Bft) W-NW 292 7,4 C 11,9 C 6,4 km/h (2 Bft) 95,65 %
18.09.2019 02:41 11,9 C 73 % 1019,5 hPa 0,0 l/m 1,6 km/h (1 Bft) W 270 7,2 C 11,9 C 3,2 km/h (1 Bft) 91,30 %
18.09.2019 02:40 11,9 C 74 % 1019,4 hPa 0,0 l/m 1,6 km/h (1 Bft) W-SW 247 7,4 C 11,9 C 6,4 km/h (2 Bft) 100,00 %
18.09.2019 02:39 12,0 C 74 % 1019,4 hPa 0,0 l/m 0,0 km/h (0 Bft) O 90 7,5 C 12,0 C 3,2 km/h (1 Bft) 95,65 %
18.09.2019 02:38 12,0 C 74 % 1019,5 hPa 0,0 l/m 4,8 km/h (1 Bft) O 90 7,5 C 12,0 C 9,7 km/h (2 Bft) 95,65 %
18.09.2019 02:37 12,0 C 74 % 1019,4 hPa 0,0 l/m 4,8 km/h (1 Bft) O-SO 112 7,5 C 12,0 C 8,0 km/h (2 Bft) 100,00 %
18.09.2019 02:36 12,0 C 74 % 1019,4 hPa 0,0 l/m 1,6 km/h (1 Bft) NO 45 7,5 C 12,0 C 3,2 km/h (1 Bft) 95,65 %
18.09.2019 02:35 12,0 C 74 % 1019,5 hPa 0,0 l/m 1,6 km/h (1 Bft) NO 45 7,5 C 12,0 C 3,2 km/h (1 Bft) 95,65 %
18.09.2019 02:34 12,1 C 74 % 1019,4 hPa 0,0 l/m 3,2 km/h (1 Bft) NO 45 7,6 C 12,1 C 4,8 km/h (1 Bft) 95,65 %
18.09.2019 02:33 12,1 C 74 % 1019,5 hPa 0,0 l/m 4,8 km/h (1 Bft) N-NO 22 7,6 C 12,1 C 9,7 km/h (2 Bft) 91,30 %
18.09.2019 02:32 12,1 C 74 % 1019,4 hPa 0,0 l/m 3,2 km/h (1 Bft) O-NO 67 7,6 C 12,1 C 8,0 km/h (2 Bft) 100,00 %
18.09.2019 02:31 12,1 C 74 % 1019,4 hPa 0,0 l/m 1,6 km/h (1 Bft) O 90 7,6 C 12,1 C 4,8 km/h (1 Bft) 95,65 %
18.09.2019 02:30 12,1 C 73 % 1019,6 hPa 0,0 l/m 4,8 km/h (1 Bft) N-NO 22 7,4 C 12,1 C 6,4 km/h (2 Bft) 100,00 %
18.09.2019 02:29 12,1 C 74 % 1019,4 hPa 0,0 l/m 1,6 km/h (1 Bft) NW 315 7,6 C 12,1 C 4,8 km/h (1 Bft) 91,30 %
18.09.2019 02:28 12,1 C 74 % 1019,4 hPa 0,0 l/m 8,0 km/h (2 Bft) N 360 7,6 C 11,1 C 17,7 km/h (3 Bft) 91,30 %
18.09.2019 02:27 12,1 C 74 % 1019,4 hPa 0,0 l/m 1,6 km/h (1 Bft) N-NO 22 7,6 C 12,1 C 8,0 km/h (2 Bft) 100,00 %
18.09.2019 02:26 12,2 C 74 % 1019,3 hPa 0,0 l/m 1,6 km/h (1 Bft) O 90 7,7 C 12,2 C 4,8 km/h (1 Bft) 91,30 %
18.09.2019 02:25 12,2 C 74 % 1019,4 hPa 0,0 l/m 4,8 km/h (1 Bft) N-NO 22 7,7 C 12,2 C 11,3 km/h (2 Bft) 95,65 %
18.09.2019 02:24 12,2 C 74 % 1019,3 hPa 0,0 l/m 0,0 km/h (0 Bft) SO 135 7,7 C 12,2 C 1,6 km/h (1 Bft) 100,00 %
18.09.2019 02:23 12,2 C 74 % 1019,4 hPa 0,0 l/m 4,8 km/h (1 Bft) O 90 7,7 C 12,2 C 11,3 km/h (2 Bft) 100,00 %
18.09.2019 02:22 12,2 C 74 % 1019,4 hPa 0,0 l/m 0,0 km/h (0 Bft) O-SO 112 7,7 C 12,2 C 3,2 km/h (1 Bft) 95,65 %
18.09.2019 02:21 12,3 C 73 % 1019,4 hPa 0,0 l/m 0,0 km/h (0 Bft) O-NO 67 7,6 C 12,3 C 3,2 km/h (1 Bft) 91,30 %
18.09.2019 02:20 12,3 C 73 % 1019,4 hPa 0,0 l/m 1,6 km/h (1 Bft) NW 315 7,6 C 12,3 C 3,2 km/h (1 Bft) 95,65 %
18.09.2019 02:19 12,3 C 73 % 1019,4 hPa 0,0 l/m 3,2 km/h (1 Bft) SW 225 7,6 C 12,3 C 4,8 km/h (1 Bft) 95,65 %
18.09.2019 02:18 12,3 C 73 % 1019,5 hPa 0,0 l/m 1,6 km/h (1 Bft) SW 225 7,6 C 12,3 C 3,2 km/h (1 Bft) 100,00 %
18.09.2019 02:17 12,3 C 73 % 1019,4 hPa 0,0 l/m 1,6 km/h (1 Bft) N-NW 337 7,6 C 12,3 C 6,4 km/h (2 Bft) 95,65 %
18.09.2019 02:16 12,3 C 73 % 1019,4 hPa 0,0 l/m 1,6 km/h (1 Bft) NO 45 7,6 C 12,3 C 4,8 km/h (1 Bft) 95,65 %
18.09.2019 02:15 12,3 C 73 % 1019,3 hPa 0,0 l/m 1,6 km/h (1 Bft) NO 45 7,6 C 12,3 C 3,2 km/h (1 Bft) 95,65 %
18.09.2019 02:14 12,3 C 74 % 1019,3 hPa 0,0 l/m 1,6 km/h (1 Bft) NO 45 7,8 C 12,3 C 6,4 km/h (2 Bft) 95,65 %
18.09.2019 02:13 12,3 C 73 % 1019,5 hPa 0,0 l/m 0,0 km/h (0 Bft) N 0 7,6 C 12,3 C 0,0 km/h (0 Bft) 100,00 %
18.09.2019 02:12 12,3 C 73 % 1019,3 hPa 0,0 l/m 1,6 km/h (1 Bft) W-NW 292 7,6 C 12,3 C 6,4 km/h (2 Bft) 91,30 %
18.09.2019 02:11 12,4 C 74 % 1019,3 hPa 0,0 l/m 3,2 km/h (1 Bft) NW 315 7,9 C 12,4 C 9,7 km/h (2 Bft) 95,65 %
18.09.2019 02:10 12,4 C 74 % 1019,4 hPa 0,0 l/m 3,2 km/h (1 Bft) NW 315 7,9 C 12,4 C 4,8 km/h (1 Bft) 95,65 %
18.09.2019 02:09 12,4 C 74 % 1019,4 hPa 0,0 l/m 9,7 km/h (2 Bft) O 90 7,9 C 10,4 C 16,1 km/h (3 Bft) 100,00 %
18.09.2019 02:08 12,4 C 74 % 1019,4 hPa 0,0 l/m 1,6 km/h (1 Bft) O 90 7,9 C 12,4 C 6,4 km/h (2 Bft) 95,65 %
18.09.2019 02:07 12,5 C 74 % 1019,4 hPa 0,0 l/m 3,2 km/h (1 Bft) O-SO 112 8,0 C 12,5 C 4,8 km/h (1 Bft) 91,30 %
18.09.2019 02:06 12,6 C 73 % 1019,4 hPa 0,0 l/m 3,2 km/h (1 Bft) O 90 7,9 C 12,6 C 6,4 km/h (2 Bft) 91,30 %
18.09.2019 02:05 12,6 C 73 % 1019,4 hPa 0,0 l/m 1,6 km/h (1 Bft) O 90 7,9 C 12,6 C 3,2 km/h (1 Bft) 100,00 %
18.09.2019 02:04 12,6 C 73 % 1019,4 hPa 0,0 l/m 3,2 km/h (1 Bft) N 360 7,9 C 12,6 C 6,4 km/h (2 Bft) 95,65 %
18.09.2019 02:03 12,6 C 73 % 1019,4 hPa 0,0 l/m 0,0 km/h (0 Bft) O 90 7,9 C 12,6 C 1,6 km/h (1 Bft) 100,00 %
18.09.2019 02:02 12,6 C 73 % 1019,4 hPa 0,0 l/m 4,8 km/h (1 Bft) NW 315 7,9 C 12,6 C 8,0 km/h (2 Bft) 95,65 %
18.09.2019 02:01 12,6 C 73 % 1019,4 hPa 0,0 l/m 8,0 km/h (2 Bft) N-NO 22 7,9 C 11,6 C 11,3 km/h (2 Bft) 95,65 %
18.09.2019 02:00 12,7 C 73 % 1019,4 hPa 0,0 l/m 3,2 km/h (1 Bft) O-NO 67 8,0 C 12,7 C 4,8 km/h (1 Bft) 95,65 %
18.09.2019 01:59 12,7 C 73 % 1019,4 hPa 0,0 l/m 3,2 km/h (1 Bft) NW 315 8,0 C 12,7 C 4,8 km/h (1 Bft) 91,30 %
18.09.2019 01:58 12,7 C 73 % 1019,2 hPa 0,0 l/m 1,6 km/h (1 Bft) W-NW 292 8,0 C 12,7 C 4,8 km/h (1 Bft) 95,65 %
18.09.2019 01:57 12,7 C 73 % 1019,3 hPa 0,0 l/m 1,6 km/h (1 Bft) O-NO 67 8,0 C 12,7 C 6,4 km/h (2 Bft) 91,30 %
18.09.2019 01:56 12,7 C 73 % 1019,4 hPa 0,0 l/m 6,4 km/h (2 Bft) NO 45 8,0 C 12,7 C 12,9 km/h (3 Bft) 100,00 %
18.09.2019 01:55 12,7 C 73 % 1019,4 hPa 0,0 l/m 3,2 km/h (1 Bft) NW 315 8,0 C 12,7 C 8,0 km/h (2 Bft) 91,30 %
18.09.2019 01:54 12,7 C 73 % 1019,3 hPa 0,0 l/m 4,8 km/h (1 Bft) NW 315 8,0 C 12,7 C 8,0 km/h (2 Bft) 91,30 %
18.09.2019 01:53 12,7 C 73 % 1019,3 hPa 0,0 l/m 1,6 km/h (1 Bft) NW 315 8,0 C 12,7 C 6,4 km/h (2 Bft) 95,65 %
18.09.2019 01:52 12,7 C 73 % 1019,2 hPa 0,0 l/m 4,8 km/h (1 Bft) NW 315 8,0 C 12,7 C 6,4 km/h (2 Bft) 95,65 %
18.09.2019 01:51 12,7 C 74 % 1019,3 hPa 0,0 l/m 6,4 km/h (2 Bft) NW 315 8,2 C 12,7 C 11,3 km/h (2 Bft) 95,65 %
18.09.2019 01:50 12,7 C 74 % 1019,4 hPa 0,0 l/m 4,8 km/h (1 Bft) N-NO 22 8,2 C 12,7 C 11,3 km/h (2 Bft) 95,65 %
18.09.2019 01:49 12,7 C 74 % 1019,4 hPa 0,0 l/m 3,2 km/h (1 Bft) N 360 8,2 C 12,7 C 11,3 km/h (2 Bft) 95,65 %
18.09.2019 01:48 12,7 C 73 % 1019,4 hPa 0,0 l/m 1,6 km/h (1 Bft) W 270 8,0 C 12,7 C 4,8 km/h (1 Bft) 91,30 %
18.09.2019 01:47 12,7 C 74 % 1019,3 hPa 0,0 l/m 3,2 km/h (1 Bft) W 270 8,2 C 12,7 C 6,4 km/h (2 Bft) 91,30 %
18.09.2019 01:46 12,7 C 73 % 1019,3 hPa 0,0 l/m 6,4 km/h (2 Bft) O-SO 112 8,0 C 12,7 C 11,3 km/h (2 Bft) 95,65 %
18.09.2019 01:45 12,7 C 74 % 1019,4 hPa 0,0 l/m 3,2 km/h (1 Bft) W-SW 247 8,2 C 12,7 C 8,0 km/h (2 Bft) 95,65 %
18.09.2019 01:44 12,7 C 73 % 1019,2 hPa 0,0 l/m 1,6 km/h (1 Bft) S-SW 202 8,0 C 12,7 C 3,2 km/h (1 Bft) 95,65 %
18.09.2019 01:43 12,8 C 73 % 1019,3 hPa 0,0 l/m 3,2 km/h (1 Bft) O-SO 112 8,1 C 12,8 C 4,8 km/h (1 Bft) 91,30 %
18.09.2019 01:42 12,8 C 73 % 1019,3 hPa 0,0 l/m 0,0 km/h (0 Bft) O 90 8,1 C 12,8 C 3,2 km/h (1 Bft) 100,00 %
18.09.2019 01:41 12,8 C 73 % 1019,3 hPa 0,0 l/m 0,0 km/h (0 Bft) N 0 8,1 C 12,8 C 0,0 km/h (0 Bft) 95,65 %
18.09.2019 01:40 12,9 C 73 % 1019,2 hPa 0,0 l/m 0,0 km/h (0 Bft) N 0 8,2 C 12,9 C 0,0 km/h (0 Bft) 95,65 %
18.09.2019 01:39 12,9 C 73 % 1019,2 hPa 0,0 l/m 1,6 km/h (1 Bft) O-SO 112 8,2 C 12,9 C 3,2 km/h (1 Bft) 95,65 %
18.09.2019 01:38 12,9 C 73 % 1019,2 hPa 0,0 l/m 1,6 km/h (1 Bft) O 90 8,2 C 12,9 C 3,2 km/h (1 Bft) 95,65 %
18.09.2019 01:37 12,9 C 73 % 1019,2 hPa 0,0 l/m 1,6 km/h (1 Bft) W-SW 247 8,2 C 12,9 C 8,0 km/h (2 Bft) 100,00 %
18.09.2019 01:36 12,9 C 73 % 1019,2 hPa 0,0 l/m 3,2 km/h (1 Bft) W-SW 247 8,2 C 12,9 C 9,7 km/h (2 Bft) 91,30 %
18.09.2019 01:35 12,8 C 73 % 1019,2 hPa 0,0 l/m 1,6 km/h (1 Bft) N-NO 22 8,1 C 12,8 C 3,2 km/h (1 Bft) 95,65 %
18.09.2019 01:34 12,8 C 73 % 1019,2 hPa 0,0 l/m 3,2 km/h (1 Bft) N-NW 337 8,1 C 12,8 C 9,7 km/h (2 Bft) 100,00 %
18.09.2019 01:33 12,8 C 73 % 1019,2 hPa 0,0 l/m 8,0 km/h (2 Bft) O-SO 112 8,1 C 11,8 C 11,3 km/h (2 Bft) 95,65 %
18.09.2019 01:32 12,8 C 73 % 1019,3 hPa 0,0 l/m 3,2 km/h (1 Bft) O 90 8,1 C 12,8 C 8,0 km/h (2 Bft) 95,65 %
18.09.2019 01:31 12,8 C 73 % 1019,2 hPa 0,0 l/m 3,2 km/h (1 Bft) O-NO 67 8,1 C 12,8 C 9,7 km/h (2 Bft) 95,65 %
18.09.2019 01:30 12,8 C 73 % 1019,2 hPa 0,0 l/m 0,0 km/h (0 Bft) O 90 8,1 C 12,8 C 3,2 km/h (1 Bft) 91,30 %
18.09.2019 01:29 12,8 C 73 % 1019,2 hPa 0,0 l/m 6,4 km/h (2 Bft) O 90 8,1 C 12,8 C 8,0 km/h (2 Bft) 95,65 %
18.09.2019 01:28 12,9 C 73 % 1019,2 hPa 0,0 l/m 3,2 km/h (1 Bft) O 90 8,2 C 12,9 C 4,8 km/h (1 Bft) 95,65 %
18.09.2019 01:27 12,9 C 73 % 1019,1 hPa 0,0 l/m 0,0 km/h (0 Bft) NW 315 8,2 C 12,9 C 1,6 km/h (1 Bft) 95,65 %
18.09.2019 01:26 12,9 C 73 % 1019,1 hPa 0,0 l/m 1,6 km/h (1 Bft) O-SO 112 8,2 C 12,9 C 4,8 km/h (1 Bft) 95,65 %
18.09.2019 01:25 12,9 C 73 % 1019,2 hPa 0,0 l/m 0,0 km/h (0 Bft) S-SO 157 8,2 C 12,9 C 3,2 km/h (1 Bft) 95,65 %
18.09.2019 01:24 12,9 C 73 % 1019,1 hPa 0,0 l/m 1,6 km/h (1 Bft) O 90 8,2 C 12,9 C 3,2 km/h (1 Bft) 100,00 %
18.09.2019 01:23 12,9 C 73 % 1019,0 hPa 0,0 l/m 0,0 km/h (0 Bft) N-NO 22 8,2 C 12,9 C 1,6 km/h (1 Bft) 95,65 %
18.09.2019 01:22 12,9 C 73 % 1019,1 hPa 0,0 l/m 4,8 km/h (1 Bft) N 360 8,2 C 12,9 C 8,0 km/h (2 Bft) 100,00 %
18.09.2019 01:21 12,8 C 73 % 1019,0 hPa 0,0 l/m 4,8 km/h (1 Bft) N 360 8,1 C 12,8 C 12,9 km/h (3 Bft) 91,30 %
18.09.2019 01:20 12,8 C 73 % 1019,0 hPa 0,0 l/m 1,6 km/h (1 Bft) N 360 8,1 C 12,8 C 3,2 km/h (1 Bft) 100,00 %
18.09.2019 01:19 12,9 C 73 % 1019,1 hPa 0,0 l/m 0,0 km/h (0 Bft) O 90 8,2 C 12,9 C 1,6 km/h (1 Bft) 91,30 %
18.09.2019 01:18 12,9 C 73 % 1019,0 hPa 0,0 l/m 1,6 km/h (1 Bft) O-SO 112 8,2 C 12,9 C 3,2 km/h (1 Bft) 91,30 %
18.09.2019 01:17 12,9 C 73 % 1018,9 hPa 0,0 l/m 1,6 km/h (1 Bft) O 90 8,2 C 12,9 C 3,2 km/h (1 Bft) 100,00 %
18.09.2019 01:16 13,0 C 73 % 1019,0 hPa 0,0 l/m 0,0 km/h (0 Bft) O-SO 112 8,3 C 13,0 C 3,2 km/h (1 Bft) 95,65 %
18.09.2019 01:15 13,0 C 73 % 1019,1 hPa 0,0 l/m 0,0 km/h (0 Bft) N-NO 22 8,3 C 13,0 C 1,6 km/h (1 Bft) 100,00 %
18.09.2019 01:14 13,0 C 72 % 1019,1 hPa 0,0 l/m 0,0 km/h (0 Bft) N-NO 22 8,1 C 13,0 C 1,6 km/h (1 Bft) 91,30 %
18.09.2019 01:13 13,1 C 72 % 1019,1 hPa 0,0 l/m 1,6 km/h (1 Bft) N-NO 22 8,2 C 13,1 C 6,4 km/h (2 Bft) 91,30 %
18.09.2019 01:12 13,1 C 73 % 1019,0 hPa 0,0 l/m 3,2 km/h (1 Bft) W-NW 292 8,4 C 13,1 C 4,8 km/h (1 Bft) 100,00 %
18.09.2019 01:11 13,1 C 73 % 1019,0 hPa 0,0 l/m 1,6 km/h (1 Bft) N-NW 337 8,4 C 13,1 C 3,2 km/h (1 Bft) 95,65 %
18.09.2019 01:10 13,1 C 72 % 1019,1 hPa 0,0 l/m 3,2 km/h (1 Bft) NO 45 8,2 C 13,1 C 9,7 km/h (2 Bft) 100,00 %
18.09.2019 01:09 13,1 C 72 % 1018,9 hPa 0,0 l/m 4,8 km/h (1 Bft) W-NW 292 8,2 C 13,1 C 9,7 km/h (2 Bft) 100,00 %
18.09.2019 01:08 13,1 C 72 % 1019,0 hPa 0,0 l/m 4,8 km/h (1 Bft) S-SW 202 8,2 C 13,1 C 11,3 km/h (2 Bft) 100,00 %
18.09.2019 01:07 13,1 C 72 % 1018,9 hPa 0,0 l/m 1,6 km/h (1 Bft) W-SW 247 8,2 C 13,1 C 3,2 km/h (1 Bft) 95,65 %
18.09.2019 01:06 13,1 C 72 % 1018,9 hPa 0,0 l/m 3,2 km/h (1 Bft) O-NO 67 8,2 C 13,1 C 8,0 km/h (2 Bft) 91,30 %
18.09.2019 01:05 13,1 C 72 % 1018,9 hPa 0,0 l/m 3,2 km/h (1 Bft) N 360 8,2 C 13,1 C 6,4 km/h (2 Bft) 95,65 %
18.09.2019 01:04 13,1 C 72 % 1018,9 hPa 0,0 l/m 3,2 km/h (1 Bft) O-SO 112 8,2 C 13,1 C 4,8 km/h (1 Bft) 95,65 %
18.09.2019 01:03 13,1 C 72 % 1018,9 hPa 0,0 l/m 1,6 km/h (1 Bft) S-SO 157 8,2 C 13,1 C 3,2 km/h (1 Bft) 100,00 %
18.09.2019 01:02 13,2 C 72 % 1018,9 hPa 0,0 l/m 4,8 km/h (1 Bft) N-NW 337 8,3 C 13,2 C 8,0 km/h (2 Bft) 91,30 %
18.09.2019 01:01 13,2 C 73 % 1018,9 hPa 0,0 l/m 6,4 km/h (2 Bft) NO 45 8,5 C 13,2 C 17,7 km/h (3 Bft) 95,65 %
18.09.2019 01:00 13,1 C 73 % 1018,9 hPa 0,0 l/m 8,0 km/h (2 Bft) N-NO 22 8,4 C 12,1 C 17,7 km/h (3 Bft) 100,00 %
18.09.2019 00:59 13,1 C 73 % 1018,9 hPa 0,0 l/m 6,4 km/h (2 Bft) O 90 8,4 C 13,1 C 9,7 km/h (2 Bft) 95,65 %
18.09.2019 00:58 13,1 C 73 % 1019,0 hPa 0,0 l/m 3,2 km/h (1 Bft) O-SO 112 8,4 C 13,1 C 8,0 km/h (2 Bft) 95,65 %
18.09.2019 00:57 13,1 C 73 % 1018,9 hPa 0,0 l/m 0,0 km/h (0 Bft) N-NO 22 8,4 C 13,1 C 1,6 km/h (1 Bft) 100,00 %
18.09.2019 00:56 13,1 C 73 % 1018,9 hPa 0,0 l/m 3,2 km/h (1 Bft) N-NW 337 8,4 C 13,1 C 6,4 km/h (2 Bft) 95,65 %
18.09.2019 00:55 13,1 C 73 % 1019,0 hPa 0,0 l/m 4,8 km/h (1 Bft) N 360 8,4 C 13,1 C 8,0 km/h (2 Bft) 95,65 %
18.09.2019 00:54 13,1 C 73 % 1018,9 hPa 0,0 l/m 0,0 km/h (0 Bft) N-NW 337 8,4 C 13,1 C 4,8 km/h (1 Bft) 91,30 %
18.09.2019 00:53 13,1 C 74 % 1018,9 hPa 0,0 l/m 1,6 km/h (1 Bft) O 90 8,6 C 13,1 C 4,8 km/h (1 Bft) 100,00 %
18.09.2019 00:52 13,1 C 74 % 1018,9 hPa 0,0 l/m 3,2 km/h (1 Bft) O 90 8,6 C 13,1 C 3,2 km/h (1 Bft) 95,65 %
18.09.2019 00:51 13,1 C 73 % 1018,9 hPa 0,0 l/m 0,0 km/h (0 Bft) O 90 8,4 C 13,1 C 1,6 km/h (1 Bft) 100,00 %
18.09.2019 00:50 13,1 C 74 % 1018,9 hPa 0,0 l/m 3,2 km/h (1 Bft) N-NO 22 8,6 C 13,1 C 8,0 km/h (2 Bft) 91,30 %
18.09.2019 00:49 13,2 C 74 % 1018,9 hPa 0,0 l/m 1,6 km/h (1 Bft) O-NO 67 8,7 C 13,2 C 4,8 km/h (1 Bft) 91,30 %
18.09.2019 00:48 13,2 C 73 % 1018,9 hPa 0,0 l/m 6,4 km/h (2 Bft) N-NO 22 8,5 C 13,2 C 12,9 km/h (3 Bft) 100,00 %
18.09.2019 00:47 13,2 C 73 % 1018,8 hPa 0,0 l/m 8,0 km/h (2 Bft) NO 45 8,5 C 12,2 C 12,9 km/h (3 Bft) 91,30 %
18.09.2019 00:46 13,2 C 74 % 1018,9 hPa 0,0 l/m 6,4 km/h (2 Bft) SO 135 8,7 C 13,2 C 11,3 km/h (2 Bft) 95,65 %
18.09.2019 00:45 13,2 C 74 % 1018,8 hPa 0,0 l/m 3,2 km/h (1 Bft) O 90 8,7 C 13,2 C 3,2 km/h (1 Bft) 91,30 %
18.09.2019 00:44 13,3 C 74 % 1018,8 hPa 0,0 l/m 3,2 km/h (1 Bft) O-SO 112 8,8 C 13,3 C 4,8 km/h (1 Bft) 95,65 %
18.09.2019 00:43 13,3 C 73 % 1018,8 hPa 0,0 l/m 3,2 km/h (1 Bft) O-SO 112 8,6 C 13,3 C 4,8 km/h (1 Bft) 95,65 %
18.09.2019 00:42 13,3 C 73 % 1018,7 hPa 0,0 l/m 1,6 km/h (1 Bft) SO 135 8,6 C 13,3 C 3,2 km/h (1 Bft) 95,65 %
18.09.2019 00:41 13,3 C 73 % 1018,8 hPa 0,0 l/m 3,2 km/h (1 Bft) SO 135 8,6 C 13,3 C 4,8 km/h (1 Bft) 100,00 %
18.09.2019 00:40 13,4 C 73 % 1018,8 hPa 0,0 l/m 3,2 km/h (1 Bft) O 90 8,7 C 13,4 C 4,8 km/h (1 Bft) 91,30 %
18.09.2019 00:39 13,4 C 73 % 1018,7 hPa 0,0 l/m 3,2 km/h (1 Bft) O-SO 112 8,7 C 13,4 C 6,4 km/h (2 Bft) 100,00 %
18.09.2019 00:38 13,4 C 73 % 1018,8 hPa 0,0 l/m 4,8 km/h (1 Bft) O 90 8,7 C 13,4 C 8,0 km/h (2 Bft) 91,30 %
18.09.2019 00:37 13,4 C 73 % 1018,8 hPa 0,0 l/m 3,2 km/h (1 Bft) O 90 8,7 C 13,4 C 6,4 km/h (2 Bft) 95,65 %
18.09.2019 00:36 13,4 C 73 % 1018,8 hPa 0,0 l/m 0,0 km/h (0 Bft) NW 315 8,7 C 13,4 C 1,6 km/h (1 Bft) 100,00 %
18.09.2019 00:35 13,4 C 73 % 1018,8 hPa 0,0 l/m 3,2 km/h (1 Bft) N-NO 22 8,7 C 13,4 C 12,9 km/h (3 Bft) 100,00 %
18.09.2019 00:34 13,4 C 73 % 1018,8 hPa 0,0 l/m 4,8 km/h (1 Bft) NO 45 8,7 C 13,4 C 9,7 km/h (2 Bft) 100,00 %
18.09.2019 00:33 13,4 C 73 % 1018,8 hPa 0,0 l/m 6,4 km/h (2 Bft) NW 315 8,7 C 13,4 C 11,3 km/h (2 Bft) 95,65 %
18.09.2019 00:32 13,3 C 73 % 1018,7 hPa 0,0 l/m 6,4 km/h (2 Bft) NW 315 8,6 C 13,3 C 16,1 km/h (3 Bft) 95,65 %
18.09.2019 00:31 13,3 C 73 % 1018,8 hPa 0,0 l/m 8,0 km/h (2 Bft) N-NW 337 8,6 C 12,3 C 16,1 km/h (3 Bft) 100,00 %
18.09.2019 00:30 13,3 C 74 % 1018,6 hPa 0,0 l/m 1,6 km/h (1 Bft) N-NO 22 8,8 C 13,3 C 8,0 km/h (2 Bft) 91,30 %
18.09.2019 00:29 13,3 C 75 % 1018,7 hPa 0,0 l/m 1,6 km/h (1 Bft) O-NO 67 9,0 C 13,3 C 6,4 km/h (2 Bft) 100,00 %
18.09.2019 00:28 13,3 C 75 % 1018,8 hPa 0,0 l/m 3,2 km/h (1 Bft) N-NW 337 9,0 C 13,3 C 4,8 km/h (1 Bft) 91,30 %
18.09.2019 00:27 13,3 C 75 % 1018,8 hPa 0,0 l/m 3,2 km/h (1 Bft) N-NW 337 9,0 C 13,3 C 4,8 km/h (1 Bft) 100,00 %
18.09.2019 00:26 13,3 C 75 % 1018,6 hPa 0,0 l/m 1,6 km/h (1 Bft) SO 135 9,0 C 13,3 C 3,2 km/h (1 Bft) 91,30 %
18.09.2019 00:25 13,3 C 75 % 1018,7 hPa 0,0 l/m 4,8 km/h (1 Bft) O-SO 112 9,0 C 13,3 C 8,0 km/h (2 Bft) 95,65 %
18.09.2019 00:24 13,3 C 76 % 1018,7 hPa 0,0 l/m 3,2 km/h (1 Bft) O 90 9,2 C 13,3 C 4,8 km/h (1 Bft) 95,65 %
18.09.2019 00:23 13,4 C 75 % 1018,7 hPa 0,0 l/m 0,0 km/h (0 Bft) O-SO 112 9,1 C 13,4 C 3,2 km/h (1 Bft) 95,65 %
18.09.2019 00:22 13,4 C 75 % 1018,7 hPa 0,0 l/m 0,0 km/h (0 Bft) O-SO 112 9,1 C 13,4 C 3,2 km/h (1 Bft) 100,00 %
18.09.2019 00:21 13,4 C 75 % 1018,7 hPa 0,0 l/m 3,2 km/h (1 Bft) O 90 9,1 C 13,4 C 4,8 km/h (1 Bft) 95,65 %
18.09.2019 00:20 13,4 C 75 % 1018,6 hPa 0,0 l/m 1,6 km/h (1 Bft) S-SW 202 9,1 C 13,4 C 3,2 km/h (1 Bft) 91,30 %
18.09.2019 00:19 13,4 C 74 % 1018,6 hPa 0,0 l/m 3,2 km/h (1 Bft) O-SO 112 8,9 C 13,4 C 4,8 km/h (1 Bft) 100,00 %
18.09.2019 00:18 13,4 C 75 % 1018,6 hPa 0,0 l/m 1,6 km/h (1 Bft) S-SO 157 9,1 C 13,4 C 6,4 km/h (2 Bft) 91,30 %
18.09.2019 00:17 13,4 C 75 % 1018,6 hPa 0,0 l/m 1,6 km/h (1 Bft) W-NW 292 9,1 C 13,4 C 4,8 km/h (1 Bft) 100,00 %
18.09.2019 00:16 13,4 C 75 % 1018,6 hPa 0,0 l/m 0,0 km/h (0 Bft) W-NW 292 9,1 C 13,4 C 1,6 km/h (1 Bft) 95,65 %
18.09.2019 00:15 13,4 C 75 % 1018,5 hPa 0,0 l/m 3,2 km/h (1 Bft) NW 315 9,1 C 13,4 C 6,4 km/h (2 Bft) 100,00 %
18.09.2019 00:14 13,4 C 75 % 1018,7 hPa 0,0 l/m 6,4 km/h (2 Bft) O-NO 67 9,1 C 13,4 C 9,7 km/h (2 Bft) 100,00 %
18.09.2019 00:13 13,4 C 75 % 1018,6 hPa 0,0 l/m 1,6 km/h (1 Bft) NO 45 9,1 C 13,4 C 4,8 km/h (1 Bft) 95,65 %
18.09.2019 00:12 13,4 C 76 % 1018,5 hPa 0,0 l/m 3,2 km/h (1 Bft) O-SO 112 9,3 C 13,4 C 8,0 km/h (2 Bft) 95,65 %
18.09.2019 00:11 13,4 C 76 % 1018,6 hPa 0,0 l/m 6,4 km/h (2 Bft) O 90 9,3 C 13,4 C 9,7 km/h (2 Bft) 91,30 %
18.09.2019 00:10 13,4 C 76 % 1018,6 hPa 0,0 l/m 3,2 km/h (1 Bft) O 90 9,3 C 13,4 C 6,4 km/h (2 Bft) 100,00 %
18.09.2019 00:09 13,4 C 76 % 1018,5 hPa 0,0 l/m 3,2 km/h (1 Bft) SO 135 9,3 C 13,4 C 4,8 km/h (1 Bft) 95,65 %
18.09.2019 00:08 13,4 C 76 % 1018,6 hPa 0,0 l/m 3,2 km/h (1 Bft) O-SO 112 9,3 C 13,4 C 6,4 km/h (2 Bft) 95,65 %
18.09.2019 00:07 13,4 C 76 % 1018,6 hPa 0,0 l/m 0,0 km/h (0 Bft) N-NO 22 9,3 C 13,4 C 3,2 km/h (1 Bft) 100,00 %
18.09.2019 00:06 13,4 C 76 % 1018,5 hPa 0,0 l/m 4,8 km/h (1 Bft) SO 135 9,3 C 13,4 C 6,4 km/h (2 Bft) 91,30 %
18.09.2019 00:05 13,4 C 76 % 1018,5 hPa 0,0 l/m 4,8 km/h (1 Bft) O-SO 112 9,3 C 13,4 C 8,0 km/h (2 Bft) 100,00 %
18.09.2019 00:04 13,4 C 76 % 1018,6 hPa 0,0 l/m 1,6 km/h (1 Bft) W 270 9,3 C 13,4 C 3,2 km/h (1 Bft) 95,65 %
18.09.2019 00:03 13,4 C 76 % 1018,4 hPa 0,0 l/m 1,6 km/h (1 Bft) W 270 9,3 C 13,4 C 3,2 km/h (1 Bft) 95,65 %
18.09.2019 00:02 13,3 C 76 % 1018,6 hPa 0,0 l/m 4,8 km/h (1 Bft) O 90 9,2 C 13,3 C 8,0 km/h (2 Bft) 86,96 %
18.09.2019 00:01 13,4 C 77 % 1018,5 hPa 0,0 l/m 1,6 km/h (1 Bft) O 90 9,5 C 13,4 C 4,8 km/h (1 Bft) 91,30 %
18.09.2019 00:00 13,4 C 77 % 1018,5 hPa 0,0 l/m 1,6 km/h (1 Bft) S-SO 157 9,5 C 13,4 C 4,8 km/h (1 Bft) 95,65 %
_ Min-Zeit 06:34 15:33 00:03 - 00:07 - - 20:13 06:38 01:40 17:42
Minimum _ 8,6 C 39 % 1018,4 hPa - 0,0 km/h (0 Bft) - - 1,6 C 7,5 C 0,0 km/h (0 Bft) 0,00 %
_ Max-Zeit 15:42 06:05 11:08 00:00 13:20 - - 00:00 15:42 03:52 00:05
Maximum _ 16,3 C 79 % 1023,6 hPa 0,0 l/m 12,9 km/h
NO (3 Bft)
- - 9,5 C 16,3 C 19,3 km/h
NO (3 Bft)
100,00 %
Durchschnitt _ 12,5 C 63 % 1021,8 hPa #0,0 l/m 3,6 km/h (1 Bft) NW - 5,4 C 12,4 C 6,8 km/h (2 Bft) 95,58 %